<?xml version="1.0" encoding="UTF-8" standalone="no" ?>
<gpx xmlns="http://www.topografix.com/GPX/1/1" xmlns:xsi="http://www.w3.org/2001/XMLSchema-instance" xsi:schemaLocation="http://www.topografix.com/GPX/1/1 http://www.topografix.com/GPX/1/1/gpx.xsd" version="1.1" creator="VisuGPX - https://www.visugpx.com">
  <metadata>
    <name>chaurionde 16.02.13</name>
    <desc><![CDATA[Superbe rando]]></desc>
  </metadata>
  <trk>
    <name><![CDATA[CHAURIONDE13:36:52]]></name>
    <trkseg>
      <trkpt lat="45.7134" lon="6.27478">
        <ele>1144.11</ele>
        <time>2013-02-16T08:41:20Z</time>
      </trkpt>
      <trkpt lat="45.71341" lon="6.27478">
        <ele>1147.47</ele>
        <time>2013-02-16T08:41:29Z</time>
      </trkpt>
      <trkpt lat="45.71343" lon="6.27478">
        <ele>1150.35</ele>
        <time>2013-02-16T08:41:39Z</time>
      </trkpt>
      <trkpt lat="45.71342" lon="6.27477">
        <ele>1151.8</ele>
        <time>2013-02-16T08:41:43Z</time>
      </trkpt>
      <trkpt lat="45.7134" lon="6.27473">
        <ele>1155.64</ele>
        <time>2013-02-16T08:41:57Z</time>
      </trkpt>
      <trkpt lat="45.71339" lon="6.27462">
        <ele>1157.56</ele>
        <time>2013-02-16T08:42:12Z</time>
      </trkpt>
      <trkpt lat="45.7134" lon="6.2744">
        <ele>1160.93</ele>
        <time>2013-02-16T08:42:31Z</time>
      </trkpt>
      <trkpt lat="45.7134" lon="6.27428">
        <ele>1161.89</ele>
        <time>2013-02-16T08:42:50Z</time>
      </trkpt>
      <trkpt lat="45.7134" lon="6.27414">
        <ele>1164.29</ele>
        <time>2013-02-16T08:43:04Z</time>
      </trkpt>
      <trkpt lat="45.71339" lon="6.27394">
        <ele>1166.22</ele>
        <time>2013-02-16T08:43:22Z</time>
      </trkpt>
      <trkpt lat="45.71338" lon="6.27375">
        <ele>1168.14</ele>
        <time>2013-02-16T08:43:37Z</time>
      </trkpt>
      <trkpt lat="45.7134" lon="6.27358">
        <ele>1169.58</ele>
        <time>2013-02-16T08:43:53Z</time>
      </trkpt>
      <trkpt lat="45.7134" lon="6.27344">
        <ele>1172.47</ele>
        <time>2013-02-16T08:44:08Z</time>
      </trkpt>
      <trkpt lat="45.71337" lon="6.27325">
        <ele>1174.39</ele>
        <time>2013-02-16T08:44:27Z</time>
      </trkpt>
      <trkpt lat="45.71334" lon="6.2731">
        <ele>1175.35</ele>
        <time>2013-02-16T08:44:44Z</time>
      </trkpt>
      <trkpt lat="45.71335" lon="6.27296">
        <ele>1176.31</ele>
        <time>2013-02-16T08:44:59Z</time>
      </trkpt>
      <trkpt lat="45.71335" lon="6.2728">
        <ele>1177.75</ele>
        <time>2013-02-16T08:45:14Z</time>
      </trkpt>
      <trkpt lat="45.71329" lon="6.27262">
        <ele>1180.64</ele>
        <time>2013-02-16T08:45:30Z</time>
      </trkpt>
      <trkpt lat="45.71324" lon="6.27247">
        <ele>1182.08</ele>
        <time>2013-02-16T08:45:45Z</time>
      </trkpt>
      <trkpt lat="45.71319" lon="6.27232">
        <ele>1184</ele>
        <time>2013-02-16T08:45:59Z</time>
      </trkpt>
      <trkpt lat="45.71313" lon="6.27218">
        <ele>1185.92</ele>
        <time>2013-02-16T08:46:13Z</time>
      </trkpt>
      <trkpt lat="45.71306" lon="6.27211">
        <ele>1187.85</ele>
        <time>2013-02-16T08:46:26Z</time>
      </trkpt>
      <trkpt lat="45.71296" lon="6.27201">
        <ele>1189.77</ele>
        <time>2013-02-16T08:46:41Z</time>
      </trkpt>
      <trkpt lat="45.71284" lon="6.27193">
        <ele>1191.21</ele>
        <time>2013-02-16T08:46:56Z</time>
      </trkpt>
      <trkpt lat="45.71275" lon="6.27187">
        <ele>1192.17</ele>
        <time>2013-02-16T08:47:10Z</time>
      </trkpt>
      <trkpt lat="45.71261" lon="6.2717">
        <ele>1196.02</ele>
        <time>2013-02-16T08:47:26Z</time>
      </trkpt>
      <trkpt lat="45.7126" lon="6.27168">
        <ele>1192.65</ele>
        <time>2013-02-16T08:47:28Z</time>
      </trkpt>
      <trkpt lat="45.7125" lon="6.27162">
        <ele>1195.54</ele>
        <time>2013-02-16T08:47:41Z</time>
      </trkpt>
      <trkpt lat="45.71239" lon="6.27155">
        <ele>1197.94</ele>
        <time>2013-02-16T08:47:55Z</time>
      </trkpt>
      <trkpt lat="45.71227" lon="6.27149">
        <ele>1199.86</ele>
        <time>2013-02-16T08:48:11Z</time>
      </trkpt>
      <trkpt lat="45.71217" lon="6.27149">
        <ele>1202.27</ele>
        <time>2013-02-16T08:48:24Z</time>
      </trkpt>
      <trkpt lat="45.71207" lon="6.27151">
        <ele>1204.67</ele>
        <time>2013-02-16T08:48:38Z</time>
      </trkpt>
      <trkpt lat="45.71202" lon="6.27148">
        <ele>1203.71</ele>
        <time>2013-02-16T08:48:45Z</time>
      </trkpt>
      <trkpt lat="45.71201" lon="6.27148">
        <ele>1205.63</ele>
        <time>2013-02-16T08:48:47Z</time>
      </trkpt>
      <trkpt lat="45.71195" lon="6.27144">
        <ele>1209</ele>
        <time>2013-02-16T08:48:56Z</time>
      </trkpt>
      <trkpt lat="45.71194" lon="6.27142">
        <ele>1205.15</ele>
        <time>2013-02-16T08:48:57Z</time>
      </trkpt>
      <trkpt lat="45.71193" lon="6.27142">
        <ele>1209</ele>
        <time>2013-02-16T08:48:58Z</time>
      </trkpt>
      <trkpt lat="45.71184" lon="6.27138">
        <ele>1209.48</ele>
        <time>2013-02-16T08:49:13Z</time>
      </trkpt>
      <trkpt lat="45.71177" lon="6.27135">
        <ele>1212.84</ele>
        <time>2013-02-16T08:49:22Z</time>
      </trkpt>
      <trkpt lat="45.71168" lon="6.27135">
        <ele>1213.32</ele>
        <time>2013-02-16T08:49:36Z</time>
      </trkpt>
      <trkpt lat="45.71169" lon="6.2713">
        <ele>1212.84</ele>
        <time>2013-02-16T08:50:00Z</time>
      </trkpt>
      <trkpt lat="45.7116" lon="6.27131">
        <ele>1214.76</ele>
        <time>2013-02-16T08:50:14Z</time>
      </trkpt>
      <trkpt lat="45.71155" lon="6.2713">
        <ele>1215.24</ele>
        <time>2013-02-16T08:50:21Z</time>
      </trkpt>
      <trkpt lat="45.71148" lon="6.27127">
        <ele>1216.21</ele>
        <time>2013-02-16T08:50:29Z</time>
      </trkpt>
      <trkpt lat="45.71138" lon="6.27124">
        <ele>1218.13</ele>
        <time>2013-02-16T08:50:41Z</time>
      </trkpt>
      <trkpt lat="45.71126" lon="6.27123">
        <ele>1219.09</ele>
        <time>2013-02-16T08:50:53Z</time>
      </trkpt>
      <trkpt lat="45.71113" lon="6.27122">
        <ele>1221.01</ele>
        <time>2013-02-16T08:51:09Z</time>
      </trkpt>
      <trkpt lat="45.71102" lon="6.27118">
        <ele>1222.45</ele>
        <time>2013-02-16T08:51:23Z</time>
      </trkpt>
      <trkpt lat="45.71096" lon="6.27116">
        <ele>1224.38</ele>
        <time>2013-02-16T08:51:36Z</time>
      </trkpt>
      <trkpt lat="45.71085" lon="6.2711">
        <ele>1225.34</ele>
        <time>2013-02-16T08:51:50Z</time>
      </trkpt>
      <trkpt lat="45.71073" lon="6.27103">
        <ele>1227.26</ele>
        <time>2013-02-16T08:52:05Z</time>
      </trkpt>
      <trkpt lat="45.71063" lon="6.27098">
        <ele>1229.66</ele>
        <time>2013-02-16T08:52:19Z</time>
      </trkpt>
      <trkpt lat="45.71052" lon="6.27091">
        <ele>1231.59</ele>
        <time>2013-02-16T08:52:34Z</time>
      </trkpt>
      <trkpt lat="45.71048" lon="6.27089">
        <ele>1231.59</ele>
        <time>2013-02-16T08:52:39Z</time>
      </trkpt>
      <trkpt lat="45.71035" lon="6.2708">
        <ele>1233.51</ele>
        <time>2013-02-16T08:52:52Z</time>
      </trkpt>
      <trkpt lat="45.71024" lon="6.27072">
        <ele>1235.43</ele>
        <time>2013-02-16T08:53:05Z</time>
      </trkpt>
      <trkpt lat="45.7102" lon="6.27068">
        <ele>1237.35</ele>
        <time>2013-02-16T08:53:12Z</time>
      </trkpt>
      <trkpt lat="45.71015" lon="6.27064">
        <ele>1238.32</ele>
        <time>2013-02-16T08:53:17Z</time>
      </trkpt>
      <trkpt lat="45.71009" lon="6.2706">
        <ele>1238.32</ele>
        <time>2013-02-16T08:53:24Z</time>
      </trkpt>
      <trkpt lat="45.71002" lon="6.27056">
        <ele>1239.76</ele>
        <time>2013-02-16T08:53:33Z</time>
      </trkpt>
      <trkpt lat="45.70993" lon="6.27048">
        <ele>1241.2</ele>
        <time>2013-02-16T08:53:46Z</time>
      </trkpt>
      <trkpt lat="45.70986" lon="6.27043">
        <ele>1242.64</ele>
        <time>2013-02-16T08:53:53Z</time>
      </trkpt>
      <trkpt lat="45.70975" lon="6.27035">
        <ele>1243.6</ele>
        <time>2013-02-16T08:54:05Z</time>
      </trkpt>
      <trkpt lat="45.7097" lon="6.27029">
        <ele>1244.08</ele>
        <time>2013-02-16T08:54:11Z</time>
      </trkpt>
      <trkpt lat="45.70957" lon="6.27015">
        <ele>1246.97</ele>
        <time>2013-02-16T08:54:26Z</time>
      </trkpt>
      <trkpt lat="45.70947" lon="6.27007">
        <ele>1247.45</ele>
        <time>2013-02-16T08:54:38Z</time>
      </trkpt>
      <trkpt lat="45.70946" lon="6.27007">
        <ele>1247.93</ele>
        <time>2013-02-16T08:54:40Z</time>
      </trkpt>
      <trkpt lat="45.7094" lon="6.27001">
        <ele>1248.41</ele>
        <time>2013-02-16T08:54:48Z</time>
      </trkpt>
      <trkpt lat="45.70935" lon="6.26996">
        <ele>1249.37</ele>
        <time>2013-02-16T08:54:56Z</time>
      </trkpt>
      <trkpt lat="45.70927" lon="6.26986">
        <ele>1250.33</ele>
        <time>2013-02-16T08:55:07Z</time>
      </trkpt>
      <trkpt lat="45.70916" lon="6.26978">
        <ele>1251.29</ele>
        <time>2013-02-16T08:55:21Z</time>
      </trkpt>
      <trkpt lat="45.70898" lon="6.2697">
        <ele>1252.74</ele>
        <time>2013-02-16T08:55:37Z</time>
      </trkpt>
      <trkpt lat="45.70883" lon="6.26965">
        <ele>1253.7</ele>
        <time>2013-02-16T08:55:49Z</time>
      </trkpt>
      <trkpt lat="45.7087" lon="6.26963">
        <ele>1253.7</ele>
        <time>2013-02-16T08:56:01Z</time>
      </trkpt>
      <trkpt lat="45.70856" lon="6.26962">
        <ele>1254.18</ele>
        <time>2013-02-16T08:56:15Z</time>
      </trkpt>
      <trkpt lat="45.70844" lon="6.26961">
        <ele>1256.1</ele>
        <time>2013-02-16T08:56:29Z</time>
      </trkpt>
      <trkpt lat="45.70835" lon="6.26949">
        <ele>1258.02</ele>
        <time>2013-02-16T08:56:43Z</time>
      </trkpt>
      <trkpt lat="45.70823" lon="6.26932">
        <ele>1258.98</ele>
        <time>2013-02-16T08:56:59Z</time>
      </trkpt>
      <trkpt lat="45.70815" lon="6.26924">
        <ele>1261.39</ele>
        <time>2013-02-16T08:57:11Z</time>
      </trkpt>
      <trkpt lat="45.70811" lon="6.26918">
        <ele>1261.87</ele>
        <time>2013-02-16T08:57:18Z</time>
      </trkpt>
      <trkpt lat="45.70808" lon="6.26915">
        <ele>1261.87</ele>
        <time>2013-02-16T08:57:20Z</time>
      </trkpt>
      <trkpt lat="45.70803" lon="6.26907">
        <ele>1263.31</ele>
        <time>2013-02-16T08:57:28Z</time>
      </trkpt>
      <trkpt lat="45.70795" lon="6.26898">
        <ele>1265.23</ele>
        <time>2013-02-16T08:57:39Z</time>
      </trkpt>
      <trkpt lat="45.70792" lon="6.26892">
        <ele>1266.19</ele>
        <time>2013-02-16T08:57:46Z</time>
      </trkpt>
      <trkpt lat="45.70779" lon="6.26876">
        <ele>1268.12</ele>
        <time>2013-02-16T08:58:02Z</time>
      </trkpt>
      <trkpt lat="45.70772" lon="6.2686">
        <ele>1269.08</ele>
        <time>2013-02-16T08:58:14Z</time>
      </trkpt>
      <trkpt lat="45.70767" lon="6.26846">
        <ele>1270.52</ele>
        <time>2013-02-16T08:58:26Z</time>
      </trkpt>
      <trkpt lat="45.70762" lon="6.26839">
        <ele>1271.48</ele>
        <time>2013-02-16T08:58:34Z</time>
      </trkpt>
      <trkpt lat="45.70754" lon="6.26824">
        <ele>1272.44</ele>
        <time>2013-02-16T08:58:48Z</time>
      </trkpt>
      <trkpt lat="45.70752" lon="6.26819">
        <ele>1272.92</ele>
        <time>2013-02-16T08:58:51Z</time>
      </trkpt>
      <trkpt lat="45.70744" lon="6.26803">
        <ele>1274.36</ele>
        <time>2013-02-16T08:59:06Z</time>
      </trkpt>
      <trkpt lat="45.70739" lon="6.26791">
        <ele>1276.29</ele>
        <time>2013-02-16T08:59:16Z</time>
      </trkpt>
      <trkpt lat="45.70736" lon="6.26782">
        <ele>1277.25</ele>
        <time>2013-02-16T08:59:23Z</time>
      </trkpt>
      <trkpt lat="45.70732" lon="6.26774">
        <ele>1278.69</ele>
        <time>2013-02-16T08:59:29Z</time>
      </trkpt>
      <trkpt lat="45.70724" lon="6.26766">
        <ele>1279.65</ele>
        <time>2013-02-16T08:59:41Z</time>
      </trkpt>
      <trkpt lat="45.70711" lon="6.26754">
        <ele>1281.57</ele>
        <time>2013-02-16T08:59:54Z</time>
      </trkpt>
      <trkpt lat="45.70703" lon="6.26748">
        <ele>1283.5</ele>
        <time>2013-02-16T09:00:03Z</time>
      </trkpt>
      <trkpt lat="45.70695" lon="6.26742">
        <ele>1284.46</ele>
        <time>2013-02-16T09:00:15Z</time>
      </trkpt>
      <trkpt lat="45.70687" lon="6.26731">
        <ele>1286.38</ele>
        <time>2013-02-16T09:00:28Z</time>
      </trkpt>
      <trkpt lat="45.70684" lon="6.26719">
        <ele>1289.27</ele>
        <time>2013-02-16T09:00:40Z</time>
      </trkpt>
      <trkpt lat="45.70676" lon="6.26704">
        <ele>1291.19</ele>
        <time>2013-02-16T09:00:52Z</time>
      </trkpt>
      <trkpt lat="45.7067" lon="6.26687">
        <ele>1292.15</ele>
        <time>2013-02-16T09:01:04Z</time>
      </trkpt>
      <trkpt lat="45.70663" lon="6.26674">
        <ele>1294.07</ele>
        <time>2013-02-16T09:01:16Z</time>
      </trkpt>
      <trkpt lat="45.70655" lon="6.26662">
        <ele>1295.99</ele>
        <time>2013-02-16T09:01:28Z</time>
      </trkpt>
      <trkpt lat="45.70654" lon="6.26661">
        <ele>1295.99</ele>
        <time>2013-02-16T09:01:29Z</time>
      </trkpt>
      <trkpt lat="45.70652" lon="6.26658">
        <ele>1296.48</ele>
        <time>2013-02-16T09:01:32Z</time>
      </trkpt>
      <trkpt lat="45.70645" lon="6.26648">
        <ele>1298.88</ele>
        <time>2013-02-16T09:01:44Z</time>
      </trkpt>
      <trkpt lat="45.70638" lon="6.2664">
        <ele>1301.28</ele>
        <time>2013-02-16T09:01:55Z</time>
      </trkpt>
      <trkpt lat="45.70629" lon="6.26631">
        <ele>1302.72</ele>
        <time>2013-02-16T09:02:06Z</time>
      </trkpt>
      <trkpt lat="45.70622" lon="6.26621">
        <ele>1304.65</ele>
        <time>2013-02-16T09:02:16Z</time>
      </trkpt>
      <trkpt lat="45.70615" lon="6.26609">
        <ele>1307.05</ele>
        <time>2013-02-16T09:02:29Z</time>
      </trkpt>
      <trkpt lat="45.7061" lon="6.26597">
        <ele>1308.97</ele>
        <time>2013-02-16T09:02:41Z</time>
      </trkpt>
      <trkpt lat="45.70606" lon="6.26586">
        <ele>1310.9</ele>
        <time>2013-02-16T09:02:50Z</time>
      </trkpt>
      <trkpt lat="45.706" lon="6.2657">
        <ele>1313.3</ele>
        <time>2013-02-16T09:03:03Z</time>
      </trkpt>
      <trkpt lat="45.70595" lon="6.2656">
        <ele>1315.22</ele>
        <time>2013-02-16T09:03:16Z</time>
      </trkpt>
      <trkpt lat="45.7059" lon="6.26548">
        <ele>1317.14</ele>
        <time>2013-02-16T09:03:27Z</time>
      </trkpt>
      <trkpt lat="45.70589" lon="6.26539">
        <ele>1319.07</ele>
        <time>2013-02-16T09:03:36Z</time>
      </trkpt>
      <trkpt lat="45.70585" lon="6.2652">
        <ele>1322.43</ele>
        <time>2013-02-16T09:03:52Z</time>
      </trkpt>
      <trkpt lat="45.70585" lon="6.26518">
        <ele>1322.91</ele>
        <time>2013-02-16T09:03:56Z</time>
      </trkpt>
      <trkpt lat="45.70581" lon="6.265">
        <ele>1326.28</ele>
        <time>2013-02-16T09:04:09Z</time>
      </trkpt>
      <trkpt lat="45.70582" lon="6.26488">
        <ele>1327.24</ele>
        <time>2013-02-16T09:04:20Z</time>
      </trkpt>
      <trkpt lat="45.70581" lon="6.26471">
        <ele>1329.16</ele>
        <time>2013-02-16T09:04:33Z</time>
      </trkpt>
      <trkpt lat="45.70578" lon="6.26454">
        <ele>1331.56</ele>
        <time>2013-02-16T09:04:46Z</time>
      </trkpt>
      <trkpt lat="45.70576" lon="6.2644">
        <ele>1333.97</ele>
        <time>2013-02-16T09:04:59Z</time>
      </trkpt>
      <trkpt lat="45.7057" lon="6.26429">
        <ele>1336.85</ele>
        <time>2013-02-16T09:05:12Z</time>
      </trkpt>
      <trkpt lat="45.70568" lon="6.26424">
        <ele>1337.81</ele>
        <time>2013-02-16T09:05:18Z</time>
      </trkpt>
      <trkpt lat="45.7056" lon="6.26412">
        <ele>1340.7</ele>
        <time>2013-02-16T09:05:32Z</time>
      </trkpt>
      <trkpt lat="45.70558" lon="6.26408">
        <ele>1342.14</ele>
        <time>2013-02-16T09:05:37Z</time>
      </trkpt>
      <trkpt lat="45.70552" lon="6.26399">
        <ele>1344.54</ele>
        <time>2013-02-16T09:05:54Z</time>
      </trkpt>
      <trkpt lat="45.70549" lon="6.26393">
        <ele>1347.91</ele>
        <time>2013-02-16T09:06:06Z</time>
      </trkpt>
      <trkpt lat="45.70544" lon="6.26381">
        <ele>1350.31</ele>
        <time>2013-02-16T09:06:22Z</time>
      </trkpt>
      <trkpt lat="45.70538" lon="6.2637">
        <ele>1353.67</ele>
        <time>2013-02-16T09:06:36Z</time>
      </trkpt>
      <trkpt lat="45.70533" lon="6.26356">
        <ele>1356.08</ele>
        <time>2013-02-16T09:06:53Z</time>
      </trkpt>
      <trkpt lat="45.70529" lon="6.26348">
        <ele>1358</ele>
        <time>2013-02-16T09:07:05Z</time>
      </trkpt>
      <trkpt lat="45.70527" lon="6.26345">
        <ele>1359.44</ele>
        <time>2013-02-16T09:07:08Z</time>
      </trkpt>
      <trkpt lat="45.70522" lon="6.26332">
        <ele>1361.36</ele>
        <time>2013-02-16T09:07:23Z</time>
      </trkpt>
      <trkpt lat="45.70521" lon="6.26329">
        <ele>1361.36</ele>
        <time>2013-02-16T09:07:25Z</time>
      </trkpt>
      <trkpt lat="45.70515" lon="6.26316">
        <ele>1363.29</ele>
        <time>2013-02-16T09:07:36Z</time>
      </trkpt>
      <trkpt lat="45.70514" lon="6.26316">
        <ele>1363.29</ele>
        <time>2013-02-16T09:07:37Z</time>
      </trkpt>
      <trkpt lat="45.70508" lon="6.26304">
        <ele>1365.21</ele>
        <time>2013-02-16T09:07:49Z</time>
      </trkpt>
      <trkpt lat="45.70501" lon="6.26295">
        <ele>1367.61</ele>
        <time>2013-02-16T09:08:01Z</time>
      </trkpt>
      <trkpt lat="45.70493" lon="6.26286">
        <ele>1370.02</ele>
        <time>2013-02-16T09:08:12Z</time>
      </trkpt>
      <trkpt lat="45.70489" lon="6.26281">
        <ele>1371.94</ele>
        <time>2013-02-16T09:08:23Z</time>
      </trkpt>
      <trkpt lat="45.70485" lon="6.26269">
        <ele>1372.9</ele>
        <time>2013-02-16T09:08:31Z</time>
      </trkpt>
      <trkpt lat="45.70477" lon="6.26255">
        <ele>1374.82</ele>
        <time>2013-02-16T09:08:42Z</time>
      </trkpt>
      <trkpt lat="45.70463" lon="6.26249">
        <ele>1376.26</ele>
        <time>2013-02-16T09:08:53Z</time>
      </trkpt>
      <trkpt lat="45.70458" lon="6.26246">
        <ele>1377.71</ele>
        <time>2013-02-16T09:08:58Z</time>
      </trkpt>
      <trkpt lat="45.7045" lon="6.26239">
        <ele>1379.63</ele>
        <time>2013-02-16T09:09:09Z</time>
      </trkpt>
      <trkpt lat="45.70449" lon="6.26238">
        <ele>1379.15</ele>
        <time>2013-02-16T09:09:10Z</time>
      </trkpt>
      <trkpt lat="45.7044" lon="6.26232">
        <ele>1382.03</ele>
        <time>2013-02-16T09:09:23Z</time>
      </trkpt>
      <trkpt lat="45.70435" lon="6.26232">
        <ele>1384.44</ele>
        <time>2013-02-16T09:09:35Z</time>
      </trkpt>
      <trkpt lat="45.7043" lon="6.26232">
        <ele>1385.4</ele>
        <time>2013-02-16T09:09:41Z</time>
      </trkpt>
      <trkpt lat="45.70419" lon="6.26231">
        <ele>1387.32</ele>
        <time>2013-02-16T09:09:51Z</time>
      </trkpt>
      <trkpt lat="45.70407" lon="6.26228">
        <ele>1389.24</ele>
        <time>2013-02-16T09:10:03Z</time>
      </trkpt>
      <trkpt lat="45.70403" lon="6.26227">
        <ele>1389.72</ele>
        <time>2013-02-16T09:10:16Z</time>
      </trkpt>
      <trkpt lat="45.70404" lon="6.26228">
        <ele>1390.2</ele>
        <time>2013-02-16T09:10:29Z</time>
      </trkpt>
      <trkpt lat="45.70403" lon="6.26228">
        <ele>1391.17</ele>
        <time>2013-02-16T09:10:34Z</time>
      </trkpt>
      <trkpt lat="45.70404" lon="6.26227">
        <ele>1390.2</ele>
        <time>2013-02-16T09:10:53Z</time>
      </trkpt>
      <trkpt lat="45.70401" lon="6.26222">
        <ele>1390.68</ele>
        <time>2013-02-16T09:11:15Z</time>
      </trkpt>
      <trkpt lat="45.704" lon="6.26215">
        <ele>1390.68</ele>
        <time>2013-02-16T09:11:29Z</time>
      </trkpt>
      <trkpt lat="45.70397" lon="6.26216">
        <ele>1391.17</ele>
        <time>2013-02-16T09:11:45Z</time>
      </trkpt>
      <trkpt lat="45.70399" lon="6.26219">
        <ele>1391.65</ele>
        <time>2013-02-16T09:12:12Z</time>
      </trkpt>
      <trkpt lat="45.70398" lon="6.26217">
        <ele>1391.65</ele>
        <time>2013-02-16T09:12:47Z</time>
      </trkpt>
      <trkpt lat="45.70396" lon="6.26212">
        <ele>1392.13</ele>
        <time>2013-02-16T09:13:13Z</time>
      </trkpt>
      <trkpt lat="45.70407" lon="6.26212">
        <ele>1391.65</ele>
        <time>2013-02-16T09:13:31Z</time>
      </trkpt>
      <trkpt lat="45.70416" lon="6.26225">
        <ele>1391.65</ele>
        <time>2013-02-16T09:14:07Z</time>
      </trkpt>
      <trkpt lat="45.70415" lon="6.26224">
        <ele>1391.17</ele>
        <time>2013-02-16T09:14:36Z</time>
      </trkpt>
      <trkpt lat="45.70417" lon="6.26228">
        <ele>1391.65</ele>
        <time>2013-02-16T09:15:01Z</time>
      </trkpt>
      <trkpt lat="45.70416" lon="6.26229">
        <ele>1391.17</ele>
        <time>2013-02-16T09:15:26Z</time>
      </trkpt>
      <trkpt lat="45.70414" lon="6.26221">
        <ele>1391.17</ele>
        <time>2013-02-16T09:15:59Z</time>
      </trkpt>
      <trkpt lat="45.70419" lon="6.26215">
        <ele>1390.68</ele>
        <time>2013-02-16T09:16:14Z</time>
      </trkpt>
      <trkpt lat="45.70428" lon="6.26209">
        <ele>1393.09</ele>
        <time>2013-02-16T09:16:28Z</time>
      </trkpt>
      <trkpt lat="45.70437" lon="6.262">
        <ele>1395.97</ele>
        <time>2013-02-16T09:16:42Z</time>
      </trkpt>
      <trkpt lat="45.70446" lon="6.26195">
        <ele>1398.37</ele>
        <time>2013-02-16T09:16:58Z</time>
      </trkpt>
      <trkpt lat="45.70454" lon="6.26196">
        <ele>1401.74</ele>
        <time>2013-02-16T09:17:11Z</time>
      </trkpt>
      <trkpt lat="45.70465" lon="6.26188">
        <ele>1404.62</ele>
        <time>2013-02-16T09:17:24Z</time>
      </trkpt>
      <trkpt lat="45.70463" lon="6.26176">
        <ele>1406.55</ele>
        <time>2013-02-16T09:17:36Z</time>
      </trkpt>
      <trkpt lat="45.70453" lon="6.26168">
        <ele>1409.43</ele>
        <time>2013-02-16T09:17:48Z</time>
      </trkpt>
      <trkpt lat="45.70444" lon="6.2616">
        <ele>1411.35</ele>
        <time>2013-02-16T09:18:00Z</time>
      </trkpt>
      <trkpt lat="45.70441" lon="6.26159">
        <ele>1411.83</ele>
        <time>2013-02-16T09:18:03Z</time>
      </trkpt>
      <trkpt lat="45.70438" lon="6.26157">
        <ele>1412.31</ele>
        <time>2013-02-16T09:18:06Z</time>
      </trkpt>
      <trkpt lat="45.70428" lon="6.26155">
        <ele>1414.72</ele>
        <time>2013-02-16T09:18:19Z</time>
      </trkpt>
      <trkpt lat="45.70424" lon="6.26154">
        <ele>1415.2</ele>
        <time>2013-02-16T09:18:23Z</time>
      </trkpt>
      <trkpt lat="45.70415" lon="6.26151">
        <ele>1417.6</ele>
        <time>2013-02-16T09:18:34Z</time>
      </trkpt>
      <trkpt lat="45.70405" lon="6.26146">
        <ele>1419.52</ele>
        <time>2013-02-16T09:18:46Z</time>
      </trkpt>
      <trkpt lat="45.70397" lon="6.26143">
        <ele>1420.49</ele>
        <time>2013-02-16T09:18:56Z</time>
      </trkpt>
      <trkpt lat="45.70386" lon="6.2614">
        <ele>1423.37</ele>
        <time>2013-02-16T09:19:09Z</time>
      </trkpt>
      <trkpt lat="45.70378" lon="6.26137">
        <ele>1426.73</ele>
        <time>2013-02-16T09:19:20Z</time>
      </trkpt>
      <trkpt lat="45.7037" lon="6.26131">
        <ele>1427.7</ele>
        <time>2013-02-16T09:19:32Z</time>
      </trkpt>
      <trkpt lat="45.70362" lon="6.26122">
        <ele>1429.62</ele>
        <time>2013-02-16T09:19:45Z</time>
      </trkpt>
      <trkpt lat="45.70361" lon="6.2612">
        <ele>1430.58</ele>
        <time>2013-02-16T09:19:47Z</time>
      </trkpt>
      <trkpt lat="45.70352" lon="6.26109">
        <ele>1432.02</ele>
        <time>2013-02-16T09:19:59Z</time>
      </trkpt>
      <trkpt lat="45.7035" lon="6.26107">
        <ele>1432.98</ele>
        <time>2013-02-16T09:20:03Z</time>
      </trkpt>
      <trkpt lat="45.70341" lon="6.261">
        <ele>1435.39</ele>
        <time>2013-02-16T09:20:15Z</time>
      </trkpt>
      <trkpt lat="45.70339" lon="6.26097">
        <ele>1435.87</ele>
        <time>2013-02-16T09:20:19Z</time>
      </trkpt>
      <trkpt lat="45.70333" lon="6.26092">
        <ele>1437.79</ele>
        <time>2013-02-16T09:20:29Z</time>
      </trkpt>
      <trkpt lat="45.70323" lon="6.26086">
        <ele>1439.71</ele>
        <time>2013-02-16T09:20:41Z</time>
      </trkpt>
      <trkpt lat="45.70315" lon="6.2608">
        <ele>1441.63</ele>
        <time>2013-02-16T09:20:53Z</time>
      </trkpt>
      <trkpt lat="45.70314" lon="6.26079">
        <ele>1442.11</ele>
        <time>2013-02-16T09:20:55Z</time>
      </trkpt>
      <trkpt lat="45.70311" lon="6.26074">
        <ele>1443.08</ele>
        <time>2013-02-16T09:21:01Z</time>
      </trkpt>
      <trkpt lat="45.70309" lon="6.26072">
        <ele>1443.56</ele>
        <time>2013-02-16T09:21:04Z</time>
      </trkpt>
      <trkpt lat="45.70306" lon="6.2607">
        <ele>1444.52</ele>
        <time>2013-02-16T09:21:07Z</time>
      </trkpt>
      <trkpt lat="45.70299" lon="6.26064">
        <ele>1446.44</ele>
        <time>2013-02-16T09:21:18Z</time>
      </trkpt>
      <trkpt lat="45.70291" lon="6.26056">
        <ele>1447.88</ele>
        <time>2013-02-16T09:21:30Z</time>
      </trkpt>
      <trkpt lat="45.70285" lon="6.26047">
        <ele>1449.32</ele>
        <time>2013-02-16T09:21:38Z</time>
      </trkpt>
      <trkpt lat="45.7028" lon="6.26043">
        <ele>1449.81</ele>
        <time>2013-02-16T09:21:45Z</time>
      </trkpt>
      <trkpt lat="45.70269" lon="6.26039">
        <ele>1452.21</ele>
        <time>2013-02-16T09:21:58Z</time>
      </trkpt>
      <trkpt lat="45.70262" lon="6.26042">
        <ele>1453.17</ele>
        <time>2013-02-16T09:22:05Z</time>
      </trkpt>
      <trkpt lat="45.7026" lon="6.2604">
        <ele>1453.65</ele>
        <time>2013-02-16T09:22:08Z</time>
      </trkpt>
      <trkpt lat="45.70255" lon="6.26034">
        <ele>1455.09</ele>
        <time>2013-02-16T09:22:15Z</time>
      </trkpt>
      <trkpt lat="45.70244" lon="6.26029">
        <ele>1456.53</ele>
        <time>2013-02-16T09:22:29Z</time>
      </trkpt>
      <trkpt lat="45.70241" lon="6.26027">
        <ele>1457.5</ele>
        <time>2013-02-16T09:22:34Z</time>
      </trkpt>
      <trkpt lat="45.70233" lon="6.26023">
        <ele>1459.42</ele>
        <time>2013-02-16T09:22:45Z</time>
      </trkpt>
      <trkpt lat="45.70223" lon="6.26019">
        <ele>1461.34</ele>
        <time>2013-02-16T09:22:58Z</time>
      </trkpt>
      <trkpt lat="45.70215" lon="6.26011">
        <ele>1464.23</ele>
        <time>2013-02-16T09:23:11Z</time>
      </trkpt>
      <trkpt lat="45.70212" lon="6.26009">
        <ele>1465.19</ele>
        <time>2013-02-16T09:23:16Z</time>
      </trkpt>
      <trkpt lat="45.70208" lon="6.26">
        <ele>1467.59</ele>
        <time>2013-02-16T09:23:26Z</time>
      </trkpt>
      <trkpt lat="45.70205" lon="6.25996">
        <ele>1468.55</ele>
        <time>2013-02-16T09:23:31Z</time>
      </trkpt>
      <trkpt lat="45.70201" lon="6.2599">
        <ele>1470.47</ele>
        <time>2013-02-16T09:23:38Z</time>
      </trkpt>
      <trkpt lat="45.702" lon="6.25989">
        <ele>1469.99</ele>
        <time>2013-02-16T09:23:40Z</time>
      </trkpt>
      <trkpt lat="45.70196" lon="6.25979">
        <ele>1472.4</ele>
        <time>2013-02-16T09:23:53Z</time>
      </trkpt>
      <trkpt lat="45.702" lon="6.25972">
        <ele>1473.84</ele>
        <time>2013-02-16T09:24:02Z</time>
      </trkpt>
      <trkpt lat="45.70203" lon="6.2597">
        <ele>1475.76</ele>
        <time>2013-02-16T09:24:07Z</time>
      </trkpt>
      <trkpt lat="45.70211" lon="6.25967">
        <ele>1477.68</ele>
        <time>2013-02-16T09:24:18Z</time>
      </trkpt>
      <trkpt lat="45.7022" lon="6.25968">
        <ele>1479.13</ele>
        <time>2013-02-16T09:24:29Z</time>
      </trkpt>
      <trkpt lat="45.70223" lon="6.25967">
        <ele>1480.09</ele>
        <time>2013-02-16T09:24:34Z</time>
      </trkpt>
      <trkpt lat="45.70226" lon="6.25954">
        <ele>1482.97</ele>
        <time>2013-02-16T09:24:47Z</time>
      </trkpt>
      <trkpt lat="45.7022" lon="6.25942">
        <ele>1484.41</ele>
        <time>2013-02-16T09:24:58Z</time>
      </trkpt>
      <trkpt lat="45.70214" lon="6.25935">
        <ele>1485.37</ele>
        <time>2013-02-16T09:25:04Z</time>
      </trkpt>
      <trkpt lat="45.70201" lon="6.25932">
        <ele>1487.3</ele>
        <time>2013-02-16T09:25:17Z</time>
      </trkpt>
      <trkpt lat="45.70191" lon="6.25928">
        <ele>1489.7</ele>
        <time>2013-02-16T09:25:28Z</time>
      </trkpt>
      <trkpt lat="45.7019" lon="6.25928">
        <ele>1489.7</ele>
        <time>2013-02-16T09:25:31Z</time>
      </trkpt>
      <trkpt lat="45.70182" lon="6.25927">
        <ele>1491.14</ele>
        <time>2013-02-16T09:25:41Z</time>
      </trkpt>
      <trkpt lat="45.70176" lon="6.25923">
        <ele>1493.55</ele>
        <time>2013-02-16T09:25:50Z</time>
      </trkpt>
      <trkpt lat="45.70165" lon="6.25918">
        <ele>1495.47</ele>
        <time>2013-02-16T09:26:02Z</time>
      </trkpt>
      <trkpt lat="45.70156" lon="6.25912">
        <ele>1497.87</ele>
        <time>2013-02-16T09:26:15Z</time>
      </trkpt>
      <trkpt lat="45.70148" lon="6.25911">
        <ele>1500.27</ele>
        <time>2013-02-16T09:26:26Z</time>
      </trkpt>
      <trkpt lat="45.70144" lon="6.25911">
        <ele>1502.2</ele>
        <time>2013-02-16T09:26:30Z</time>
      </trkpt>
      <trkpt lat="45.70134" lon="6.25906">
        <ele>1504.12</ele>
        <time>2013-02-16T09:26:42Z</time>
      </trkpt>
      <trkpt lat="45.70127" lon="6.25902">
        <ele>1506.04</ele>
        <time>2013-02-16T09:26:54Z</time>
      </trkpt>
      <trkpt lat="45.70121" lon="6.25894">
        <ele>1507.48</ele>
        <time>2013-02-16T09:27:06Z</time>
      </trkpt>
      <trkpt lat="45.70116" lon="6.25886">
        <ele>1509.41</ele>
        <time>2013-02-16T09:27:16Z</time>
      </trkpt>
      <trkpt lat="45.70115" lon="6.25885">
        <ele>1509.41</ele>
        <time>2013-02-16T09:27:18Z</time>
      </trkpt>
      <trkpt lat="45.70114" lon="6.25881">
        <ele>1510.37</ele>
        <time>2013-02-16T09:27:21Z</time>
      </trkpt>
      <trkpt lat="45.70106" lon="6.25872">
        <ele>1511.81</ele>
        <time>2013-02-16T09:27:33Z</time>
      </trkpt>
      <trkpt lat="45.70101" lon="6.25864">
        <ele>1513.73</ele>
        <time>2013-02-16T09:27:42Z</time>
      </trkpt>
      <trkpt lat="45.70092" lon="6.25852">
        <ele>1515.66</ele>
        <time>2013-02-16T09:27:54Z</time>
      </trkpt>
      <trkpt lat="45.70091" lon="6.2585">
        <ele>1515.66</ele>
        <time>2013-02-16T09:27:56Z</time>
      </trkpt>
      <trkpt lat="45.70088" lon="6.25847">
        <ele>1516.62</ele>
        <time>2013-02-16T09:28:00Z</time>
      </trkpt>
      <trkpt lat="45.70083" lon="6.25845">
        <ele>1516.62</ele>
        <time>2013-02-16T09:28:06Z</time>
      </trkpt>
      <trkpt lat="45.70081" lon="6.2584">
        <ele>1518.06</ele>
        <time>2013-02-16T09:28:11Z</time>
      </trkpt>
      <trkpt lat="45.70078" lon="6.2583">
        <ele>1520.94</ele>
        <time>2013-02-16T09:28:22Z</time>
      </trkpt>
      <trkpt lat="45.70075" lon="6.25824">
        <ele>1520.94</ele>
        <time>2013-02-16T09:28:27Z</time>
      </trkpt>
      <trkpt lat="45.70069" lon="6.25811">
        <ele>1523.83</ele>
        <time>2013-02-16T09:28:38Z</time>
      </trkpt>
      <trkpt lat="45.70061" lon="6.25802">
        <ele>1526.71</ele>
        <time>2013-02-16T09:28:50Z</time>
      </trkpt>
      <trkpt lat="45.7006" lon="6.25801">
        <ele>1526.71</ele>
        <time>2013-02-16T09:28:52Z</time>
      </trkpt>
      <trkpt lat="45.70059" lon="6.25799">
        <ele>1526.71</ele>
        <time>2013-02-16T09:28:55Z</time>
      </trkpt>
      <trkpt lat="45.70054" lon="6.25788">
        <ele>1528.15</ele>
        <time>2013-02-16T09:29:07Z</time>
      </trkpt>
      <trkpt lat="45.70049" lon="6.2578">
        <ele>1530.56</ele>
        <time>2013-02-16T09:29:18Z</time>
      </trkpt>
      <trkpt lat="45.70047" lon="6.25778">
        <ele>1531.52</ele>
        <time>2013-02-16T09:29:20Z</time>
      </trkpt>
      <trkpt lat="45.70041" lon="6.25765">
        <ele>1533.44</ele>
        <time>2013-02-16T09:29:35Z</time>
      </trkpt>
      <trkpt lat="45.70038" lon="6.25761">
        <ele>1534.88</ele>
        <time>2013-02-16T09:29:41Z</time>
      </trkpt>
      <trkpt lat="45.7003" lon="6.25752">
        <ele>1537.29</ele>
        <time>2013-02-16T09:29:55Z</time>
      </trkpt>
      <trkpt lat="45.70029" lon="6.2575">
        <ele>1538.25</ele>
        <time>2013-02-16T09:29:58Z</time>
      </trkpt>
      <trkpt lat="45.70025" lon="6.25741">
        <ele>1540.17</ele>
        <time>2013-02-16T09:30:09Z</time>
      </trkpt>
      <trkpt lat="45.7002" lon="6.2573">
        <ele>1543.05</ele>
        <time>2013-02-16T09:30:23Z</time>
      </trkpt>
      <trkpt lat="45.70015" lon="6.25719">
        <ele>1544.98</ele>
        <time>2013-02-16T09:30:36Z</time>
      </trkpt>
      <trkpt lat="45.70015" lon="6.25719">
        <ele>1545.94</ele>
        <time>2013-02-16T09:30:37Z</time>
      </trkpt>
      <trkpt lat="45.70006" lon="6.2571">
        <ele>1547.38</ele>
        <time>2013-02-16T09:30:50Z</time>
      </trkpt>
      <trkpt lat="45.69997" lon="6.25703">
        <ele>1550.74</ele>
        <time>2013-02-16T09:31:03Z</time>
      </trkpt>
      <trkpt lat="45.69989" lon="6.25697">
        <ele>1552.67</ele>
        <time>2013-02-16T09:31:14Z</time>
      </trkpt>
      <trkpt lat="45.69981" lon="6.25694">
        <ele>1555.55</ele>
        <time>2013-02-16T09:31:26Z</time>
      </trkpt>
      <trkpt lat="45.69971" lon="6.25685">
        <ele>1556.99</ele>
        <time>2013-02-16T09:31:40Z</time>
      </trkpt>
      <trkpt lat="45.69965" lon="6.25685">
        <ele>1559.4</ele>
        <time>2013-02-16T09:31:48Z</time>
      </trkpt>
      <trkpt lat="45.69956" lon="6.25679">
        <ele>1561.32</ele>
        <time>2013-02-16T09:32:01Z</time>
      </trkpt>
      <trkpt lat="45.6995" lon="6.25674">
        <ele>1563.72</ele>
        <time>2013-02-16T09:32:14Z</time>
      </trkpt>
      <trkpt lat="45.69941" lon="6.25669">
        <ele>1565.64</ele>
        <time>2013-02-16T09:32:28Z</time>
      </trkpt>
      <trkpt lat="45.69932" lon="6.25663">
        <ele>1569.01</ele>
        <time>2013-02-16T09:32:42Z</time>
      </trkpt>
      <trkpt lat="45.69924" lon="6.25658">
        <ele>1571.89</ele>
        <time>2013-02-16T09:32:55Z</time>
      </trkpt>
      <trkpt lat="45.69921" lon="6.25656">
        <ele>1571.89</ele>
        <time>2013-02-16T09:32:59Z</time>
      </trkpt>
      <trkpt lat="45.69913" lon="6.25645">
        <ele>1574.78</ele>
        <time>2013-02-16T09:33:14Z</time>
      </trkpt>
      <trkpt lat="45.69912" lon="6.25644">
        <ele>1575.26</ele>
        <time>2013-02-16T09:33:15Z</time>
      </trkpt>
      <trkpt lat="45.69902" lon="6.25634">
        <ele>1577.66</ele>
        <time>2013-02-16T09:33:29Z</time>
      </trkpt>
      <trkpt lat="45.69894" lon="6.25624">
        <ele>1579.58</ele>
        <time>2013-02-16T09:33:42Z</time>
      </trkpt>
      <trkpt lat="45.69887" lon="6.25618">
        <ele>1581.03</ele>
        <time>2013-02-16T09:33:52Z</time>
      </trkpt>
      <trkpt lat="45.6988" lon="6.25613">
        <ele>1583.43</ele>
        <time>2013-02-16T09:34:04Z</time>
      </trkpt>
      <trkpt lat="45.69874" lon="6.25607">
        <ele>1584.39</ele>
        <time>2013-02-16T09:34:14Z</time>
      </trkpt>
      <trkpt lat="45.69867" lon="6.25596">
        <ele>1586.79</ele>
        <time>2013-02-16T09:34:27Z</time>
      </trkpt>
      <trkpt lat="45.69858" lon="6.25588">
        <ele>1590.16</ele>
        <time>2013-02-16T09:34:40Z</time>
      </trkpt>
      <trkpt lat="45.69849" lon="6.2558">
        <ele>1591.6</ele>
        <time>2013-02-16T09:34:53Z</time>
      </trkpt>
      <trkpt lat="45.69842" lon="6.2557">
        <ele>1594</ele>
        <time>2013-02-16T09:35:06Z</time>
      </trkpt>
      <trkpt lat="45.69841" lon="6.25569">
        <ele>1594.48</ele>
        <time>2013-02-16T09:35:07Z</time>
      </trkpt>
      <trkpt lat="45.69839" lon="6.25567">
        <ele>1594</ele>
        <time>2013-02-16T09:35:09Z</time>
      </trkpt>
      <trkpt lat="45.69836" lon="6.25562">
        <ele>1594.48</ele>
        <time>2013-02-16T09:35:14Z</time>
      </trkpt>
      <trkpt lat="45.69828" lon="6.25552">
        <ele>1596.41</ele>
        <time>2013-02-16T09:35:25Z</time>
      </trkpt>
      <trkpt lat="45.69817" lon="6.25544">
        <ele>1598.81</ele>
        <time>2013-02-16T09:35:38Z</time>
      </trkpt>
      <trkpt lat="45.69817" lon="6.25543">
        <ele>1599.29</ele>
        <time>2013-02-16T09:35:39Z</time>
      </trkpt>
      <trkpt lat="45.69816" lon="6.2554">
        <ele>1599.29</ele>
        <time>2013-02-16T09:35:41Z</time>
      </trkpt>
      <trkpt lat="45.69803" lon="6.25531">
        <ele>1600.73</ele>
        <time>2013-02-16T09:35:54Z</time>
      </trkpt>
      <trkpt lat="45.69801" lon="6.2553">
        <ele>1601.21</ele>
        <time>2013-02-16T09:35:56Z</time>
      </trkpt>
      <trkpt lat="45.69798" lon="6.25528">
        <ele>1601.69</ele>
        <time>2013-02-16T09:36:01Z</time>
      </trkpt>
      <trkpt lat="45.69793" lon="6.25518">
        <ele>1604.1</ele>
        <time>2013-02-16T09:36:11Z</time>
      </trkpt>
      <trkpt lat="45.6979" lon="6.25513">
        <ele>1604.58</ele>
        <time>2013-02-16T09:36:15Z</time>
      </trkpt>
      <trkpt lat="45.69789" lon="6.2551">
        <ele>1604.58</ele>
        <time>2013-02-16T09:36:17Z</time>
      </trkpt>
      <trkpt lat="45.6978" lon="6.25498">
        <ele>1605.06</ele>
        <time>2013-02-16T09:36:27Z</time>
      </trkpt>
      <trkpt lat="45.69768" lon="6.25506">
        <ele>1605.06</ele>
        <time>2013-02-16T09:36:39Z</time>
      </trkpt>
      <trkpt lat="45.69764" lon="6.25506">
        <ele>1606.02</ele>
        <time>2013-02-16T09:36:43Z</time>
      </trkpt>
      <trkpt lat="45.69762" lon="6.25507">
        <ele>1605.54</ele>
        <time>2013-02-16T09:36:45Z</time>
      </trkpt>
      <trkpt lat="45.69751" lon="6.25512">
        <ele>1608.42</ele>
        <time>2013-02-16T09:36:58Z</time>
      </trkpt>
      <trkpt lat="45.69742" lon="6.25513">
        <ele>1610.35</ele>
        <time>2013-02-16T09:37:10Z</time>
      </trkpt>
      <trkpt lat="45.69734" lon="6.25508">
        <ele>1612.75</ele>
        <time>2013-02-16T09:37:20Z</time>
      </trkpt>
      <trkpt lat="45.69728" lon="6.25505">
        <ele>1614.67</ele>
        <time>2013-02-16T09:37:31Z</time>
      </trkpt>
      <trkpt lat="45.69722" lon="6.25499">
        <ele>1616.59</ele>
        <time>2013-02-16T09:37:45Z</time>
      </trkpt>
      <trkpt lat="45.69719" lon="6.25502">
        <ele>1617.07</ele>
        <time>2013-02-16T09:38:01Z</time>
      </trkpt>
      <trkpt lat="45.6972" lon="6.25508">
        <ele>1616.59</ele>
        <time>2013-02-16T09:38:28Z</time>
      </trkpt>
      <trkpt lat="45.69721" lon="6.25512">
        <ele>1617.07</ele>
        <time>2013-02-16T09:38:49Z</time>
      </trkpt>
      <trkpt lat="45.69721" lon="6.2551">
        <ele>1616.59</ele>
        <time>2013-02-16T09:39:20Z</time>
      </trkpt>
      <trkpt lat="45.69722" lon="6.25508">
        <ele>1616.11</ele>
        <time>2013-02-16T09:39:52Z</time>
      </trkpt>
      <trkpt lat="45.6972" lon="6.2551">
        <ele>1616.11</ele>
        <time>2013-02-16T09:40:17Z</time>
      </trkpt>
      <trkpt lat="45.6972" lon="6.25511">
        <ele>1616.11</ele>
        <time>2013-02-16T09:40:59Z</time>
      </trkpt>
      <trkpt lat="45.69722" lon="6.25511">
        <ele>1616.11</ele>
        <time>2013-02-16T09:41:23Z</time>
      </trkpt>
      <trkpt lat="45.69721" lon="6.2551">
        <ele>1614.67</ele>
        <time>2013-02-16T09:41:49Z</time>
      </trkpt>
      <trkpt lat="45.69718" lon="6.25516">
        <ele>1615.15</ele>
        <time>2013-02-16T09:42:12Z</time>
      </trkpt>
      <trkpt lat="45.69721" lon="6.2551">
        <ele>1614.19</ele>
        <time>2013-02-16T09:42:38Z</time>
      </trkpt>
      <trkpt lat="45.69725" lon="6.2551">
        <ele>1614.67</ele>
        <time>2013-02-16T09:43:09Z</time>
      </trkpt>
      <trkpt lat="45.69723" lon="6.25506">
        <ele>1614.67</ele>
        <time>2013-02-16T09:43:34Z</time>
      </trkpt>
      <trkpt lat="45.69724" lon="6.25503">
        <ele>1614.19</ele>
        <time>2013-02-16T09:44:03Z</time>
      </trkpt>
      <trkpt lat="45.69722" lon="6.25507">
        <ele>1614.67</ele>
        <time>2013-02-16T09:44:30Z</time>
      </trkpt>
      <trkpt lat="45.69724" lon="6.25505">
        <ele>1614.67</ele>
        <time>2013-02-16T09:44:59Z</time>
      </trkpt>
      <trkpt lat="45.69722" lon="6.25507">
        <ele>1614.19</ele>
        <time>2013-02-16T09:45:22Z</time>
      </trkpt>
      <trkpt lat="45.6972" lon="6.25512">
        <ele>1613.71</ele>
        <time>2013-02-16T09:45:55Z</time>
      </trkpt>
      <trkpt lat="45.69724" lon="6.25508">
        <ele>1613.71</ele>
        <time>2013-02-16T09:46:21Z</time>
      </trkpt>
      <trkpt lat="45.6972" lon="6.2551">
        <ele>1613.71</ele>
        <time>2013-02-16T09:46:43Z</time>
      </trkpt>
      <trkpt lat="45.69718" lon="6.25512">
        <ele>1613.71</ele>
        <time>2013-02-16T09:47:15Z</time>
      </trkpt>
      <trkpt lat="45.69721" lon="6.25505">
        <ele>1614.19</ele>
        <time>2013-02-16T09:47:40Z</time>
      </trkpt>
      <trkpt lat="45.69721" lon="6.25505">
        <ele>1613.23</ele>
        <time>2013-02-16T09:47:59Z</time>
      </trkpt>
      <trkpt lat="45.69718" lon="6.25509">
        <ele>1613.23</ele>
        <time>2013-02-16T09:48:31Z</time>
      </trkpt>
      <trkpt lat="45.69722" lon="6.25509">
        <ele>1612.27</ele>
        <time>2013-02-16T09:49:00Z</time>
      </trkpt>
      <trkpt lat="45.69723" lon="6.2551">
        <ele>1615.63</ele>
        <time>2013-02-16T09:49:19Z</time>
      </trkpt>
      <trkpt lat="45.69723" lon="6.2551">
        <ele>1612.75</ele>
        <time>2013-02-16T09:49:23Z</time>
      </trkpt>
      <trkpt lat="45.69723" lon="6.25509">
        <ele>1609.86</ele>
        <time>2013-02-16T09:49:41Z</time>
      </trkpt>
      <trkpt lat="45.69723" lon="6.25509">
        <ele>1616.59</ele>
        <time>2013-02-16T09:49:42Z</time>
      </trkpt>
      <trkpt lat="45.69723" lon="6.25509">
        <ele>1613.23</ele>
        <time>2013-02-16T09:49:43Z</time>
      </trkpt>
      <trkpt lat="45.69721" lon="6.25507">
        <ele>1613.23</ele>
        <time>2013-02-16T09:50:00Z</time>
      </trkpt>
      <trkpt lat="45.69719" lon="6.25512">
        <ele>1613.23</ele>
        <time>2013-02-16T09:50:17Z</time>
      </trkpt>
      <trkpt lat="45.6972" lon="6.25511">
        <ele>1613.23</ele>
        <time>2013-02-16T09:50:48Z</time>
      </trkpt>
      <trkpt lat="45.69721" lon="6.25508">
        <ele>1613.23</ele>
        <time>2013-02-16T09:51:12Z</time>
      </trkpt>
      <trkpt lat="45.6971" lon="6.25511">
        <ele>1613.71</ele>
        <time>2013-02-16T09:51:24Z</time>
      </trkpt>
      <trkpt lat="45.69699" lon="6.2551">
        <ele>1613.71</ele>
        <time>2013-02-16T09:51:37Z</time>
      </trkpt>
      <trkpt lat="45.69689" lon="6.25507">
        <ele>1615.15</ele>
        <time>2013-02-16T09:51:49Z</time>
      </trkpt>
      <trkpt lat="45.69677" lon="6.25501">
        <ele>1617.56</ele>
        <time>2013-02-16T09:52:03Z</time>
      </trkpt>
      <trkpt lat="45.69666" lon="6.25498">
        <ele>1619.48</ele>
        <time>2013-02-16T09:52:16Z</time>
      </trkpt>
      <trkpt lat="45.69656" lon="6.25498">
        <ele>1622.36</ele>
        <time>2013-02-16T09:52:28Z</time>
      </trkpt>
      <trkpt lat="45.69651" lon="6.255">
        <ele>1623.32</ele>
        <time>2013-02-16T09:52:35Z</time>
      </trkpt>
      <trkpt lat="45.69646" lon="6.25514">
        <ele>1623.8</ele>
        <time>2013-02-16T09:52:50Z</time>
      </trkpt>
      <trkpt lat="45.69645" lon="6.25516">
        <ele>1623.32</ele>
        <time>2013-02-16T09:53:02Z</time>
      </trkpt>
      <trkpt lat="45.69636" lon="6.25516">
        <ele>1627.17</ele>
        <time>2013-02-16T09:53:16Z</time>
      </trkpt>
      <trkpt lat="45.69629" lon="6.25514">
        <ele>1628.61</ele>
        <time>2013-02-16T09:53:26Z</time>
      </trkpt>
      <trkpt lat="45.69618" lon="6.25521">
        <ele>1631.98</ele>
        <time>2013-02-16T09:53:40Z</time>
      </trkpt>
      <trkpt lat="45.69617" lon="6.25522">
        <ele>1631.01</ele>
        <time>2013-02-16T09:53:41Z</time>
      </trkpt>
      <trkpt lat="45.69606" lon="6.25526">
        <ele>1635.82</ele>
        <time>2013-02-16T09:53:55Z</time>
      </trkpt>
      <trkpt lat="45.69591" lon="6.25534">
        <ele>1637.26</ele>
        <time>2013-02-16T09:54:09Z</time>
      </trkpt>
      <trkpt lat="45.69583" lon="6.2554">
        <ele>1637.74</ele>
        <time>2013-02-16T09:54:18Z</time>
      </trkpt>
      <trkpt lat="45.69576" lon="6.25553">
        <ele>1641.59</ele>
        <time>2013-02-16T09:54:31Z</time>
      </trkpt>
      <trkpt lat="45.69568" lon="6.2556">
        <ele>1642.55</ele>
        <time>2013-02-16T09:54:42Z</time>
      </trkpt>
      <trkpt lat="45.69562" lon="6.25564">
        <ele>1645.91</ele>
        <time>2013-02-16T09:54:52Z</time>
      </trkpt>
      <trkpt lat="45.69557" lon="6.25572">
        <ele>1646.4</ele>
        <time>2013-02-16T09:55:06Z</time>
      </trkpt>
      <trkpt lat="45.69556" lon="6.25574">
        <ele>1650.24</ele>
        <time>2013-02-16T09:55:09Z</time>
      </trkpt>
      <trkpt lat="45.69556" lon="6.25575">
        <ele>1646.4</ele>
        <time>2013-02-16T09:55:10Z</time>
      </trkpt>
      <trkpt lat="45.69556" lon="6.25576">
        <ele>1650.72</ele>
        <time>2013-02-16T09:55:11Z</time>
      </trkpt>
      <trkpt lat="45.69555" lon="6.25577">
        <ele>1646.88</ele>
        <time>2013-02-16T09:55:12Z</time>
      </trkpt>
      <trkpt lat="45.69555" lon="6.25578">
        <ele>1650.72</ele>
        <time>2013-02-16T09:55:13Z</time>
      </trkpt>
      <trkpt lat="45.69555" lon="6.25578">
        <ele>1647.84</ele>
        <time>2013-02-16T09:55:14Z</time>
      </trkpt>
      <trkpt lat="45.69554" lon="6.2558">
        <ele>1650.72</ele>
        <time>2013-02-16T09:55:17Z</time>
      </trkpt>
      <trkpt lat="45.69551" lon="6.25586">
        <ele>1654.09</ele>
        <time>2013-02-16T09:55:26Z</time>
      </trkpt>
      <trkpt lat="45.6955" lon="6.25587">
        <ele>1650.72</ele>
        <time>2013-02-16T09:55:27Z</time>
      </trkpt>
      <trkpt lat="45.69549" lon="6.25587">
        <ele>1654.09</ele>
        <time>2013-02-16T09:55:28Z</time>
      </trkpt>
      <trkpt lat="45.69549" lon="6.25587">
        <ele>1650.72</ele>
        <time>2013-02-16T09:55:29Z</time>
      </trkpt>
      <trkpt lat="45.69549" lon="6.25587">
        <ele>1654.09</ele>
        <time>2013-02-16T09:55:30Z</time>
      </trkpt>
      <trkpt lat="45.69544" lon="6.25598">
        <ele>1657.93</ele>
        <time>2013-02-16T09:55:44Z</time>
      </trkpt>
      <trkpt lat="45.69544" lon="6.25599">
        <ele>1654.09</ele>
        <time>2013-02-16T09:55:45Z</time>
      </trkpt>
      <trkpt lat="45.69544" lon="6.25604">
        <ele>1657.93</ele>
        <time>2013-02-16T09:55:49Z</time>
      </trkpt>
      <trkpt lat="45.69543" lon="6.25605">
        <ele>1654.09</ele>
        <time>2013-02-16T09:55:50Z</time>
      </trkpt>
      <trkpt lat="45.69543" lon="6.25605">
        <ele>1658.41</ele>
        <time>2013-02-16T09:55:51Z</time>
      </trkpt>
      <trkpt lat="45.69542" lon="6.2561">
        <ele>1659.37</ele>
        <time>2013-02-16T09:55:57Z</time>
      </trkpt>
      <trkpt lat="45.69542" lon="6.2561">
        <ele>1655.53</ele>
        <time>2013-02-16T09:55:58Z</time>
      </trkpt>
      <trkpt lat="45.69542" lon="6.25611">
        <ele>1661.3</ele>
        <time>2013-02-16T09:55:59Z</time>
      </trkpt>
      <trkpt lat="45.69542" lon="6.25612">
        <ele>1655.53</ele>
        <time>2013-02-16T09:56:00Z</time>
      </trkpt>
      <trkpt lat="45.69541" lon="6.25612">
        <ele>1661.78</ele>
        <time>2013-02-16T09:56:01Z</time>
      </trkpt>
      <trkpt lat="45.69541" lon="6.25613">
        <ele>1655.53</ele>
        <time>2013-02-16T09:56:02Z</time>
      </trkpt>
      <trkpt lat="45.69541" lon="6.25614">
        <ele>1661.78</ele>
        <time>2013-02-16T09:56:03Z</time>
      </trkpt>
      <trkpt lat="45.6954" lon="6.25614">
        <ele>1656.97</ele>
        <time>2013-02-16T09:56:04Z</time>
      </trkpt>
      <trkpt lat="45.6954" lon="6.25615">
        <ele>1661.78</ele>
        <time>2013-02-16T09:56:05Z</time>
      </trkpt>
      <trkpt lat="45.6954" lon="6.25616">
        <ele>1658.41</ele>
        <time>2013-02-16T09:56:06Z</time>
      </trkpt>
      <trkpt lat="45.69539" lon="6.25618">
        <ele>1661.3</ele>
        <time>2013-02-16T09:56:09Z</time>
      </trkpt>
      <trkpt lat="45.69533" lon="6.25632">
        <ele>1663.22</ele>
        <time>2013-02-16T09:56:24Z</time>
      </trkpt>
      <trkpt lat="45.69533" lon="6.25633">
        <ele>1660.33</ele>
        <time>2013-02-16T09:56:25Z</time>
      </trkpt>
      <trkpt lat="45.69532" lon="6.25634">
        <ele>1667.06</ele>
        <time>2013-02-16T09:56:26Z</time>
      </trkpt>
      <trkpt lat="45.69532" lon="6.25635">
        <ele>1660.33</ele>
        <time>2013-02-16T09:56:27Z</time>
      </trkpt>
      <trkpt lat="45.69532" lon="6.25636">
        <ele>1667.54</ele>
        <time>2013-02-16T09:56:28Z</time>
      </trkpt>
      <trkpt lat="45.69531" lon="6.25637">
        <ele>1662.74</ele>
        <time>2013-02-16T09:56:29Z</time>
      </trkpt>
      <trkpt lat="45.69531" lon="6.25638">
        <ele>1666.58</ele>
        <time>2013-02-16T09:56:30Z</time>
      </trkpt>
      <trkpt lat="45.69531" lon="6.25639">
        <ele>1662.74</ele>
        <time>2013-02-16T09:56:31Z</time>
      </trkpt>
      <trkpt lat="45.69531" lon="6.2564">
        <ele>1666.58</ele>
        <time>2013-02-16T09:56:32Z</time>
      </trkpt>
      <trkpt lat="45.69531" lon="6.2564">
        <ele>1663.22</ele>
        <time>2013-02-16T09:56:33Z</time>
      </trkpt>
      <trkpt lat="45.69531" lon="6.25641">
        <ele>1666.58</ele>
        <time>2013-02-16T09:56:34Z</time>
      </trkpt>
      <trkpt lat="45.69529" lon="6.25658">
        <ele>1667.54</ele>
        <time>2013-02-16T09:56:51Z</time>
      </trkpt>
      <trkpt lat="45.69528" lon="6.25665">
        <ele>1671.87</ele>
        <time>2013-02-16T09:56:58Z</time>
      </trkpt>
      <trkpt lat="45.69528" lon="6.25666">
        <ele>1668.51</ele>
        <time>2013-02-16T09:56:59Z</time>
      </trkpt>
      <trkpt lat="45.69527" lon="6.25667">
        <ele>1671.87</ele>
        <time>2013-02-16T09:57:00Z</time>
      </trkpt>
      <trkpt lat="45.69525" lon="6.25682">
        <ele>1672.35</ele>
        <time>2013-02-16T09:57:14Z</time>
      </trkpt>
      <trkpt lat="45.69525" lon="6.25687">
        <ele>1674.27</ele>
        <time>2013-02-16T09:57:19Z</time>
      </trkpt>
      <trkpt lat="45.69526" lon="6.25691">
        <ele>1673.31</ele>
        <time>2013-02-16T09:57:23Z</time>
      </trkpt>
      <trkpt lat="45.69525" lon="6.25706">
        <ele>1675.23</ele>
        <time>2013-02-16T09:57:37Z</time>
      </trkpt>
      <trkpt lat="45.69524" lon="6.2572">
        <ele>1678.12</ele>
        <time>2013-02-16T09:57:48Z</time>
      </trkpt>
      <trkpt lat="45.69522" lon="6.25736">
        <ele>1678.6</ele>
        <time>2013-02-16T09:58:03Z</time>
      </trkpt>
      <trkpt lat="45.69522" lon="6.25743">
        <ele>1682.44</ele>
        <time>2013-02-16T09:58:10Z</time>
      </trkpt>
      <trkpt lat="45.69523" lon="6.25757">
        <ele>1683.41</ele>
        <time>2013-02-16T09:58:23Z</time>
      </trkpt>
      <trkpt lat="45.6952" lon="6.25774">
        <ele>1685.81</ele>
        <time>2013-02-16T09:58:37Z</time>
      </trkpt>
      <trkpt lat="45.69519" lon="6.25787">
        <ele>1685.33</ele>
        <time>2013-02-16T09:58:48Z</time>
      </trkpt>
      <trkpt lat="45.69519" lon="6.2579">
        <ele>1686.77</ele>
        <time>2013-02-16T09:58:50Z</time>
      </trkpt>
      <trkpt lat="45.69519" lon="6.25808">
        <ele>1687.73</ele>
        <time>2013-02-16T09:59:05Z</time>
      </trkpt>
      <trkpt lat="45.69519" lon="6.2581">
        <ele>1689.17</ele>
        <time>2013-02-16T09:59:07Z</time>
      </trkpt>
      <trkpt lat="45.69519" lon="6.2582">
        <ele>1691.58</ele>
        <time>2013-02-16T09:59:16Z</time>
      </trkpt>
      <trkpt lat="45.6952" lon="6.25832">
        <ele>1692.54</ele>
        <time>2013-02-16T09:59:27Z</time>
      </trkpt>
      <trkpt lat="45.69521" lon="6.25843">
        <ele>1693.98</ele>
        <time>2013-02-16T09:59:36Z</time>
      </trkpt>
      <trkpt lat="45.69522" lon="6.25845">
        <ele>1695.9</ele>
        <time>2013-02-16T09:59:38Z</time>
      </trkpt>
      <trkpt lat="45.69522" lon="6.25846">
        <ele>1693.5</ele>
        <time>2013-02-16T09:59:39Z</time>
      </trkpt>
      <trkpt lat="45.69522" lon="6.25848">
        <ele>1696.38</ele>
        <time>2013-02-16T09:59:41Z</time>
      </trkpt>
      <trkpt lat="45.69523" lon="6.2585">
        <ele>1693.5</ele>
        <time>2013-02-16T09:59:43Z</time>
      </trkpt>
      <trkpt lat="45.69523" lon="6.25851">
        <ele>1697.34</ele>
        <time>2013-02-16T09:59:44Z</time>
      </trkpt>
      <trkpt lat="45.69523" lon="6.25852">
        <ele>1694.46</ele>
        <time>2013-02-16T09:59:45Z</time>
      </trkpt>
      <trkpt lat="45.69523" lon="6.25854">
        <ele>1696.86</ele>
        <time>2013-02-16T09:59:47Z</time>
      </trkpt>
      <trkpt lat="45.69524" lon="6.25856">
        <ele>1694.94</ele>
        <time>2013-02-16T09:59:48Z</time>
      </trkpt>
      <trkpt lat="45.69524" lon="6.25857">
        <ele>1697.34</ele>
        <time>2013-02-16T09:59:49Z</time>
      </trkpt>
      <trkpt lat="45.69524" lon="6.2586">
        <ele>1694.46</ele>
        <time>2013-02-16T09:59:51Z</time>
      </trkpt>
      <trkpt lat="45.69524" lon="6.25861">
        <ele>1697.83</ele>
        <time>2013-02-16T09:59:52Z</time>
      </trkpt>
      <trkpt lat="45.69524" lon="6.25862">
        <ele>1696.38</ele>
        <time>2013-02-16T09:59:53Z</time>
      </trkpt>
      <trkpt lat="45.69525" lon="6.25865">
        <ele>1695.9</ele>
        <time>2013-02-16T09:59:56Z</time>
      </trkpt>
      <trkpt lat="45.69525" lon="6.25865">
        <ele>1699.27</ele>
        <time>2013-02-16T09:59:57Z</time>
      </trkpt>
      <trkpt lat="45.69525" lon="6.25866">
        <ele>1697.83</ele>
        <time>2013-02-16T09:59:58Z</time>
      </trkpt>
      <trkpt lat="45.69525" lon="6.25871">
        <ele>1701.19</ele>
        <time>2013-02-16T10:00:03Z</time>
      </trkpt>
      <trkpt lat="45.69525" lon="6.25873">
        <ele>1698.79</ele>
        <time>2013-02-16T10:00:04Z</time>
      </trkpt>
      <trkpt lat="45.69527" lon="6.25878">
        <ele>1694.94</ele>
        <time>2013-02-16T10:00:08Z</time>
      </trkpt>
      <trkpt lat="45.69527" lon="6.25879">
        <ele>1703.59</ele>
        <time>2013-02-16T10:00:09Z</time>
      </trkpt>
      <trkpt lat="45.69526" lon="6.25878">
        <ele>1703.11</ele>
        <time>2013-02-16T10:00:10Z</time>
      </trkpt>
      <trkpt lat="45.69526" lon="6.25878">
        <ele>1702.63</ele>
        <time>2013-02-16T10:00:11Z</time>
      </trkpt>
      <trkpt lat="45.69526" lon="6.25878">
        <ele>1702.63</ele>
        <time>2013-02-16T10:00:12Z</time>
      </trkpt>
      <trkpt lat="45.69525" lon="6.25878">
        <ele>1702.63</ele>
        <time>2013-02-16T10:00:13Z</time>
      </trkpt>
      <trkpt lat="45.69521" lon="6.25877">
        <ele>1700.71</ele>
        <time>2013-02-16T10:00:18Z</time>
      </trkpt>
      <trkpt lat="45.69521" lon="6.25876">
        <ele>1702.63</ele>
        <time>2013-02-16T10:00:19Z</time>
      </trkpt>
      <trkpt lat="45.69519" lon="6.25876">
        <ele>1704.55</ele>
        <time>2013-02-16T10:00:22Z</time>
      </trkpt>
      <trkpt lat="45.69518" lon="6.25876">
        <ele>1702.15</ele>
        <time>2013-02-16T10:00:23Z</time>
      </trkpt>
      <trkpt lat="45.69517" lon="6.25876">
        <ele>1705.04</ele>
        <time>2013-02-16T10:00:24Z</time>
      </trkpt>
      <trkpt lat="45.69516" lon="6.25876">
        <ele>1702.15</ele>
        <time>2013-02-16T10:00:25Z</time>
      </trkpt>
      <trkpt lat="45.69516" lon="6.25876">
        <ele>1705.04</ele>
        <time>2013-02-16T10:00:26Z</time>
      </trkpt>
      <trkpt lat="45.69515" lon="6.25876">
        <ele>1703.11</ele>
        <time>2013-02-16T10:00:27Z</time>
      </trkpt>
      <trkpt lat="45.69515" lon="6.25876">
        <ele>1704.55</ele>
        <time>2013-02-16T10:00:28Z</time>
      </trkpt>
      <trkpt lat="45.69513" lon="6.25875">
        <ele>1706</ele>
        <time>2013-02-16T10:00:31Z</time>
      </trkpt>
      <trkpt lat="45.69512" lon="6.25874">
        <ele>1703.59</ele>
        <time>2013-02-16T10:00:32Z</time>
      </trkpt>
      <trkpt lat="45.69512" lon="6.25874">
        <ele>1705.52</ele>
        <time>2013-02-16T10:00:33Z</time>
      </trkpt>
      <trkpt lat="45.69511" lon="6.25874">
        <ele>1704.07</ele>
        <time>2013-02-16T10:00:34Z</time>
      </trkpt>
      <trkpt lat="45.69511" lon="6.25874">
        <ele>1706</ele>
        <time>2013-02-16T10:00:35Z</time>
      </trkpt>
      <trkpt lat="45.6951" lon="6.25874">
        <ele>1703.11</ele>
        <time>2013-02-16T10:00:36Z</time>
      </trkpt>
      <trkpt lat="45.6951" lon="6.25873">
        <ele>1706.96</ele>
        <time>2013-02-16T10:00:37Z</time>
      </trkpt>
      <trkpt lat="45.69509" lon="6.25873">
        <ele>1704.07</ele>
        <time>2013-02-16T10:00:38Z</time>
      </trkpt>
      <trkpt lat="45.69509" lon="6.25873">
        <ele>1706.96</ele>
        <time>2013-02-16T10:00:39Z</time>
      </trkpt>
      <trkpt lat="45.69508" lon="6.25873">
        <ele>1705.04</ele>
        <time>2013-02-16T10:00:40Z</time>
      </trkpt>
      <trkpt lat="45.69507" lon="6.25872">
        <ele>1705.04</ele>
        <time>2013-02-16T10:00:42Z</time>
      </trkpt>
      <trkpt lat="45.69506" lon="6.25872">
        <ele>1708.4</ele>
        <time>2013-02-16T10:00:43Z</time>
      </trkpt>
      <trkpt lat="45.69506" lon="6.25872">
        <ele>1705.52</ele>
        <time>2013-02-16T10:00:44Z</time>
      </trkpt>
      <trkpt lat="45.69505" lon="6.25871">
        <ele>1708.88</ele>
        <time>2013-02-16T10:00:45Z</time>
      </trkpt>
      <trkpt lat="45.69502" lon="6.25872">
        <ele>1708.88</ele>
        <time>2013-02-16T10:00:49Z</time>
      </trkpt>
      <trkpt lat="45.69502" lon="6.25872">
        <ele>1709.84</ele>
        <time>2013-02-16T10:00:51Z</time>
      </trkpt>
      <trkpt lat="45.69501" lon="6.25872">
        <ele>1707.44</ele>
        <time>2013-02-16T10:00:52Z</time>
      </trkpt>
      <trkpt lat="45.69501" lon="6.25872">
        <ele>1709.84</ele>
        <time>2013-02-16T10:00:53Z</time>
      </trkpt>
      <trkpt lat="45.695" lon="6.25872">
        <ele>1707.44</ele>
        <time>2013-02-16T10:00:55Z</time>
      </trkpt>
      <trkpt lat="45.69499" lon="6.25871">
        <ele>1707.92</ele>
        <time>2013-02-16T10:00:57Z</time>
      </trkpt>
      <trkpt lat="45.69499" lon="6.25871">
        <ele>1707.92</ele>
        <time>2013-02-16T10:00:58Z</time>
      </trkpt>
      <trkpt lat="45.69498" lon="6.25871">
        <ele>1707.44</ele>
        <time>2013-02-16T10:00:59Z</time>
      </trkpt>
      <trkpt lat="45.69498" lon="6.25871">
        <ele>1712.25</ele>
        <time>2013-02-16T10:01:00Z</time>
      </trkpt>
      <trkpt lat="45.69497" lon="6.25871">
        <ele>1709.36</ele>
        <time>2013-02-16T10:01:01Z</time>
      </trkpt>
      <trkpt lat="45.69497" lon="6.25872">
        <ele>1712.25</ele>
        <time>2013-02-16T10:01:02Z</time>
      </trkpt>
      <trkpt lat="45.69497" lon="6.25873">
        <ele>1708.4</ele>
        <time>2013-02-16T10:01:03Z</time>
      </trkpt>
      <trkpt lat="45.69498" lon="6.25874">
        <ele>1713.69</ele>
        <time>2013-02-16T10:01:04Z</time>
      </trkpt>
      <trkpt lat="45.69498" lon="6.25875">
        <ele>1708.4</ele>
        <time>2013-02-16T10:01:05Z</time>
      </trkpt>
      <trkpt lat="45.69498" lon="6.25876">
        <ele>1713.69</ele>
        <time>2013-02-16T10:01:06Z</time>
      </trkpt>
      <trkpt lat="45.69498" lon="6.25877">
        <ele>1710.32</ele>
        <time>2013-02-16T10:01:07Z</time>
      </trkpt>
      <trkpt lat="45.69498" lon="6.25878">
        <ele>1713.21</ele>
        <time>2013-02-16T10:01:08Z</time>
      </trkpt>
      <trkpt lat="45.69499" lon="6.25881">
        <ele>1711.28</ele>
        <time>2013-02-16T10:01:12Z</time>
      </trkpt>
      <trkpt lat="45.69499" lon="6.25882">
        <ele>1714.65</ele>
        <time>2013-02-16T10:01:13Z</time>
      </trkpt>
      <trkpt lat="45.69499" lon="6.25882">
        <ele>1712.25</ele>
        <time>2013-02-16T10:01:14Z</time>
      </trkpt>
      <trkpt lat="45.69499" lon="6.25883">
        <ele>1715.13</ele>
        <time>2013-02-16T10:01:15Z</time>
      </trkpt>
      <trkpt lat="45.69499" lon="6.25884">
        <ele>1712.73</ele>
        <time>2013-02-16T10:01:16Z</time>
      </trkpt>
      <trkpt lat="45.695" lon="6.25885">
        <ele>1715.61</ele>
        <time>2013-02-16T10:01:17Z</time>
      </trkpt>
      <trkpt lat="45.695" lon="6.25885">
        <ele>1711.28</ele>
        <time>2013-02-16T10:01:18Z</time>
      </trkpt>
      <trkpt lat="45.695" lon="6.25892">
        <ele>1716.57</ele>
        <time>2013-02-16T10:01:19Z</time>
      </trkpt>
      <trkpt lat="45.69501" lon="6.25893">
        <ele>1712.25</ele>
        <time>2013-02-16T10:01:20Z</time>
      </trkpt>
      <trkpt lat="45.69498" lon="6.25889">
        <ele>1716.09</ele>
        <time>2013-02-16T10:01:22Z</time>
      </trkpt>
      <trkpt lat="45.69498" lon="6.25889">
        <ele>1715.61</ele>
        <time>2013-02-16T10:01:23Z</time>
      </trkpt>
      <trkpt lat="45.69497" lon="6.25888">
        <ele>1714.65</ele>
        <time>2013-02-16T10:01:25Z</time>
      </trkpt>
      <trkpt lat="45.69494" lon="6.25886">
        <ele>1714.65</ele>
        <time>2013-02-16T10:01:30Z</time>
      </trkpt>
      <trkpt lat="45.69485" lon="6.25884">
        <ele>1714.17</ele>
        <time>2013-02-16T10:01:43Z</time>
      </trkpt>
      <trkpt lat="45.69485" lon="6.25885">
        <ele>1720.9</ele>
        <time>2013-02-16T10:01:44Z</time>
      </trkpt>
      <trkpt lat="45.69485" lon="6.25886">
        <ele>1715.13</ele>
        <time>2013-02-16T10:01:45Z</time>
      </trkpt>
      <trkpt lat="45.69486" lon="6.25888">
        <ele>1721.38</ele>
        <time>2013-02-16T10:01:47Z</time>
      </trkpt>
      <trkpt lat="45.69486" lon="6.25888">
        <ele>1715.13</ele>
        <time>2013-02-16T10:01:48Z</time>
      </trkpt>
      <trkpt lat="45.69486" lon="6.25889">
        <ele>1721.86</ele>
        <time>2013-02-16T10:01:49Z</time>
      </trkpt>
      <trkpt lat="45.69486" lon="6.2589">
        <ele>1716.09</ele>
        <time>2013-02-16T10:01:50Z</time>
      </trkpt>
      <trkpt lat="45.69486" lon="6.25891">
        <ele>1721.38</ele>
        <time>2013-02-16T10:01:51Z</time>
      </trkpt>
      <trkpt lat="45.69486" lon="6.25891">
        <ele>1716.57</ele>
        <time>2013-02-16T10:01:52Z</time>
      </trkpt>
      <trkpt lat="45.69487" lon="6.25892">
        <ele>1721.86</ele>
        <time>2013-02-16T10:01:53Z</time>
      </trkpt>
      <trkpt lat="45.69487" lon="6.25892">
        <ele>1717.05</ele>
        <time>2013-02-16T10:01:54Z</time>
      </trkpt>
      <trkpt lat="45.69487" lon="6.25893">
        <ele>1722.82</ele>
        <time>2013-02-16T10:01:55Z</time>
      </trkpt>
      <trkpt lat="45.69487" lon="6.25894">
        <ele>1717.53</ele>
        <time>2013-02-16T10:01:56Z</time>
      </trkpt>
      <trkpt lat="45.69487" lon="6.25894">
        <ele>1723.3</ele>
        <time>2013-02-16T10:01:57Z</time>
      </trkpt>
      <trkpt lat="45.69487" lon="6.25895">
        <ele>1717.05</ele>
        <time>2013-02-16T10:01:58Z</time>
      </trkpt>
      <trkpt lat="45.69488" lon="6.25896">
        <ele>1723.3</ele>
        <time>2013-02-16T10:01:59Z</time>
      </trkpt>
      <trkpt lat="45.69488" lon="6.25897">
        <ele>1717.53</ele>
        <time>2013-02-16T10:02:00Z</time>
      </trkpt>
      <trkpt lat="45.69488" lon="6.25898">
        <ele>1723.78</ele>
        <time>2013-02-16T10:02:01Z</time>
      </trkpt>
      <trkpt lat="45.69488" lon="6.25899">
        <ele>1716.57</ele>
        <time>2013-02-16T10:02:02Z</time>
      </trkpt>
      <trkpt lat="45.69488" lon="6.259">
        <ele>1725.7</ele>
        <time>2013-02-16T10:02:03Z</time>
      </trkpt>
      <trkpt lat="45.69488" lon="6.259">
        <ele>1717.53</ele>
        <time>2013-02-16T10:02:04Z</time>
      </trkpt>
      <trkpt lat="45.69488" lon="6.25901">
        <ele>1727.15</ele>
        <time>2013-02-16T10:02:05Z</time>
      </trkpt>
      <trkpt lat="45.69488" lon="6.25902">
        <ele>1719.94</ele>
        <time>2013-02-16T10:02:06Z</time>
      </trkpt>
      <trkpt lat="45.69488" lon="6.25903">
        <ele>1725.22</ele>
        <time>2013-02-16T10:02:07Z</time>
      </trkpt>
      <trkpt lat="45.69488" lon="6.25904">
        <ele>1721.38</ele>
        <time>2013-02-16T10:02:08Z</time>
      </trkpt>
      <trkpt lat="45.69488" lon="6.25905">
        <ele>1724.74</ele>
        <time>2013-02-16T10:02:09Z</time>
      </trkpt>
      <trkpt lat="45.69488" lon="6.25922">
        <ele>1725.22</ele>
        <time>2013-02-16T10:02:24Z</time>
      </trkpt>
      <trkpt lat="45.69488" lon="6.25928">
        <ele>1729.07</ele>
        <time>2013-02-16T10:02:33Z</time>
      </trkpt>
      <trkpt lat="45.69488" lon="6.25929">
        <ele>1729.07</ele>
        <time>2013-02-16T10:02:34Z</time>
      </trkpt>
      <trkpt lat="45.69489" lon="6.25929">
        <ele>1725.22</ele>
        <time>2013-02-16T10:02:35Z</time>
      </trkpt>
      <trkpt lat="45.69489" lon="6.2593">
        <ele>1729.55</ele>
        <time>2013-02-16T10:02:36Z</time>
      </trkpt>
      <trkpt lat="45.69489" lon="6.25931">
        <ele>1725.22</ele>
        <time>2013-02-16T10:02:37Z</time>
      </trkpt>
      <trkpt lat="45.69489" lon="6.25932">
        <ele>1730.51</ele>
        <time>2013-02-16T10:02:38Z</time>
      </trkpt>
      <trkpt lat="45.69489" lon="6.25933">
        <ele>1726.18</ele>
        <time>2013-02-16T10:02:39Z</time>
      </trkpt>
      <trkpt lat="45.69489" lon="6.25934">
        <ele>1729.55</ele>
        <time>2013-02-16T10:02:40Z</time>
      </trkpt>
      <trkpt lat="45.6949" lon="6.25937">
        <ele>1726.18</ele>
        <time>2013-02-16T10:02:43Z</time>
      </trkpt>
      <trkpt lat="45.6949" lon="6.25937">
        <ele>1731.47</ele>
        <time>2013-02-16T10:02:44Z</time>
      </trkpt>
      <trkpt lat="45.6949" lon="6.25938">
        <ele>1727.63</ele>
        <time>2013-02-16T10:02:45Z</time>
      </trkpt>
      <trkpt lat="45.69491" lon="6.25938">
        <ele>1731.95</ele>
        <time>2013-02-16T10:02:46Z</time>
      </trkpt>
      <trkpt lat="45.69491" lon="6.25939">
        <ele>1726.18</ele>
        <time>2013-02-16T10:02:47Z</time>
      </trkpt>
      <trkpt lat="45.69491" lon="6.2594">
        <ele>1733.39</ele>
        <time>2013-02-16T10:02:48Z</time>
      </trkpt>
      <trkpt lat="45.69491" lon="6.25941">
        <ele>1726.67</ele>
        <time>2013-02-16T10:02:49Z</time>
      </trkpt>
      <trkpt lat="45.69491" lon="6.25942">
        <ele>1734.84</ele>
        <time>2013-02-16T10:02:50Z</time>
      </trkpt>
      <trkpt lat="45.69491" lon="6.25943">
        <ele>1728.59</ele>
        <time>2013-02-16T10:02:51Z</time>
      </trkpt>
      <trkpt lat="45.69492" lon="6.25944">
        <ele>1734.36</ele>
        <time>2013-02-16T10:02:52Z</time>
      </trkpt>
      <trkpt lat="45.69492" lon="6.25945">
        <ele>1729.07</ele>
        <time>2013-02-16T10:02:53Z</time>
      </trkpt>
      <trkpt lat="45.69492" lon="6.25945">
        <ele>1733.88</ele>
        <time>2013-02-16T10:02:54Z</time>
      </trkpt>
      <trkpt lat="45.69492" lon="6.25948">
        <ele>1730.03</ele>
        <time>2013-02-16T10:02:59Z</time>
      </trkpt>
      <trkpt lat="45.69493" lon="6.2595">
        <ele>1735.32</ele>
        <time>2013-02-16T10:03:01Z</time>
      </trkpt>
      <trkpt lat="45.69492" lon="6.25949">
        <ele>1732.91</ele>
        <time>2013-02-16T10:03:02Z</time>
      </trkpt>
      <trkpt lat="45.69482" lon="6.25945">
        <ele>1735.8</ele>
        <time>2013-02-16T10:03:15Z</time>
      </trkpt>
      <trkpt lat="45.69472" lon="6.25943">
        <ele>1737.24</ele>
        <time>2013-02-16T10:03:30Z</time>
      </trkpt>
      <trkpt lat="45.69462" lon="6.25939">
        <ele>1741.57</ele>
        <time>2013-02-16T10:03:43Z</time>
      </trkpt>
      <trkpt lat="45.69462" lon="6.25939">
        <ele>1737.72</ele>
        <time>2013-02-16T10:03:44Z</time>
      </trkpt>
      <trkpt lat="45.69462" lon="6.25938">
        <ele>1742.05</ele>
        <time>2013-02-16T10:03:45Z</time>
      </trkpt>
      <trkpt lat="45.69461" lon="6.25937">
        <ele>1738.68</ele>
        <time>2013-02-16T10:03:46Z</time>
      </trkpt>
      <trkpt lat="45.69459" lon="6.25935">
        <ele>1742.05</ele>
        <time>2013-02-16T10:03:50Z</time>
      </trkpt>
      <trkpt lat="45.69458" lon="6.25934">
        <ele>1742.05</ele>
        <time>2013-02-16T10:03:51Z</time>
      </trkpt>
      <trkpt lat="45.69449" lon="6.25932">
        <ele>1741.57</ele>
        <time>2013-02-16T10:04:04Z</time>
      </trkpt>
      <trkpt lat="45.69448" lon="6.25931">
        <ele>1744.45</ele>
        <time>2013-02-16T10:04:05Z</time>
      </trkpt>
      <trkpt lat="45.69448" lon="6.25931">
        <ele>1742.53</ele>
        <time>2013-02-16T10:04:06Z</time>
      </trkpt>
      <trkpt lat="45.69448" lon="6.25931">
        <ele>1743.97</ele>
        <time>2013-02-16T10:04:07Z</time>
      </trkpt>
      <trkpt lat="45.69447" lon="6.25931">
        <ele>1742.05</ele>
        <time>2013-02-16T10:04:08Z</time>
      </trkpt>
      <trkpt lat="45.69446" lon="6.2593">
        <ele>1745.41</ele>
        <time>2013-02-16T10:04:09Z</time>
      </trkpt>
      <trkpt lat="45.69443" lon="6.25927">
        <ele>1745.89</ele>
        <time>2013-02-16T10:04:14Z</time>
      </trkpt>
      <trkpt lat="45.69443" lon="6.25926">
        <ele>1744.45</ele>
        <time>2013-02-16T10:04:15Z</time>
      </trkpt>
      <trkpt lat="45.69442" lon="6.25925">
        <ele>1744.45</ele>
        <time>2013-02-16T10:04:18Z</time>
      </trkpt>
      <trkpt lat="45.69442" lon="6.25925">
        <ele>1744.45</ele>
        <time>2013-02-16T10:04:19Z</time>
      </trkpt>
      <trkpt lat="45.69441" lon="6.25925">
        <ele>1744.45</ele>
        <time>2013-02-16T10:04:20Z</time>
      </trkpt>
      <trkpt lat="45.69441" lon="6.25924">
        <ele>1748.29</ele>
        <time>2013-02-16T10:04:21Z</time>
      </trkpt>
      <trkpt lat="45.6944" lon="6.25924">
        <ele>1744.93</ele>
        <time>2013-02-16T10:04:22Z</time>
      </trkpt>
      <trkpt lat="45.69439" lon="6.25923">
        <ele>1749.26</ele>
        <time>2013-02-16T10:04:23Z</time>
      </trkpt>
      <trkpt lat="45.69439" lon="6.25923">
        <ele>1746.85</ele>
        <time>2013-02-16T10:04:24Z</time>
      </trkpt>
      <trkpt lat="45.69438" lon="6.25923">
        <ele>1749.26</ele>
        <time>2013-02-16T10:04:25Z</time>
      </trkpt>
      <trkpt lat="45.69438" lon="6.25923">
        <ele>1746.85</ele>
        <time>2013-02-16T10:04:26Z</time>
      </trkpt>
      <trkpt lat="45.69437" lon="6.25923">
        <ele>1748.78</ele>
        <time>2013-02-16T10:04:27Z</time>
      </trkpt>
      <trkpt lat="45.69437" lon="6.25922">
        <ele>1746.85</ele>
        <time>2013-02-16T10:04:28Z</time>
      </trkpt>
      <trkpt lat="45.69437" lon="6.25921">
        <ele>1749.26</ele>
        <time>2013-02-16T10:04:29Z</time>
      </trkpt>
      <trkpt lat="45.69433" lon="6.25914">
        <ele>1752.14</ele>
        <time>2013-02-16T10:04:37Z</time>
      </trkpt>
      <trkpt lat="45.69433" lon="6.25913">
        <ele>1747.33</ele>
        <time>2013-02-16T10:04:39Z</time>
      </trkpt>
      <trkpt lat="45.69432" lon="6.25912">
        <ele>1753.1</ele>
        <time>2013-02-16T10:04:40Z</time>
      </trkpt>
      <trkpt lat="45.69432" lon="6.25912">
        <ele>1748.78</ele>
        <time>2013-02-16T10:04:41Z</time>
      </trkpt>
      <trkpt lat="45.69431" lon="6.25912">
        <ele>1752.62</ele>
        <time>2013-02-16T10:04:42Z</time>
      </trkpt>
      <trkpt lat="45.6943" lon="6.2591">
        <ele>1749.26</ele>
        <time>2013-02-16T10:04:45Z</time>
      </trkpt>
      <trkpt lat="45.69429" lon="6.25909">
        <ele>1749.26</ele>
        <time>2013-02-16T10:04:46Z</time>
      </trkpt>
      <trkpt lat="45.69429" lon="6.25908">
        <ele>1754.06</ele>
        <time>2013-02-16T10:04:47Z</time>
      </trkpt>
      <trkpt lat="45.69428" lon="6.25907">
        <ele>1751.18</ele>
        <time>2013-02-16T10:04:48Z</time>
      </trkpt>
      <trkpt lat="45.69428" lon="6.25907">
        <ele>1752.62</ele>
        <time>2013-02-16T10:04:49Z</time>
      </trkpt>
      <trkpt lat="45.69424" lon="6.25899">
        <ele>1754.06</ele>
        <time>2013-02-16T10:05:00Z</time>
      </trkpt>
      <trkpt lat="45.69421" lon="6.25898">
        <ele>1753.58</ele>
        <time>2013-02-16T10:05:05Z</time>
      </trkpt>
      <trkpt lat="45.69418" lon="6.25898">
        <ele>1755.5</ele>
        <time>2013-02-16T10:05:07Z</time>
      </trkpt>
      <trkpt lat="45.69414" lon="6.25896">
        <ele>1753.58</ele>
        <time>2013-02-16T10:05:12Z</time>
      </trkpt>
      <trkpt lat="45.69414" lon="6.25895">
        <ele>1756.47</ele>
        <time>2013-02-16T10:05:13Z</time>
      </trkpt>
      <trkpt lat="45.69413" lon="6.25895">
        <ele>1755.02</ele>
        <time>2013-02-16T10:05:14Z</time>
      </trkpt>
      <trkpt lat="45.69412" lon="6.25895">
        <ele>1757.91</ele>
        <time>2013-02-16T10:05:15Z</time>
      </trkpt>
      <trkpt lat="45.69412" lon="6.25895">
        <ele>1757.91</ele>
        <time>2013-02-16T10:05:16Z</time>
      </trkpt>
      <trkpt lat="45.69411" lon="6.25896">
        <ele>1755.99</ele>
        <time>2013-02-16T10:05:17Z</time>
      </trkpt>
      <trkpt lat="45.69409" lon="6.25895">
        <ele>1757.43</ele>
        <time>2013-02-16T10:05:19Z</time>
      </trkpt>
      <trkpt lat="45.69409" lon="6.25895">
        <ele>1755.5</ele>
        <time>2013-02-16T10:05:20Z</time>
      </trkpt>
      <trkpt lat="45.69408" lon="6.25895">
        <ele>1758.39</ele>
        <time>2013-02-16T10:05:21Z</time>
      </trkpt>
      <trkpt lat="45.69408" lon="6.25894">
        <ele>1756.47</ele>
        <time>2013-02-16T10:05:22Z</time>
      </trkpt>
      <trkpt lat="45.69407" lon="6.25894">
        <ele>1758.87</ele>
        <time>2013-02-16T10:05:24Z</time>
      </trkpt>
      <trkpt lat="45.69406" lon="6.25894">
        <ele>1756.47</ele>
        <time>2013-02-16T10:05:25Z</time>
      </trkpt>
      <trkpt lat="45.69406" lon="6.25893">
        <ele>1759.35</ele>
        <time>2013-02-16T10:05:26Z</time>
      </trkpt>
      <trkpt lat="45.69405" lon="6.25893">
        <ele>1757.91</ele>
        <time>2013-02-16T10:05:27Z</time>
      </trkpt>
      <trkpt lat="45.69403" lon="6.25892">
        <ele>1759.83</ele>
        <time>2013-02-16T10:05:30Z</time>
      </trkpt>
      <trkpt lat="45.69403" lon="6.25892">
        <ele>1757.43</ele>
        <time>2013-02-16T10:05:31Z</time>
      </trkpt>
      <trkpt lat="45.69402" lon="6.25891">
        <ele>1760.31</ele>
        <time>2013-02-16T10:05:32Z</time>
      </trkpt>
      <trkpt lat="45.69401" lon="6.25891">
        <ele>1757.43</ele>
        <time>2013-02-16T10:05:33Z</time>
      </trkpt>
      <trkpt lat="45.69401" lon="6.25891">
        <ele>1760.31</ele>
        <time>2013-02-16T10:05:34Z</time>
      </trkpt>
      <trkpt lat="45.694" lon="6.2589">
        <ele>1761.27</ele>
        <time>2013-02-16T10:05:37Z</time>
      </trkpt>
      <trkpt lat="45.69399" lon="6.2589">
        <ele>1758.87</ele>
        <time>2013-02-16T10:05:38Z</time>
      </trkpt>
      <trkpt lat="45.69399" lon="6.2589">
        <ele>1762.71</ele>
        <time>2013-02-16T10:05:39Z</time>
      </trkpt>
      <trkpt lat="45.69398" lon="6.2589">
        <ele>1758.87</ele>
        <time>2013-02-16T10:05:40Z</time>
      </trkpt>
      <trkpt lat="45.69398" lon="6.2589">
        <ele>1763.68</ele>
        <time>2013-02-16T10:05:41Z</time>
      </trkpt>
      <trkpt lat="45.69397" lon="6.25889">
        <ele>1760.31</ele>
        <time>2013-02-16T10:05:42Z</time>
      </trkpt>
      <trkpt lat="45.69397" lon="6.25889">
        <ele>1763.2</ele>
        <time>2013-02-16T10:05:43Z</time>
      </trkpt>
      <trkpt lat="45.69396" lon="6.25888">
        <ele>1760.79</ele>
        <time>2013-02-16T10:05:44Z</time>
      </trkpt>
      <trkpt lat="45.69393" lon="6.25887">
        <ele>1764.16</ele>
        <time>2013-02-16T10:05:48Z</time>
      </trkpt>
      <trkpt lat="45.69392" lon="6.25887">
        <ele>1760.79</ele>
        <time>2013-02-16T10:05:49Z</time>
      </trkpt>
      <trkpt lat="45.69391" lon="6.25886">
        <ele>1765.12</ele>
        <time>2013-02-16T10:05:50Z</time>
      </trkpt>
      <trkpt lat="45.6939" lon="6.25886">
        <ele>1761.75</ele>
        <time>2013-02-16T10:05:51Z</time>
      </trkpt>
      <trkpt lat="45.6939" lon="6.25886">
        <ele>1764.64</ele>
        <time>2013-02-16T10:05:52Z</time>
      </trkpt>
      <trkpt lat="45.69389" lon="6.25886">
        <ele>1761.27</ele>
        <time>2013-02-16T10:05:53Z</time>
      </trkpt>
      <trkpt lat="45.69389" lon="6.25886">
        <ele>1765.12</ele>
        <time>2013-02-16T10:05:54Z</time>
      </trkpt>
      <trkpt lat="45.69384" lon="6.25883">
        <ele>1763.2</ele>
        <time>2013-02-16T10:06:01Z</time>
      </trkpt>
      <trkpt lat="45.69383" lon="6.25884">
        <ele>1764.16</ele>
        <time>2013-02-16T10:06:03Z</time>
      </trkpt>
      <trkpt lat="45.69382" lon="6.25884">
        <ele>1767.04</ele>
        <time>2013-02-16T10:06:04Z</time>
      </trkpt>
      <trkpt lat="45.6938" lon="6.25883">
        <ele>1767.52</ele>
        <time>2013-02-16T10:06:07Z</time>
      </trkpt>
      <trkpt lat="45.6938" lon="6.25883">
        <ele>1764.64</ele>
        <time>2013-02-16T10:06:08Z</time>
      </trkpt>
      <trkpt lat="45.69379" lon="6.25883">
        <ele>1769.44</ele>
        <time>2013-02-16T10:06:09Z</time>
      </trkpt>
      <trkpt lat="45.69379" lon="6.25883">
        <ele>1765.12</ele>
        <time>2013-02-16T10:06:10Z</time>
      </trkpt>
      <trkpt lat="45.69378" lon="6.25883">
        <ele>1768.96</ele>
        <time>2013-02-16T10:06:11Z</time>
      </trkpt>
      <trkpt lat="45.69377" lon="6.25883">
        <ele>1766.08</ele>
        <time>2013-02-16T10:06:12Z</time>
      </trkpt>
      <trkpt lat="45.69376" lon="6.25882">
        <ele>1768.48</ele>
        <time>2013-02-16T10:06:13Z</time>
      </trkpt>
      <trkpt lat="45.69376" lon="6.25882">
        <ele>1766.56</ele>
        <time>2013-02-16T10:06:14Z</time>
      </trkpt>
      <trkpt lat="45.69375" lon="6.25883">
        <ele>1768.48</ele>
        <time>2013-02-16T10:06:15Z</time>
      </trkpt>
      <trkpt lat="45.69371" lon="6.25881">
        <ele>1769.92</ele>
        <time>2013-02-16T10:06:21Z</time>
      </trkpt>
      <trkpt lat="45.6937" lon="6.25881">
        <ele>1770.41</ele>
        <time>2013-02-16T10:06:23Z</time>
      </trkpt>
      <trkpt lat="45.69369" lon="6.25881">
        <ele>1771.37</ele>
        <time>2013-02-16T10:06:25Z</time>
      </trkpt>
      <trkpt lat="45.69368" lon="6.2588">
        <ele>1771.37</ele>
        <time>2013-02-16T10:06:28Z</time>
      </trkpt>
      <trkpt lat="45.69368" lon="6.2588">
        <ele>1769.44</ele>
        <time>2013-02-16T10:06:29Z</time>
      </trkpt>
      <trkpt lat="45.69368" lon="6.2588">
        <ele>1771.85</ele>
        <time>2013-02-16T10:06:30Z</time>
      </trkpt>
      <trkpt lat="45.69367" lon="6.2588">
        <ele>1768.48</ele>
        <time>2013-02-16T10:06:32Z</time>
      </trkpt>
      <trkpt lat="45.69367" lon="6.2588">
        <ele>1771.85</ele>
        <time>2013-02-16T10:06:33Z</time>
      </trkpt>
      <trkpt lat="45.69367" lon="6.2588">
        <ele>1768.96</ele>
        <time>2013-02-16T10:06:35Z</time>
      </trkpt>
      <trkpt lat="45.69367" lon="6.25881">
        <ele>1772.33</ele>
        <time>2013-02-16T10:06:36Z</time>
      </trkpt>
      <trkpt lat="45.69367" lon="6.25882">
        <ele>1771.85</ele>
        <time>2013-02-16T10:06:38Z</time>
      </trkpt>
      <trkpt lat="45.69368" lon="6.25883">
        <ele>1773.77</ele>
        <time>2013-02-16T10:06:40Z</time>
      </trkpt>
      <trkpt lat="45.69368" lon="6.25884">
        <ele>1770.41</ele>
        <time>2013-02-16T10:06:41Z</time>
      </trkpt>
      <trkpt lat="45.69368" lon="6.25885">
        <ele>1773.77</ele>
        <time>2013-02-16T10:06:42Z</time>
      </trkpt>
      <trkpt lat="45.69369" lon="6.25887">
        <ele>1770.89</ele>
        <time>2013-02-16T10:06:45Z</time>
      </trkpt>
      <trkpt lat="45.69369" lon="6.25888">
        <ele>1774.25</ele>
        <time>2013-02-16T10:06:46Z</time>
      </trkpt>
      <trkpt lat="45.69369" lon="6.25889">
        <ele>1775.69</ele>
        <time>2013-02-16T10:06:47Z</time>
      </trkpt>
      <trkpt lat="45.69368" lon="6.2589">
        <ele>1775.21</ele>
        <time>2013-02-16T10:06:48Z</time>
      </trkpt>
      <trkpt lat="45.69368" lon="6.25892">
        <ele>1775.69</ele>
        <time>2013-02-16T10:06:49Z</time>
      </trkpt>
      <trkpt lat="45.69368" lon="6.25892">
        <ele>1775.69</ele>
        <time>2013-02-16T10:06:50Z</time>
      </trkpt>
      <trkpt lat="45.69369" lon="6.25896">
        <ele>1771.85</ele>
        <time>2013-02-16T10:06:53Z</time>
      </trkpt>
      <trkpt lat="45.69369" lon="6.25896">
        <ele>1771.37</ele>
        <time>2013-02-16T10:06:54Z</time>
      </trkpt>
      <trkpt lat="45.69369" lon="6.25897">
        <ele>1777.61</ele>
        <time>2013-02-16T10:06:55Z</time>
      </trkpt>
      <trkpt lat="45.69369" lon="6.25898">
        <ele>1773.77</ele>
        <time>2013-02-16T10:06:56Z</time>
      </trkpt>
      <trkpt lat="45.69369" lon="6.25899">
        <ele>1775.21</ele>
        <time>2013-02-16T10:06:57Z</time>
      </trkpt>
      <trkpt lat="45.6937" lon="6.25901">
        <ele>1773.29</ele>
        <time>2013-02-16T10:06:59Z</time>
      </trkpt>
      <trkpt lat="45.6937" lon="6.25902">
        <ele>1777.61</ele>
        <time>2013-02-16T10:07:00Z</time>
      </trkpt>
      <trkpt lat="45.6937" lon="6.25903">
        <ele>1775.21</ele>
        <time>2013-02-16T10:07:01Z</time>
      </trkpt>
      <trkpt lat="45.6937" lon="6.25904">
        <ele>1776.65</ele>
        <time>2013-02-16T10:07:02Z</time>
      </trkpt>
      <trkpt lat="45.6937" lon="6.25907">
        <ele>1774.73</ele>
        <time>2013-02-16T10:07:04Z</time>
      </trkpt>
      <trkpt lat="45.6937" lon="6.25908">
        <ele>1779.06</ele>
        <time>2013-02-16T10:07:05Z</time>
      </trkpt>
      <trkpt lat="45.6937" lon="6.25909">
        <ele>1775.69</ele>
        <time>2013-02-16T10:07:06Z</time>
      </trkpt>
      <trkpt lat="45.6937" lon="6.25912">
        <ele>1779.06</ele>
        <time>2013-02-16T10:07:09Z</time>
      </trkpt>
      <trkpt lat="45.69371" lon="6.25913">
        <ele>1776.17</ele>
        <time>2013-02-16T10:07:10Z</time>
      </trkpt>
      <trkpt lat="45.69371" lon="6.25915">
        <ele>1777.13</ele>
        <time>2013-02-16T10:07:12Z</time>
      </trkpt>
      <trkpt lat="45.69371" lon="6.25917">
        <ele>1775.69</ele>
        <time>2013-02-16T10:07:15Z</time>
      </trkpt>
      <trkpt lat="45.6937" lon="6.25919">
        <ele>1777.13</ele>
        <time>2013-02-16T10:07:16Z</time>
      </trkpt>
      <trkpt lat="45.69371" lon="6.25919">
        <ele>1777.13</ele>
        <time>2013-02-16T10:07:17Z</time>
      </trkpt>
      <trkpt lat="45.6937" lon="6.25919">
        <ele>1780.5</ele>
        <time>2013-02-16T10:07:18Z</time>
      </trkpt>
      <trkpt lat="45.69369" lon="6.25919">
        <ele>1780.5</ele>
        <time>2013-02-16T10:07:20Z</time>
      </trkpt>
      <trkpt lat="45.69366" lon="6.25918">
        <ele>1779.06</ele>
        <time>2013-02-16T10:07:24Z</time>
      </trkpt>
      <trkpt lat="45.69366" lon="6.25918">
        <ele>1782.42</ele>
        <time>2013-02-16T10:07:25Z</time>
      </trkpt>
      <trkpt lat="45.69366" lon="6.25918">
        <ele>1779.54</ele>
        <time>2013-02-16T10:07:26Z</time>
      </trkpt>
      <trkpt lat="45.69365" lon="6.25918">
        <ele>1782.42</ele>
        <time>2013-02-16T10:07:27Z</time>
      </trkpt>
      <trkpt lat="45.69365" lon="6.25918">
        <ele>1780.02</ele>
        <time>2013-02-16T10:07:28Z</time>
      </trkpt>
      <trkpt lat="45.69364" lon="6.25917">
        <ele>1782.42</ele>
        <time>2013-02-16T10:07:29Z</time>
      </trkpt>
      <trkpt lat="45.69362" lon="6.25917">
        <ele>1780.5</ele>
        <time>2013-02-16T10:07:33Z</time>
      </trkpt>
      <trkpt lat="45.69361" lon="6.25917">
        <ele>1784.34</ele>
        <time>2013-02-16T10:07:34Z</time>
      </trkpt>
      <trkpt lat="45.69359" lon="6.25917">
        <ele>1781.94</ele>
        <time>2013-02-16T10:07:36Z</time>
      </trkpt>
      <trkpt lat="45.69359" lon="6.25916">
        <ele>1780.5</ele>
        <time>2013-02-16T10:07:37Z</time>
      </trkpt>
      <trkpt lat="45.69358" lon="6.25916">
        <ele>1780.5</ele>
        <time>2013-02-16T10:07:38Z</time>
      </trkpt>
      <trkpt lat="45.69358" lon="6.25915">
        <ele>1781.94</ele>
        <time>2013-02-16T10:07:39Z</time>
      </trkpt>
      <trkpt lat="45.69357" lon="6.25915">
        <ele>1781.94</ele>
        <time>2013-02-16T10:07:40Z</time>
      </trkpt>
      <trkpt lat="45.69357" lon="6.25915">
        <ele>1785.31</ele>
        <time>2013-02-16T10:07:41Z</time>
      </trkpt>
      <trkpt lat="45.69356" lon="6.25914">
        <ele>1782.42</ele>
        <time>2013-02-16T10:07:42Z</time>
      </trkpt>
      <trkpt lat="45.69356" lon="6.25914">
        <ele>1785.79</ele>
        <time>2013-02-16T10:07:43Z</time>
      </trkpt>
      <trkpt lat="45.69355" lon="6.25914">
        <ele>1784.34</ele>
        <time>2013-02-16T10:07:44Z</time>
      </trkpt>
      <trkpt lat="45.69353" lon="6.25912">
        <ele>1785.31</ele>
        <time>2013-02-16T10:07:47Z</time>
      </trkpt>
      <trkpt lat="45.69352" lon="6.25912">
        <ele>1784.34</ele>
        <time>2013-02-16T10:07:49Z</time>
      </trkpt>
      <trkpt lat="45.69352" lon="6.25912">
        <ele>1787.71</ele>
        <time>2013-02-16T10:07:50Z</time>
      </trkpt>
      <trkpt lat="45.69351" lon="6.25912">
        <ele>1784.82</ele>
        <time>2013-02-16T10:07:51Z</time>
      </trkpt>
      <trkpt lat="45.69351" lon="6.25912">
        <ele>1787.71</ele>
        <time>2013-02-16T10:07:52Z</time>
      </trkpt>
      <trkpt lat="45.6935" lon="6.25912">
        <ele>1784.82</ele>
        <time>2013-02-16T10:07:53Z</time>
      </trkpt>
      <trkpt lat="45.6935" lon="6.25912">
        <ele>1787.71</ele>
        <time>2013-02-16T10:07:54Z</time>
      </trkpt>
      <trkpt lat="45.69349" lon="6.25912">
        <ele>1786.27</ele>
        <time>2013-02-16T10:07:55Z</time>
      </trkpt>
      <trkpt lat="45.69348" lon="6.25912">
        <ele>1787.71</ele>
        <time>2013-02-16T10:07:56Z</time>
      </trkpt>
      <trkpt lat="45.69348" lon="6.25911">
        <ele>1786.27</ele>
        <time>2013-02-16T10:07:57Z</time>
      </trkpt>
      <trkpt lat="45.69347" lon="6.25911">
        <ele>1788.67</ele>
        <time>2013-02-16T10:07:58Z</time>
      </trkpt>
      <trkpt lat="45.69346" lon="6.25911">
        <ele>1787.23</ele>
        <time>2013-02-16T10:07:59Z</time>
      </trkpt>
      <trkpt lat="45.69344" lon="6.2591">
        <ele>1786.75</ele>
        <time>2013-02-16T10:08:03Z</time>
      </trkpt>
      <trkpt lat="45.69343" lon="6.25909">
        <ele>1790.11</ele>
        <time>2013-02-16T10:08:04Z</time>
      </trkpt>
      <trkpt lat="45.69343" lon="6.25909">
        <ele>1787.71</ele>
        <time>2013-02-16T10:08:05Z</time>
      </trkpt>
      <trkpt lat="45.69342" lon="6.25908">
        <ele>1787.71</ele>
        <time>2013-02-16T10:08:07Z</time>
      </trkpt>
      <trkpt lat="45.69342" lon="6.25909">
        <ele>1790.59</ele>
        <time>2013-02-16T10:08:08Z</time>
      </trkpt>
      <trkpt lat="45.69341" lon="6.25909">
        <ele>1785.79</ele>
        <time>2013-02-16T10:08:09Z</time>
      </trkpt>
      <trkpt lat="45.69341" lon="6.2591">
        <ele>1793</ele>
        <time>2013-02-16T10:08:10Z</time>
      </trkpt>
      <trkpt lat="45.69341" lon="6.2591">
        <ele>1793.48</ele>
        <time>2013-02-16T10:08:11Z</time>
      </trkpt>
      <trkpt lat="45.69342" lon="6.25911">
        <ele>1792.03</ele>
        <time>2013-02-16T10:08:12Z</time>
      </trkpt>
      <trkpt lat="45.69342" lon="6.25911">
        <ele>1792.03</ele>
        <time>2013-02-16T10:08:13Z</time>
      </trkpt>
      <trkpt lat="45.69342" lon="6.25912">
        <ele>1793</ele>
        <time>2013-02-16T10:08:15Z</time>
      </trkpt>
      <trkpt lat="45.69342" lon="6.25913">
        <ele>1789.15</ele>
        <time>2013-02-16T10:08:16Z</time>
      </trkpt>
      <trkpt lat="45.69342" lon="6.25914">
        <ele>1792.52</ele>
        <time>2013-02-16T10:08:17Z</time>
      </trkpt>
      <trkpt lat="45.69341" lon="6.25916">
        <ele>1789.63</ele>
        <time>2013-02-16T10:08:18Z</time>
      </trkpt>
      <trkpt lat="45.69341" lon="6.25917">
        <ele>1792.03</ele>
        <time>2013-02-16T10:08:19Z</time>
      </trkpt>
      <trkpt lat="45.69342" lon="6.25919">
        <ele>1793</ele>
        <time>2013-02-16T10:08:22Z</time>
      </trkpt>
      <trkpt lat="45.69341" lon="6.2592">
        <ele>1789.63</ele>
        <time>2013-02-16T10:08:23Z</time>
      </trkpt>
      <trkpt lat="45.69341" lon="6.25922">
        <ele>1793.96</ele>
        <time>2013-02-16T10:08:24Z</time>
      </trkpt>
      <trkpt lat="45.69341" lon="6.25922">
        <ele>1794.44</ele>
        <time>2013-02-16T10:08:25Z</time>
      </trkpt>
      <trkpt lat="45.69341" lon="6.25923">
        <ele>1790.59</ele>
        <time>2013-02-16T10:08:26Z</time>
      </trkpt>
      <trkpt lat="45.69342" lon="6.25924">
        <ele>1793.48</ele>
        <time>2013-02-16T10:08:27Z</time>
      </trkpt>
      <trkpt lat="45.69341" lon="6.25927">
        <ele>1795.4</ele>
        <time>2013-02-16T10:08:30Z</time>
      </trkpt>
      <trkpt lat="45.69341" lon="6.25929">
        <ele>1795.4</ele>
        <time>2013-02-16T10:08:31Z</time>
      </trkpt>
      <trkpt lat="45.69342" lon="6.25929">
        <ele>1795.4</ele>
        <time>2013-02-16T10:08:32Z</time>
      </trkpt>
      <trkpt lat="45.69342" lon="6.2593">
        <ele>1792.03</ele>
        <time>2013-02-16T10:08:33Z</time>
      </trkpt>
      <trkpt lat="45.69342" lon="6.25932">
        <ele>1795.88</ele>
        <time>2013-02-16T10:08:34Z</time>
      </trkpt>
      <trkpt lat="45.69342" lon="6.25933">
        <ele>1795.88</ele>
        <time>2013-02-16T10:08:35Z</time>
      </trkpt>
      <trkpt lat="45.69343" lon="6.25933">
        <ele>1792.52</ele>
        <time>2013-02-16T10:08:36Z</time>
      </trkpt>
      <trkpt lat="45.69343" lon="6.25934">
        <ele>1795.88</ele>
        <time>2013-02-16T10:08:37Z</time>
      </trkpt>
      <trkpt lat="45.69343" lon="6.25935">
        <ele>1794.44</ele>
        <time>2013-02-16T10:08:38Z</time>
      </trkpt>
      <trkpt lat="45.69344" lon="6.25936">
        <ele>1791.55</ele>
        <time>2013-02-16T10:08:39Z</time>
      </trkpt>
      <trkpt lat="45.69344" lon="6.25936">
        <ele>1796.84</ele>
        <time>2013-02-16T10:08:40Z</time>
      </trkpt>
      <trkpt lat="45.69344" lon="6.25937">
        <ele>1792.52</ele>
        <time>2013-02-16T10:08:41Z</time>
      </trkpt>
      <trkpt lat="45.69344" lon="6.25938">
        <ele>1796.36</ele>
        <time>2013-02-16T10:08:42Z</time>
      </trkpt>
      <trkpt lat="45.69343" lon="6.25939">
        <ele>1794.92</ele>
        <time>2013-02-16T10:08:43Z</time>
      </trkpt>
      <trkpt lat="45.69343" lon="6.2594">
        <ele>1796.84</ele>
        <time>2013-02-16T10:08:45Z</time>
      </trkpt>
      <trkpt lat="45.69343" lon="6.2594">
        <ele>1794.92</ele>
        <time>2013-02-16T10:08:46Z</time>
      </trkpt>
      <trkpt lat="45.69343" lon="6.25941">
        <ele>1796.84</ele>
        <time>2013-02-16T10:08:47Z</time>
      </trkpt>
      <trkpt lat="45.69342" lon="6.25943">
        <ele>1798.28</ele>
        <time>2013-02-16T10:08:51Z</time>
      </trkpt>
      <trkpt lat="45.69342" lon="6.25943">
        <ele>1794.92</ele>
        <time>2013-02-16T10:08:52Z</time>
      </trkpt>
      <trkpt lat="45.69341" lon="6.25943">
        <ele>1798.28</ele>
        <time>2013-02-16T10:08:53Z</time>
      </trkpt>
      <trkpt lat="45.69341" lon="6.25942">
        <ele>1801.17</ele>
        <time>2013-02-16T10:08:54Z</time>
      </trkpt>
      <trkpt lat="45.6934" lon="6.25942">
        <ele>1800.69</ele>
        <time>2013-02-16T10:08:55Z</time>
      </trkpt>
      <trkpt lat="45.69339" lon="6.25942">
        <ele>1798.76</ele>
        <time>2013-02-16T10:08:57Z</time>
      </trkpt>
      <trkpt lat="45.69338" lon="6.25942">
        <ele>1797.32</ele>
        <time>2013-02-16T10:08:59Z</time>
      </trkpt>
      <trkpt lat="45.69337" lon="6.25941">
        <ele>1799.24</ele>
        <time>2013-02-16T10:09:00Z</time>
      </trkpt>
      <trkpt lat="45.69337" lon="6.25941">
        <ele>1797.8</ele>
        <time>2013-02-16T10:09:01Z</time>
      </trkpt>
      <trkpt lat="45.69336" lon="6.2594">
        <ele>1799.73</ele>
        <time>2013-02-16T10:09:02Z</time>
      </trkpt>
      <trkpt lat="45.69336" lon="6.2594">
        <ele>1798.28</ele>
        <time>2013-02-16T10:09:03Z</time>
      </trkpt>
      <trkpt lat="45.69335" lon="6.2594">
        <ele>1800.21</ele>
        <time>2013-02-16T10:09:04Z</time>
      </trkpt>
      <trkpt lat="45.69334" lon="6.2594">
        <ele>1798.28</ele>
        <time>2013-02-16T10:09:05Z</time>
      </trkpt>
      <trkpt lat="45.69334" lon="6.2594">
        <ele>1801.17</ele>
        <time>2013-02-16T10:09:06Z</time>
      </trkpt>
      <trkpt lat="45.69331" lon="6.25943">
        <ele>1799.24</ele>
        <time>2013-02-16T10:09:14Z</time>
      </trkpt>
      <trkpt lat="45.69332" lon="6.25944">
        <ele>1802.13</ele>
        <time>2013-02-16T10:09:15Z</time>
      </trkpt>
      <trkpt lat="45.69332" lon="6.25946">
        <ele>1800.69</ele>
        <time>2013-02-16T10:09:17Z</time>
      </trkpt>
      <trkpt lat="45.69332" lon="6.25947">
        <ele>1803.09</ele>
        <time>2013-02-16T10:09:19Z</time>
      </trkpt>
      <trkpt lat="45.69332" lon="6.25947">
        <ele>1800.21</ele>
        <time>2013-02-16T10:09:20Z</time>
      </trkpt>
      <trkpt lat="45.69332" lon="6.25948">
        <ele>1804.05</ele>
        <time>2013-02-16T10:09:21Z</time>
      </trkpt>
      <trkpt lat="45.69332" lon="6.25949">
        <ele>1800.69</ele>
        <time>2013-02-16T10:09:22Z</time>
      </trkpt>
      <trkpt lat="45.69332" lon="6.2595">
        <ele>1805.01</ele>
        <time>2013-02-16T10:09:23Z</time>
      </trkpt>
      <trkpt lat="45.69332" lon="6.25951">
        <ele>1800.69</ele>
        <time>2013-02-16T10:09:24Z</time>
      </trkpt>
      <trkpt lat="45.69332" lon="6.25952">
        <ele>1804.53</ele>
        <time>2013-02-16T10:09:25Z</time>
      </trkpt>
      <trkpt lat="45.69332" lon="6.25953">
        <ele>1801.65</ele>
        <time>2013-02-16T10:09:26Z</time>
      </trkpt>
      <trkpt lat="45.69332" lon="6.25954">
        <ele>1803.57</ele>
        <time>2013-02-16T10:09:27Z</time>
      </trkpt>
      <trkpt lat="45.69332" lon="6.25956">
        <ele>1800.21</ele>
        <time>2013-02-16T10:09:29Z</time>
      </trkpt>
      <trkpt lat="45.69332" lon="6.25957">
        <ele>1806.45</ele>
        <time>2013-02-16T10:09:30Z</time>
      </trkpt>
      <trkpt lat="45.69332" lon="6.25957">
        <ele>1800.69</ele>
        <time>2013-02-16T10:09:31Z</time>
      </trkpt>
      <trkpt lat="45.69332" lon="6.25958">
        <ele>1805.97</ele>
        <time>2013-02-16T10:09:32Z</time>
      </trkpt>
      <trkpt lat="45.69333" lon="6.25959">
        <ele>1803.09</ele>
        <time>2013-02-16T10:09:33Z</time>
      </trkpt>
      <trkpt lat="45.69333" lon="6.25961">
        <ele>1806.94</ele>
        <time>2013-02-16T10:09:35Z</time>
      </trkpt>
      <trkpt lat="45.69333" lon="6.25962">
        <ele>1801.65</ele>
        <time>2013-02-16T10:09:36Z</time>
      </trkpt>
      <trkpt lat="45.69333" lon="6.25963">
        <ele>1807.9</ele>
        <time>2013-02-16T10:09:37Z</time>
      </trkpt>
      <trkpt lat="45.69334" lon="6.25964">
        <ele>1803.57</ele>
        <time>2013-02-16T10:09:38Z</time>
      </trkpt>
      <trkpt lat="45.69334" lon="6.25967">
        <ele>1806.45</ele>
        <time>2013-02-16T10:09:41Z</time>
      </trkpt>
      <trkpt lat="45.69334" lon="6.25967">
        <ele>1804.05</ele>
        <time>2013-02-16T10:09:42Z</time>
      </trkpt>
      <trkpt lat="45.69334" lon="6.25968">
        <ele>1808.86</ele>
        <time>2013-02-16T10:09:43Z</time>
      </trkpt>
      <trkpt lat="45.69335" lon="6.25969">
        <ele>1804.05</ele>
        <time>2013-02-16T10:09:44Z</time>
      </trkpt>
      <trkpt lat="45.69334" lon="6.2597">
        <ele>1807.9</ele>
        <time>2013-02-16T10:09:45Z</time>
      </trkpt>
      <trkpt lat="45.69335" lon="6.25971">
        <ele>1805.97</ele>
        <time>2013-02-16T10:09:46Z</time>
      </trkpt>
      <trkpt lat="45.69335" lon="6.25971">
        <ele>1808.86</ele>
        <time>2013-02-16T10:09:47Z</time>
      </trkpt>
      <trkpt lat="45.69335" lon="6.25972">
        <ele>1809.34</ele>
        <time>2013-02-16T10:09:48Z</time>
      </trkpt>
      <trkpt lat="45.69335" lon="6.25973">
        <ele>1805.97</ele>
        <time>2013-02-16T10:09:49Z</time>
      </trkpt>
      <trkpt lat="45.69336" lon="6.25974">
        <ele>1807.9</ele>
        <time>2013-02-16T10:09:50Z</time>
      </trkpt>
      <trkpt lat="45.69336" lon="6.25976">
        <ele>1805.49</ele>
        <time>2013-02-16T10:09:52Z</time>
      </trkpt>
      <trkpt lat="45.69336" lon="6.25976">
        <ele>1810.78</ele>
        <time>2013-02-16T10:09:53Z</time>
      </trkpt>
      <trkpt lat="45.69336" lon="6.25977">
        <ele>1806.94</ele>
        <time>2013-02-16T10:09:54Z</time>
      </trkpt>
      <trkpt lat="45.69336" lon="6.2598">
        <ele>1808.86</ele>
        <time>2013-02-16T10:09:56Z</time>
      </trkpt>
      <trkpt lat="45.69337" lon="6.2598">
        <ele>1805.01</ele>
        <time>2013-02-16T10:09:57Z</time>
      </trkpt>
      <trkpt lat="45.69337" lon="6.25981">
        <ele>1810.78</ele>
        <time>2013-02-16T10:09:58Z</time>
      </trkpt>
      <trkpt lat="45.69336" lon="6.25982">
        <ele>1808.38</ele>
        <time>2013-02-16T10:09:59Z</time>
      </trkpt>
      <trkpt lat="45.69336" lon="6.25983">
        <ele>1810.3</ele>
        <time>2013-02-16T10:10:01Z</time>
      </trkpt>
      <trkpt lat="45.69336" lon="6.25982">
        <ele>1805.49</ele>
        <time>2013-02-16T10:10:03Z</time>
      </trkpt>
      <trkpt lat="45.69335" lon="6.25982">
        <ele>1811.74</ele>
        <time>2013-02-16T10:10:04Z</time>
      </trkpt>
      <trkpt lat="45.69335" lon="6.25982">
        <ele>1808.86</ele>
        <time>2013-02-16T10:10:05Z</time>
      </trkpt>
      <trkpt lat="45.69334" lon="6.25982">
        <ele>1810.78</ele>
        <time>2013-02-16T10:10:07Z</time>
      </trkpt>
      <trkpt lat="45.69332" lon="6.25981">
        <ele>1811.74</ele>
        <time>2013-02-16T10:10:11Z</time>
      </trkpt>
      <trkpt lat="45.69331" lon="6.25981">
        <ele>1809.82</ele>
        <time>2013-02-16T10:10:12Z</time>
      </trkpt>
      <trkpt lat="45.6933" lon="6.25981">
        <ele>1811.74</ele>
        <time>2013-02-16T10:10:13Z</time>
      </trkpt>
      <trkpt lat="45.6933" lon="6.2598">
        <ele>1809.82</ele>
        <time>2013-02-16T10:10:14Z</time>
      </trkpt>
      <trkpt lat="45.6933" lon="6.25981">
        <ele>1812.7</ele>
        <time>2013-02-16T10:10:15Z</time>
      </trkpt>
      <trkpt lat="45.69329" lon="6.25981">
        <ele>1812.22</ele>
        <time>2013-02-16T10:10:17Z</time>
      </trkpt>
      <trkpt lat="45.69328" lon="6.2598">
        <ele>1813.18</ele>
        <time>2013-02-16T10:10:19Z</time>
      </trkpt>
      <trkpt lat="45.69328" lon="6.2598">
        <ele>1811.74</ele>
        <time>2013-02-16T10:10:20Z</time>
      </trkpt>
      <trkpt lat="45.69327" lon="6.2598">
        <ele>1813.18</ele>
        <time>2013-02-16T10:10:21Z</time>
      </trkpt>
      <trkpt lat="45.69326" lon="6.25978">
        <ele>1812.22</ele>
        <time>2013-02-16T10:10:25Z</time>
      </trkpt>
      <trkpt lat="45.69326" lon="6.25978">
        <ele>1814.63</ele>
        <time>2013-02-16T10:10:26Z</time>
      </trkpt>
      <trkpt lat="45.69325" lon="6.25978">
        <ele>1812.22</ele>
        <time>2013-02-16T10:10:28Z</time>
      </trkpt>
      <trkpt lat="45.69324" lon="6.25978">
        <ele>1815.11</ele>
        <time>2013-02-16T10:10:29Z</time>
      </trkpt>
      <trkpt lat="45.69323" lon="6.25978">
        <ele>1812.7</ele>
        <time>2013-02-16T10:10:30Z</time>
      </trkpt>
      <trkpt lat="45.69323" lon="6.25978">
        <ele>1816.07</ele>
        <time>2013-02-16T10:10:31Z</time>
      </trkpt>
      <trkpt lat="45.69322" lon="6.25978">
        <ele>1812.7</ele>
        <time>2013-02-16T10:10:32Z</time>
      </trkpt>
      <trkpt lat="45.69322" lon="6.25977">
        <ele>1816.07</ele>
        <time>2013-02-16T10:10:33Z</time>
      </trkpt>
      <trkpt lat="45.69321" lon="6.25977">
        <ele>1812.7</ele>
        <time>2013-02-16T10:10:34Z</time>
      </trkpt>
      <trkpt lat="45.6932" lon="6.25977">
        <ele>1817.51</ele>
        <time>2013-02-16T10:10:35Z</time>
      </trkpt>
      <trkpt lat="45.69319" lon="6.25977">
        <ele>1811.74</ele>
        <time>2013-02-16T10:10:36Z</time>
      </trkpt>
      <trkpt lat="45.69319" lon="6.25976">
        <ele>1818.47</ele>
        <time>2013-02-16T10:10:37Z</time>
      </trkpt>
      <trkpt lat="45.69318" lon="6.25976">
        <ele>1815.11</ele>
        <time>2013-02-16T10:10:38Z</time>
      </trkpt>
      <trkpt lat="45.69319" lon="6.25977">
        <ele>1817.03</ele>
        <time>2013-02-16T10:10:39Z</time>
      </trkpt>
      <trkpt lat="45.69319" lon="6.25978">
        <ele>1813.18</ele>
        <time>2013-02-16T10:10:43Z</time>
      </trkpt>
      <trkpt lat="45.6932" lon="6.25978">
        <ele>1819.43</ele>
        <time>2013-02-16T10:10:44Z</time>
      </trkpt>
      <trkpt lat="45.6932" lon="6.25979">
        <ele>1815.11</ele>
        <time>2013-02-16T10:10:45Z</time>
      </trkpt>
      <trkpt lat="45.6932" lon="6.2598">
        <ele>1818.47</ele>
        <time>2013-02-16T10:10:46Z</time>
      </trkpt>
      <trkpt lat="45.6932" lon="6.25981">
        <ele>1814.15</ele>
        <time>2013-02-16T10:10:47Z</time>
      </trkpt>
      <trkpt lat="45.6932" lon="6.25982">
        <ele>1819.43</ele>
        <time>2013-02-16T10:10:48Z</time>
      </trkpt>
      <trkpt lat="45.6932" lon="6.25983">
        <ele>1816.07</ele>
        <time>2013-02-16T10:10:49Z</time>
      </trkpt>
      <trkpt lat="45.69321" lon="6.25984">
        <ele>1817.51</ele>
        <time>2013-02-16T10:10:50Z</time>
      </trkpt>
      <trkpt lat="45.69321" lon="6.25985">
        <ele>1816.07</ele>
        <time>2013-02-16T10:10:52Z</time>
      </trkpt>
      <trkpt lat="45.69321" lon="6.25986">
        <ele>1819.43</ele>
        <time>2013-02-16T10:10:53Z</time>
      </trkpt>
      <trkpt lat="45.69321" lon="6.25987">
        <ele>1819.43</ele>
        <time>2013-02-16T10:10:54Z</time>
      </trkpt>
      <trkpt lat="45.69321" lon="6.2599">
        <ele>1819.43</ele>
        <time>2013-02-16T10:10:57Z</time>
      </trkpt>
      <trkpt lat="45.69321" lon="6.25991">
        <ele>1816.07</ele>
        <time>2013-02-16T10:10:58Z</time>
      </trkpt>
      <trkpt lat="45.69321" lon="6.25992">
        <ele>1818.47</ele>
        <time>2013-02-16T10:10:59Z</time>
      </trkpt>
      <trkpt lat="45.69322" lon="6.25995">
        <ele>1820.39</ele>
        <time>2013-02-16T10:11:02Z</time>
      </trkpt>
      <trkpt lat="45.69322" lon="6.25996">
        <ele>1816.07</ele>
        <time>2013-02-16T10:11:03Z</time>
      </trkpt>
      <trkpt lat="45.69322" lon="6.25997">
        <ele>1819.43</ele>
        <time>2013-02-16T10:11:04Z</time>
      </trkpt>
      <trkpt lat="45.69322" lon="6.25999">
        <ele>1821.84</ele>
        <time>2013-02-16T10:11:07Z</time>
      </trkpt>
      <trkpt lat="45.69322" lon="6.26">
        <ele>1818.95</ele>
        <time>2013-02-16T10:11:08Z</time>
      </trkpt>
      <trkpt lat="45.69322" lon="6.26002">
        <ele>1821.35</ele>
        <time>2013-02-16T10:11:10Z</time>
      </trkpt>
      <trkpt lat="45.69322" lon="6.26003">
        <ele>1817.51</ele>
        <time>2013-02-16T10:11:11Z</time>
      </trkpt>
      <trkpt lat="45.69322" lon="6.26004">
        <ele>1822.8</ele>
        <time>2013-02-16T10:11:12Z</time>
      </trkpt>
      <trkpt lat="45.69322" lon="6.26004">
        <ele>1816.07</ele>
        <time>2013-02-16T10:11:13Z</time>
      </trkpt>
      <trkpt lat="45.69322" lon="6.26005">
        <ele>1823.76</ele>
        <time>2013-02-16T10:11:14Z</time>
      </trkpt>
      <trkpt lat="45.69322" lon="6.26004">
        <ele>1821.35</ele>
        <time>2013-02-16T10:11:15Z</time>
      </trkpt>
      <trkpt lat="45.69321" lon="6.26004">
        <ele>1819.43</ele>
        <time>2013-02-16T10:11:16Z</time>
      </trkpt>
      <trkpt lat="45.69321" lon="6.26005">
        <ele>1822.32</ele>
        <time>2013-02-16T10:11:17Z</time>
      </trkpt>
      <trkpt lat="45.6932" lon="6.26005">
        <ele>1819.43</ele>
        <time>2013-02-16T10:11:19Z</time>
      </trkpt>
      <trkpt lat="45.69319" lon="6.26005">
        <ele>1822.8</ele>
        <time>2013-02-16T10:11:20Z</time>
      </trkpt>
      <trkpt lat="45.69319" lon="6.26004">
        <ele>1822.32</ele>
        <time>2013-02-16T10:11:21Z</time>
      </trkpt>
      <trkpt lat="45.69318" lon="6.26004">
        <ele>1824.24</ele>
        <time>2013-02-16T10:11:22Z</time>
      </trkpt>
      <trkpt lat="45.69318" lon="6.26004">
        <ele>1824.24</ele>
        <time>2013-02-16T10:11:23Z</time>
      </trkpt>
      <trkpt lat="45.69318" lon="6.26003">
        <ele>1824.72</ele>
        <time>2013-02-16T10:11:24Z</time>
      </trkpt>
      <trkpt lat="45.69318" lon="6.26002">
        <ele>1823.76</ele>
        <time>2013-02-16T10:11:25Z</time>
      </trkpt>
      <trkpt lat="45.69317" lon="6.26002">
        <ele>1820.87</ele>
        <time>2013-02-16T10:11:26Z</time>
      </trkpt>
      <trkpt lat="45.69317" lon="6.26002">
        <ele>1823.28</ele>
        <time>2013-02-16T10:11:27Z</time>
      </trkpt>
      <trkpt lat="45.69316" lon="6.26002">
        <ele>1819.91</ele>
        <time>2013-02-16T10:11:28Z</time>
      </trkpt>
      <trkpt lat="45.69316" lon="6.26001">
        <ele>1824.72</ele>
        <time>2013-02-16T10:11:29Z</time>
      </trkpt>
      <trkpt lat="45.69316" lon="6.26001">
        <ele>1825.2</ele>
        <time>2013-02-16T10:11:30Z</time>
      </trkpt>
      <trkpt lat="45.69315" lon="6.26001">
        <ele>1824.72</ele>
        <time>2013-02-16T10:11:31Z</time>
      </trkpt>
      <trkpt lat="45.69315" lon="6.26">
        <ele>1825.2</ele>
        <time>2013-02-16T10:11:32Z</time>
      </trkpt>
      <trkpt lat="45.69314" lon="6.26001">
        <ele>1824.72</ele>
        <time>2013-02-16T10:11:33Z</time>
      </trkpt>
      <trkpt lat="45.69314" lon="6.26">
        <ele>1821.35</ele>
        <time>2013-02-16T10:11:34Z</time>
      </trkpt>
      <trkpt lat="45.69314" lon="6.26">
        <ele>1825.68</ele>
        <time>2013-02-16T10:11:35Z</time>
      </trkpt>
      <trkpt lat="45.69314" lon="6.26">
        <ele>1822.32</ele>
        <time>2013-02-16T10:11:36Z</time>
      </trkpt>
      <trkpt lat="45.69313" lon="6.26">
        <ele>1825.68</ele>
        <time>2013-02-16T10:11:37Z</time>
      </trkpt>
      <trkpt lat="45.69313" lon="6.25999">
        <ele>1822.32</ele>
        <time>2013-02-16T10:11:38Z</time>
      </trkpt>
      <trkpt lat="45.69312" lon="6.25999">
        <ele>1825.68</ele>
        <time>2013-02-16T10:11:39Z</time>
      </trkpt>
      <trkpt lat="45.69312" lon="6.25999">
        <ele>1823.28</ele>
        <time>2013-02-16T10:11:40Z</time>
      </trkpt>
      <trkpt lat="45.69311" lon="6.25999">
        <ele>1826.16</ele>
        <time>2013-02-16T10:11:41Z</time>
      </trkpt>
      <trkpt lat="45.69311" lon="6.26">
        <ele>1823.28</ele>
        <time>2013-02-16T10:11:42Z</time>
      </trkpt>
      <trkpt lat="45.6931" lon="6.25999">
        <ele>1827.6</ele>
        <time>2013-02-16T10:11:43Z</time>
      </trkpt>
      <trkpt lat="45.6931" lon="6.26">
        <ele>1823.28</ele>
        <time>2013-02-16T10:11:44Z</time>
      </trkpt>
      <trkpt lat="45.69309" lon="6.26">
        <ele>1827.6</ele>
        <time>2013-02-16T10:11:45Z</time>
      </trkpt>
      <trkpt lat="45.69309" lon="6.26">
        <ele>1823.28</ele>
        <time>2013-02-16T10:11:46Z</time>
      </trkpt>
      <trkpt lat="45.69308" lon="6.25999">
        <ele>1829.53</ele>
        <time>2013-02-16T10:11:47Z</time>
      </trkpt>
      <trkpt lat="45.69308" lon="6.25999">
        <ele>1824.24</ele>
        <time>2013-02-16T10:11:48Z</time>
      </trkpt>
      <trkpt lat="45.69307" lon="6.25999">
        <ele>1829.53</ele>
        <time>2013-02-16T10:11:49Z</time>
      </trkpt>
      <trkpt lat="45.69306" lon="6.25999">
        <ele>1825.68</ele>
        <time>2013-02-16T10:11:51Z</time>
      </trkpt>
      <trkpt lat="45.69304" lon="6.25998">
        <ele>1827.12</ele>
        <time>2013-02-16T10:11:56Z</time>
      </trkpt>
      <trkpt lat="45.69304" lon="6.25998">
        <ele>1829.05</ele>
        <time>2013-02-16T10:11:57Z</time>
      </trkpt>
      <trkpt lat="45.69303" lon="6.25998">
        <ele>1826.16</ele>
        <time>2013-02-16T10:11:58Z</time>
      </trkpt>
      <trkpt lat="45.69303" lon="6.25998">
        <ele>1830.97</ele>
        <time>2013-02-16T10:11:59Z</time>
      </trkpt>
      <trkpt lat="45.69302" lon="6.25998">
        <ele>1827.12</ele>
        <time>2013-02-16T10:12:00Z</time>
      </trkpt>
      <trkpt lat="45.69302" lon="6.25997">
        <ele>1830.97</ele>
        <time>2013-02-16T10:12:01Z</time>
      </trkpt>
      <trkpt lat="45.693" lon="6.25997">
        <ele>1830.97</ele>
        <time>2013-02-16T10:12:04Z</time>
      </trkpt>
      <trkpt lat="45.69299" lon="6.26002">
        <ele>1828.56</ele>
        <time>2013-02-16T10:12:12Z</time>
      </trkpt>
      <trkpt lat="45.693" lon="6.26003">
        <ele>1831.93</ele>
        <time>2013-02-16T10:12:13Z</time>
      </trkpt>
      <trkpt lat="45.693" lon="6.26004">
        <ele>1830.49</ele>
        <time>2013-02-16T10:12:14Z</time>
      </trkpt>
      <trkpt lat="45.693" lon="6.26004">
        <ele>1831.93</ele>
        <time>2013-02-16T10:12:15Z</time>
      </trkpt>
      <trkpt lat="45.693" lon="6.26006">
        <ele>1830.49</ele>
        <time>2013-02-16T10:12:19Z</time>
      </trkpt>
      <trkpt lat="45.693" lon="6.26006">
        <ele>1831.93</ele>
        <time>2013-02-16T10:12:20Z</time>
      </trkpt>
      <trkpt lat="45.693" lon="6.26006">
        <ele>1829.53</ele>
        <time>2013-02-16T10:12:26Z</time>
      </trkpt>
      <trkpt lat="45.693" lon="6.26007">
        <ele>1833.37</ele>
        <time>2013-02-16T10:12:27Z</time>
      </trkpt>
      <trkpt lat="45.69301" lon="6.26008">
        <ele>1829.53</ele>
        <time>2013-02-16T10:12:28Z</time>
      </trkpt>
      <trkpt lat="45.693" lon="6.26009">
        <ele>1833.37</ele>
        <time>2013-02-16T10:12:29Z</time>
      </trkpt>
      <trkpt lat="45.693" lon="6.26009">
        <ele>1830.97</ele>
        <time>2013-02-16T10:12:30Z</time>
      </trkpt>
      <trkpt lat="45.693" lon="6.26011">
        <ele>1834.81</ele>
        <time>2013-02-16T10:12:32Z</time>
      </trkpt>
      <trkpt lat="45.69301" lon="6.26012">
        <ele>1834.33</ele>
        <time>2013-02-16T10:12:33Z</time>
      </trkpt>
      <trkpt lat="45.69301" lon="6.26013">
        <ele>1830.49</ele>
        <time>2013-02-16T10:12:34Z</time>
      </trkpt>
      <trkpt lat="45.69301" lon="6.26014">
        <ele>1831.93</ele>
        <time>2013-02-16T10:12:35Z</time>
      </trkpt>
      <trkpt lat="45.69301" lon="6.26015">
        <ele>1833.85</ele>
        <time>2013-02-16T10:12:36Z</time>
      </trkpt>
      <trkpt lat="45.69301" lon="6.26016">
        <ele>1830.49</ele>
        <time>2013-02-16T10:12:37Z</time>
      </trkpt>
      <trkpt lat="45.69301" lon="6.26017">
        <ele>1833.85</ele>
        <time>2013-02-16T10:12:38Z</time>
      </trkpt>
      <trkpt lat="45.69301" lon="6.26018">
        <ele>1830.49</ele>
        <time>2013-02-16T10:12:40Z</time>
      </trkpt>
      <trkpt lat="45.69301" lon="6.26019">
        <ele>1835.29</ele>
        <time>2013-02-16T10:12:41Z</time>
      </trkpt>
      <trkpt lat="45.69301" lon="6.2602">
        <ele>1830.01</ele>
        <time>2013-02-16T10:12:42Z</time>
      </trkpt>
      <trkpt lat="45.69301" lon="6.2602">
        <ele>1836.26</ele>
        <time>2013-02-16T10:12:43Z</time>
      </trkpt>
      <trkpt lat="45.69301" lon="6.2602">
        <ele>1830.01</ele>
        <time>2013-02-16T10:12:44Z</time>
      </trkpt>
      <trkpt lat="45.693" lon="6.2602">
        <ele>1836.26</ele>
        <time>2013-02-16T10:12:45Z</time>
      </trkpt>
      <trkpt lat="45.693" lon="6.2602">
        <ele>1834.81</ele>
        <time>2013-02-16T10:12:46Z</time>
      </trkpt>
      <trkpt lat="45.693" lon="6.2602">
        <ele>1832.89</ele>
        <time>2013-02-16T10:12:47Z</time>
      </trkpt>
      <trkpt lat="45.69297" lon="6.26018">
        <ele>1836.26</ele>
        <time>2013-02-16T10:12:52Z</time>
      </trkpt>
      <trkpt lat="45.69297" lon="6.26018">
        <ele>1833.37</ele>
        <time>2013-02-16T10:12:53Z</time>
      </trkpt>
      <trkpt lat="45.69296" lon="6.26018">
        <ele>1836.26</ele>
        <time>2013-02-16T10:12:54Z</time>
      </trkpt>
      <trkpt lat="45.69295" lon="6.26017">
        <ele>1833.85</ele>
        <time>2013-02-16T10:12:56Z</time>
      </trkpt>
      <trkpt lat="45.69294" lon="6.26017">
        <ele>1837.22</ele>
        <time>2013-02-16T10:12:57Z</time>
      </trkpt>
      <trkpt lat="45.69292" lon="6.26015">
        <ele>1837.22</ele>
        <time>2013-02-16T10:13:01Z</time>
      </trkpt>
      <trkpt lat="45.69291" lon="6.26014">
        <ele>1836.26</ele>
        <time>2013-02-16T10:13:02Z</time>
      </trkpt>
      <trkpt lat="45.69291" lon="6.26014">
        <ele>1837.7</ele>
        <time>2013-02-16T10:13:03Z</time>
      </trkpt>
      <trkpt lat="45.6929" lon="6.26014">
        <ele>1835.77</ele>
        <time>2013-02-16T10:13:04Z</time>
      </trkpt>
      <trkpt lat="45.69291" lon="6.26015">
        <ele>1837.22</ele>
        <time>2013-02-16T10:13:05Z</time>
      </trkpt>
      <trkpt lat="45.6929" lon="6.26016">
        <ele>1832.41</ele>
        <time>2013-02-16T10:13:09Z</time>
      </trkpt>
      <trkpt lat="45.6929" lon="6.26017">
        <ele>1840.58</ele>
        <time>2013-02-16T10:13:10Z</time>
      </trkpt>
      <trkpt lat="45.6929" lon="6.26018">
        <ele>1836.74</ele>
        <time>2013-02-16T10:13:11Z</time>
      </trkpt>
      <trkpt lat="45.6929" lon="6.26019">
        <ele>1839.62</ele>
        <time>2013-02-16T10:13:12Z</time>
      </trkpt>
      <trkpt lat="45.6929" lon="6.26029">
        <ele>1841.06</ele>
        <time>2013-02-16T10:13:27Z</time>
      </trkpt>
      <trkpt lat="45.69289" lon="6.26029">
        <ele>1841.54</ele>
        <time>2013-02-16T10:13:30Z</time>
      </trkpt>
      <trkpt lat="45.69279" lon="6.26021">
        <ele>1843.47</ele>
        <time>2013-02-16T10:13:44Z</time>
      </trkpt>
      <trkpt lat="45.69279" lon="6.26029">
        <ele>1843.95</ele>
        <time>2013-02-16T10:13:57Z</time>
      </trkpt>
      <trkpt lat="45.69279" lon="6.26031">
        <ele>1847.31</ele>
        <time>2013-02-16T10:13:59Z</time>
      </trkpt>
      <trkpt lat="45.69279" lon="6.26032">
        <ele>1842.98</ele>
        <time>2013-02-16T10:14:00Z</time>
      </trkpt>
      <trkpt lat="45.6928" lon="6.26033">
        <ele>1849.23</ele>
        <time>2013-02-16T10:14:01Z</time>
      </trkpt>
      <trkpt lat="45.6928" lon="6.26034">
        <ele>1843.47</ele>
        <time>2013-02-16T10:14:02Z</time>
      </trkpt>
      <trkpt lat="45.6928" lon="6.26034">
        <ele>1848.75</ele>
        <time>2013-02-16T10:14:03Z</time>
      </trkpt>
      <trkpt lat="45.6928" lon="6.26035">
        <ele>1843.95</ele>
        <time>2013-02-16T10:14:04Z</time>
      </trkpt>
      <trkpt lat="45.69281" lon="6.26036">
        <ele>1848.75</ele>
        <time>2013-02-16T10:14:05Z</time>
      </trkpt>
      <trkpt lat="45.69281" lon="6.26036">
        <ele>1844.43</ele>
        <time>2013-02-16T10:14:06Z</time>
      </trkpt>
      <trkpt lat="45.69281" lon="6.26037">
        <ele>1847.79</ele>
        <time>2013-02-16T10:14:07Z</time>
      </trkpt>
      <trkpt lat="45.69275" lon="6.26034">
        <ele>1848.75</ele>
        <time>2013-02-16T10:14:19Z</time>
      </trkpt>
      <trkpt lat="45.69274" lon="6.26031">
        <ele>1850.19</ele>
        <time>2013-02-16T10:14:22Z</time>
      </trkpt>
      <trkpt lat="45.69273" lon="6.26031">
        <ele>1847.79</ele>
        <time>2013-02-16T10:14:23Z</time>
      </trkpt>
      <trkpt lat="45.69272" lon="6.2603">
        <ele>1850.68</ele>
        <time>2013-02-16T10:14:24Z</time>
      </trkpt>
      <trkpt lat="45.69272" lon="6.26029">
        <ele>1848.75</ele>
        <time>2013-02-16T10:14:25Z</time>
      </trkpt>
      <trkpt lat="45.69271" lon="6.26029">
        <ele>1850.19</ele>
        <time>2013-02-16T10:14:26Z</time>
      </trkpt>
      <trkpt lat="45.69271" lon="6.26029">
        <ele>1851.16</ele>
        <time>2013-02-16T10:14:32Z</time>
      </trkpt>
      <trkpt lat="45.69271" lon="6.2603">
        <ele>1844.91</ele>
        <time>2013-02-16T10:14:35Z</time>
      </trkpt>
      <trkpt lat="45.69271" lon="6.26031">
        <ele>1855.96</ele>
        <time>2013-02-16T10:14:36Z</time>
      </trkpt>
      <trkpt lat="45.69271" lon="6.26032">
        <ele>1849.71</ele>
        <time>2013-02-16T10:14:37Z</time>
      </trkpt>
      <trkpt lat="45.69271" lon="6.26033">
        <ele>1853.08</ele>
        <time>2013-02-16T10:14:38Z</time>
      </trkpt>
      <trkpt lat="45.69271" lon="6.26034">
        <ele>1853.08</ele>
        <time>2013-02-16T10:14:39Z</time>
      </trkpt>
      <trkpt lat="45.69271" lon="6.26035">
        <ele>1850.19</ele>
        <time>2013-02-16T10:14:40Z</time>
      </trkpt>
      <trkpt lat="45.69271" lon="6.26036">
        <ele>1852.6</ele>
        <time>2013-02-16T10:14:41Z</time>
      </trkpt>
      <trkpt lat="45.69271" lon="6.26037">
        <ele>1849.23</ele>
        <time>2013-02-16T10:14:42Z</time>
      </trkpt>
      <trkpt lat="45.69271" lon="6.26038">
        <ele>1849.23</ele>
        <time>2013-02-16T10:14:43Z</time>
      </trkpt>
      <trkpt lat="45.69271" lon="6.26039">
        <ele>1853.56</ele>
        <time>2013-02-16T10:14:44Z</time>
      </trkpt>
      <trkpt lat="45.69271" lon="6.2604">
        <ele>1849.71</ele>
        <time>2013-02-16T10:14:45Z</time>
      </trkpt>
      <trkpt lat="45.69271" lon="6.26041">
        <ele>1853.56</ele>
        <time>2013-02-16T10:14:46Z</time>
      </trkpt>
      <trkpt lat="45.69271" lon="6.26043">
        <ele>1851.64</ele>
        <time>2013-02-16T10:14:47Z</time>
      </trkpt>
      <trkpt lat="45.69272" lon="6.26045">
        <ele>1854.04</ele>
        <time>2013-02-16T10:14:49Z</time>
      </trkpt>
      <trkpt lat="45.69272" lon="6.26046">
        <ele>1850.68</ele>
        <time>2013-02-16T10:14:50Z</time>
      </trkpt>
      <trkpt lat="45.69272" lon="6.26047">
        <ele>1855.96</ele>
        <time>2013-02-16T10:14:51Z</time>
      </trkpt>
      <trkpt lat="45.69272" lon="6.26047">
        <ele>1852.12</ele>
        <time>2013-02-16T10:14:52Z</time>
      </trkpt>
      <trkpt lat="45.69271" lon="6.26047">
        <ele>1853.56</ele>
        <time>2013-02-16T10:14:53Z</time>
      </trkpt>
      <trkpt lat="45.6927" lon="6.26046">
        <ele>1852.6</ele>
        <time>2013-02-16T10:14:55Z</time>
      </trkpt>
      <trkpt lat="45.6927" lon="6.26046">
        <ele>1855.48</ele>
        <time>2013-02-16T10:14:56Z</time>
      </trkpt>
      <trkpt lat="45.69267" lon="6.26044">
        <ele>1856.44</ele>
        <time>2013-02-16T10:14:59Z</time>
      </trkpt>
      <trkpt lat="45.69266" lon="6.26043">
        <ele>1854.04</ele>
        <time>2013-02-16T10:15:00Z</time>
      </trkpt>
      <trkpt lat="45.69266" lon="6.26042">
        <ele>1856.44</ele>
        <time>2013-02-16T10:15:01Z</time>
      </trkpt>
      <trkpt lat="45.69266" lon="6.26042">
        <ele>1855</ele>
        <time>2013-02-16T10:15:02Z</time>
      </trkpt>
      <trkpt lat="45.69264" lon="6.26041">
        <ele>1857.4</ele>
        <time>2013-02-16T10:15:05Z</time>
      </trkpt>
      <trkpt lat="45.69263" lon="6.2604">
        <ele>1855</ele>
        <time>2013-02-16T10:15:06Z</time>
      </trkpt>
      <trkpt lat="45.69262" lon="6.2604">
        <ele>1857.4</ele>
        <time>2013-02-16T10:15:07Z</time>
      </trkpt>
      <trkpt lat="45.69262" lon="6.26039">
        <ele>1855.96</ele>
        <time>2013-02-16T10:15:08Z</time>
      </trkpt>
      <trkpt lat="45.69261" lon="6.26039">
        <ele>1858.37</ele>
        <time>2013-02-16T10:15:10Z</time>
      </trkpt>
      <trkpt lat="45.6926" lon="6.2604">
        <ele>1855.96</ele>
        <time>2013-02-16T10:15:13Z</time>
      </trkpt>
      <trkpt lat="45.69261" lon="6.26041">
        <ele>1858.85</ele>
        <time>2013-02-16T10:15:14Z</time>
      </trkpt>
      <trkpt lat="45.69262" lon="6.26044">
        <ele>1855.96</ele>
        <time>2013-02-16T10:15:17Z</time>
      </trkpt>
      <trkpt lat="45.69262" lon="6.26045">
        <ele>1859.33</ele>
        <time>2013-02-16T10:15:18Z</time>
      </trkpt>
      <trkpt lat="45.69262" lon="6.26046">
        <ele>1856.44</ele>
        <time>2013-02-16T10:15:19Z</time>
      </trkpt>
      <trkpt lat="45.69262" lon="6.26047">
        <ele>1859.33</ele>
        <time>2013-02-16T10:15:20Z</time>
      </trkpt>
      <trkpt lat="45.69262" lon="6.2605">
        <ele>1861.25</ele>
        <time>2013-02-16T10:15:23Z</time>
      </trkpt>
      <trkpt lat="45.69262" lon="6.26051">
        <ele>1857.89</ele>
        <time>2013-02-16T10:15:24Z</time>
      </trkpt>
      <trkpt lat="45.69262" lon="6.26052">
        <ele>1861.25</ele>
        <time>2013-02-16T10:15:25Z</time>
      </trkpt>
      <trkpt lat="45.69262" lon="6.26053">
        <ele>1858.85</ele>
        <time>2013-02-16T10:15:26Z</time>
      </trkpt>
      <trkpt lat="45.69262" lon="6.26054">
        <ele>1860.77</ele>
        <time>2013-02-16T10:15:27Z</time>
      </trkpt>
      <trkpt lat="45.69262" lon="6.26057">
        <ele>1862.21</ele>
        <time>2013-02-16T10:15:31Z</time>
      </trkpt>
      <trkpt lat="45.69261" lon="6.26056">
        <ele>1860.77</ele>
        <time>2013-02-16T10:15:32Z</time>
      </trkpt>
      <trkpt lat="45.69259" lon="6.26054">
        <ele>1862.21</ele>
        <time>2013-02-16T10:15:36Z</time>
      </trkpt>
      <trkpt lat="45.69258" lon="6.26054">
        <ele>1860.29</ele>
        <time>2013-02-16T10:15:37Z</time>
      </trkpt>
      <trkpt lat="45.69256" lon="6.26053">
        <ele>1863.65</ele>
        <time>2013-02-16T10:15:40Z</time>
      </trkpt>
      <trkpt lat="45.69255" lon="6.26052">
        <ele>1863.17</ele>
        <time>2013-02-16T10:15:41Z</time>
      </trkpt>
      <trkpt lat="45.69255" lon="6.26052">
        <ele>1861.25</ele>
        <time>2013-02-16T10:15:42Z</time>
      </trkpt>
      <trkpt lat="45.69255" lon="6.26052">
        <ele>1864.13</ele>
        <time>2013-02-16T10:15:43Z</time>
      </trkpt>
      <trkpt lat="45.69254" lon="6.26052">
        <ele>1860.29</ele>
        <time>2013-02-16T10:15:44Z</time>
      </trkpt>
      <trkpt lat="45.69254" lon="6.26052">
        <ele>1864.13</ele>
        <time>2013-02-16T10:15:45Z</time>
      </trkpt>
      <trkpt lat="45.69253" lon="6.26051">
        <ele>1860.77</ele>
        <time>2013-02-16T10:15:46Z</time>
      </trkpt>
      <trkpt lat="45.69253" lon="6.26051">
        <ele>1864.13</ele>
        <time>2013-02-16T10:15:47Z</time>
      </trkpt>
      <trkpt lat="45.69252" lon="6.26051">
        <ele>1861.73</ele>
        <time>2013-02-16T10:15:48Z</time>
      </trkpt>
      <trkpt lat="45.69251" lon="6.26049">
        <ele>1866.54</ele>
        <time>2013-02-16T10:15:51Z</time>
      </trkpt>
      <trkpt lat="45.6925" lon="6.26048">
        <ele>1862.69</ele>
        <time>2013-02-16T10:15:52Z</time>
      </trkpt>
      <trkpt lat="45.69249" lon="6.26048">
        <ele>1866.54</ele>
        <time>2013-02-16T10:15:53Z</time>
      </trkpt>
      <trkpt lat="45.69249" lon="6.26049">
        <ele>1861.25</ele>
        <time>2013-02-16T10:15:55Z</time>
      </trkpt>
      <trkpt lat="45.69249" lon="6.26052">
        <ele>1867.02</ele>
        <time>2013-02-16T10:15:57Z</time>
      </trkpt>
      <trkpt lat="45.69249" lon="6.26054">
        <ele>1862.69</ele>
        <time>2013-02-16T10:15:58Z</time>
      </trkpt>
      <trkpt lat="45.69249" lon="6.26055">
        <ele>1866.06</ele>
        <time>2013-02-16T10:15:59Z</time>
      </trkpt>
      <trkpt lat="45.69251" lon="6.26066">
        <ele>1862.21</ele>
        <time>2013-02-16T10:16:10Z</time>
      </trkpt>
      <trkpt lat="45.69251" lon="6.26067">
        <ele>1870.38</ele>
        <time>2013-02-16T10:16:11Z</time>
      </trkpt>
      <trkpt lat="45.69252" lon="6.26068">
        <ele>1864.61</ele>
        <time>2013-02-16T10:16:12Z</time>
      </trkpt>
      <trkpt lat="45.69252" lon="6.26069">
        <ele>1870.38</ele>
        <time>2013-02-16T10:16:13Z</time>
      </trkpt>
      <trkpt lat="45.69252" lon="6.2607">
        <ele>1863.65</ele>
        <time>2013-02-16T10:16:14Z</time>
      </trkpt>
      <trkpt lat="45.69252" lon="6.26071">
        <ele>1871.82</ele>
        <time>2013-02-16T10:16:15Z</time>
      </trkpt>
      <trkpt lat="45.69252" lon="6.26072">
        <ele>1865.09</ele>
        <time>2013-02-16T10:16:16Z</time>
      </trkpt>
      <trkpt lat="45.69253" lon="6.26072">
        <ele>1870.38</ele>
        <time>2013-02-16T10:16:17Z</time>
      </trkpt>
      <trkpt lat="45.69253" lon="6.26073">
        <ele>1865.09</ele>
        <time>2013-02-16T10:16:18Z</time>
      </trkpt>
      <trkpt lat="45.69253" lon="6.26074">
        <ele>1871.82</ele>
        <time>2013-02-16T10:16:19Z</time>
      </trkpt>
      <trkpt lat="45.69253" lon="6.26075">
        <ele>1866.54</ele>
        <time>2013-02-16T10:16:20Z</time>
      </trkpt>
      <trkpt lat="45.69253" lon="6.26076">
        <ele>1872.3</ele>
        <time>2013-02-16T10:16:22Z</time>
      </trkpt>
      <trkpt lat="45.69253" lon="6.26077">
        <ele>1866.54</ele>
        <time>2013-02-16T10:16:23Z</time>
      </trkpt>
      <trkpt lat="45.69254" lon="6.26077">
        <ele>1871.34</ele>
        <time>2013-02-16T10:16:24Z</time>
      </trkpt>
      <trkpt lat="45.69254" lon="6.26078">
        <ele>1868.46</ele>
        <time>2013-02-16T10:16:25Z</time>
      </trkpt>
      <trkpt lat="45.69255" lon="6.2608">
        <ele>1874.23</ele>
        <time>2013-02-16T10:16:28Z</time>
      </trkpt>
      <trkpt lat="45.69255" lon="6.26081">
        <ele>1867.5</ele>
        <time>2013-02-16T10:16:29Z</time>
      </trkpt>
      <trkpt lat="45.69255" lon="6.26081">
        <ele>1873.27</ele>
        <time>2013-02-16T10:16:30Z</time>
      </trkpt>
      <trkpt lat="45.69255" lon="6.26082">
        <ele>1867.98</ele>
        <time>2013-02-16T10:16:31Z</time>
      </trkpt>
      <trkpt lat="45.69255" lon="6.26083">
        <ele>1871.34</ele>
        <time>2013-02-16T10:16:32Z</time>
      </trkpt>
      <trkpt lat="45.69258" lon="6.26088">
        <ele>1875.19</ele>
        <time>2013-02-16T10:16:45Z</time>
      </trkpt>
      <trkpt lat="45.69258" lon="6.26088">
        <ele>1875.19</ele>
        <time>2013-02-16T10:16:46Z</time>
      </trkpt>
      <trkpt lat="45.69258" lon="6.26089">
        <ele>1867.98</ele>
        <time>2013-02-16T10:16:48Z</time>
      </trkpt>
      <trkpt lat="45.69259" lon="6.26089">
        <ele>1875.67</ele>
        <time>2013-02-16T10:16:49Z</time>
      </trkpt>
      <trkpt lat="45.69259" lon="6.2609">
        <ele>1870.86</ele>
        <time>2013-02-16T10:16:50Z</time>
      </trkpt>
      <trkpt lat="45.69259" lon="6.2609">
        <ele>1874.71</ele>
        <time>2013-02-16T10:16:51Z</time>
      </trkpt>
      <trkpt lat="45.6926" lon="6.26091">
        <ele>1869.42</ele>
        <time>2013-02-16T10:16:52Z</time>
      </trkpt>
      <trkpt lat="45.6926" lon="6.26091">
        <ele>1876.15</ele>
        <time>2013-02-16T10:16:53Z</time>
      </trkpt>
      <trkpt lat="45.6926" lon="6.26092">
        <ele>1872.79</ele>
        <time>2013-02-16T10:16:54Z</time>
      </trkpt>
      <trkpt lat="45.69262" lon="6.26094">
        <ele>1876.15</ele>
        <time>2013-02-16T10:16:57Z</time>
      </trkpt>
      <trkpt lat="45.69262" lon="6.26094">
        <ele>1875.19</ele>
        <time>2013-02-16T10:16:58Z</time>
      </trkpt>
      <trkpt lat="45.69262" lon="6.26094">
        <ele>1871.34</ele>
        <time>2013-02-16T10:16:59Z</time>
      </trkpt>
      <trkpt lat="45.69262" lon="6.26094">
        <ele>1875.67</ele>
        <time>2013-02-16T10:17:00Z</time>
      </trkpt>
      <trkpt lat="45.69262" lon="6.26095">
        <ele>1870.86</ele>
        <time>2013-02-16T10:17:01Z</time>
      </trkpt>
      <trkpt lat="45.69263" lon="6.26096">
        <ele>1878.55</ele>
        <time>2013-02-16T10:17:02Z</time>
      </trkpt>
      <trkpt lat="45.69263" lon="6.26096">
        <ele>1871.34</ele>
        <time>2013-02-16T10:17:03Z</time>
      </trkpt>
      <trkpt lat="45.69263" lon="6.26097">
        <ele>1877.59</ele>
        <time>2013-02-16T10:17:04Z</time>
      </trkpt>
      <trkpt lat="45.69264" lon="6.26098">
        <ele>1872.3</ele>
        <time>2013-02-16T10:17:05Z</time>
      </trkpt>
      <trkpt lat="45.69264" lon="6.26098">
        <ele>1876.63</ele>
        <time>2013-02-16T10:17:06Z</time>
      </trkpt>
      <trkpt lat="45.69264" lon="6.26099">
        <ele>1874.71</ele>
        <time>2013-02-16T10:17:07Z</time>
      </trkpt>
      <trkpt lat="45.69265" lon="6.261">
        <ele>1876.15</ele>
        <time>2013-02-16T10:17:09Z</time>
      </trkpt>
      <trkpt lat="45.69265" lon="6.26101">
        <ele>1871.82</ele>
        <time>2013-02-16T10:17:10Z</time>
      </trkpt>
      <trkpt lat="45.69265" lon="6.26102">
        <ele>1877.11</ele>
        <time>2013-02-16T10:17:11Z</time>
      </trkpt>
      <trkpt lat="45.69265" lon="6.26102">
        <ele>1870.38</ele>
        <time>2013-02-16T10:17:12Z</time>
      </trkpt>
      <trkpt lat="45.69265" lon="6.26103">
        <ele>1880.48</ele>
        <time>2013-02-16T10:17:13Z</time>
      </trkpt>
      <trkpt lat="45.69266" lon="6.26104">
        <ele>1874.71</ele>
        <time>2013-02-16T10:17:14Z</time>
      </trkpt>
      <trkpt lat="45.69266" lon="6.26105">
        <ele>1877.11</ele>
        <time>2013-02-16T10:17:15Z</time>
      </trkpt>
      <trkpt lat="45.6927" lon="6.26115">
        <ele>1879.51</ele>
        <time>2013-02-16T10:17:28Z</time>
      </trkpt>
      <trkpt lat="45.69271" lon="6.26115">
        <ele>1879.51</ele>
        <time>2013-02-16T10:17:29Z</time>
      </trkpt>
      <trkpt lat="45.69271" lon="6.26115">
        <ele>1877.11</ele>
        <time>2013-02-16T10:17:30Z</time>
      </trkpt>
      <trkpt lat="45.69271" lon="6.26116">
        <ele>1879.51</ele>
        <time>2013-02-16T10:17:31Z</time>
      </trkpt>
      <trkpt lat="45.69271" lon="6.26118">
        <ele>1877.11</ele>
        <time>2013-02-16T10:17:35Z</time>
      </trkpt>
      <trkpt lat="45.69272" lon="6.26119">
        <ele>1881.44</ele>
        <time>2013-02-16T10:17:36Z</time>
      </trkpt>
      <trkpt lat="45.69272" lon="6.2612">
        <ele>1876.63</ele>
        <time>2013-02-16T10:17:37Z</time>
      </trkpt>
      <trkpt lat="45.69272" lon="6.2612">
        <ele>1880.48</ele>
        <time>2013-02-16T10:17:38Z</time>
      </trkpt>
      <trkpt lat="45.69272" lon="6.2612">
        <ele>1878.07</ele>
        <time>2013-02-16T10:17:40Z</time>
      </trkpt>
      <trkpt lat="45.69272" lon="6.2612">
        <ele>1881.44</ele>
        <time>2013-02-16T10:17:41Z</time>
      </trkpt>
      <trkpt lat="45.69272" lon="6.2612">
        <ele>1877.59</ele>
        <time>2013-02-16T10:17:44Z</time>
      </trkpt>
      <trkpt lat="45.69271" lon="6.26119">
        <ele>1877.59</ele>
        <time>2013-02-16T10:17:45Z</time>
      </trkpt>
      <trkpt lat="45.6927" lon="6.26119">
        <ele>1882.88</ele>
        <time>2013-02-16T10:17:46Z</time>
      </trkpt>
      <trkpt lat="45.6927" lon="6.26119">
        <ele>1880</ele>
        <time>2013-02-16T10:17:47Z</time>
      </trkpt>
      <trkpt lat="45.69269" lon="6.26119">
        <ele>1882.4</ele>
        <time>2013-02-16T10:17:48Z</time>
      </trkpt>
      <trkpt lat="45.69268" lon="6.26118">
        <ele>1880.96</ele>
        <time>2013-02-16T10:17:49Z</time>
      </trkpt>
      <trkpt lat="45.69263" lon="6.26113">
        <ele>1881.44</ele>
        <time>2013-02-16T10:17:58Z</time>
      </trkpt>
      <trkpt lat="45.69262" lon="6.26113">
        <ele>1886.24</ele>
        <time>2013-02-16T10:17:59Z</time>
      </trkpt>
      <trkpt lat="45.69262" lon="6.26113">
        <ele>1882.88</ele>
        <time>2013-02-16T10:18:00Z</time>
      </trkpt>
      <trkpt lat="45.69261" lon="6.26112">
        <ele>1882.4</ele>
        <time>2013-02-16T10:18:01Z</time>
      </trkpt>
      <trkpt lat="45.69261" lon="6.26112">
        <ele>1885.28</ele>
        <time>2013-02-16T10:18:02Z</time>
      </trkpt>
      <trkpt lat="45.69261" lon="6.26113">
        <ele>1883.84</ele>
        <time>2013-02-16T10:18:03Z</time>
      </trkpt>
      <trkpt lat="45.69262" lon="6.26118">
        <ele>1883.84</ele>
        <time>2013-02-16T10:18:09Z</time>
      </trkpt>
      <trkpt lat="45.69263" lon="6.26119">
        <ele>1887.69</ele>
        <time>2013-02-16T10:18:10Z</time>
      </trkpt>
      <trkpt lat="45.69263" lon="6.2612">
        <ele>1884.8</ele>
        <time>2013-02-16T10:18:11Z</time>
      </trkpt>
      <trkpt lat="45.69263" lon="6.26121">
        <ele>1887.21</ele>
        <time>2013-02-16T10:18:12Z</time>
      </trkpt>
      <trkpt lat="45.69264" lon="6.26122">
        <ele>1884.32</ele>
        <time>2013-02-16T10:18:14Z</time>
      </trkpt>
      <trkpt lat="45.69264" lon="6.26123">
        <ele>1887.69</ele>
        <time>2013-02-16T10:18:15Z</time>
      </trkpt>
      <trkpt lat="45.69265" lon="6.26124">
        <ele>1885.76</ele>
        <time>2013-02-16T10:18:16Z</time>
      </trkpt>
      <trkpt lat="45.69265" lon="6.26126">
        <ele>1889.13</ele>
        <time>2013-02-16T10:18:18Z</time>
      </trkpt>
      <trkpt lat="45.69266" lon="6.26128">
        <ele>1885.28</ele>
        <time>2013-02-16T10:18:19Z</time>
      </trkpt>
      <trkpt lat="45.69266" lon="6.26129">
        <ele>1887.21</ele>
        <time>2013-02-16T10:18:20Z</time>
      </trkpt>
      <trkpt lat="45.69265" lon="6.26129">
        <ele>1887.21</ele>
        <time>2013-02-16T10:18:23Z</time>
      </trkpt>
      <trkpt lat="45.69261" lon="6.26126">
        <ele>1887.69</ele>
        <time>2013-02-16T10:18:30Z</time>
      </trkpt>
      <trkpt lat="45.69261" lon="6.26126">
        <ele>1889.13</ele>
        <time>2013-02-16T10:18:31Z</time>
      </trkpt>
      <trkpt lat="45.6926" lon="6.26125">
        <ele>1890.57</ele>
        <time>2013-02-16T10:18:33Z</time>
      </trkpt>
      <trkpt lat="45.69259" lon="6.26124">
        <ele>1889.13</ele>
        <time>2013-02-16T10:18:34Z</time>
      </trkpt>
      <trkpt lat="45.69257" lon="6.26123">
        <ele>1891.53</ele>
        <time>2013-02-16T10:18:36Z</time>
      </trkpt>
      <trkpt lat="45.69257" lon="6.26123">
        <ele>1888.65</ele>
        <time>2013-02-16T10:18:37Z</time>
      </trkpt>
      <trkpt lat="45.69256" lon="6.26123">
        <ele>1891.53</ele>
        <time>2013-02-16T10:18:38Z</time>
      </trkpt>
      <trkpt lat="45.69255" lon="6.26122">
        <ele>1890.09</ele>
        <time>2013-02-16T10:18:39Z</time>
      </trkpt>
      <trkpt lat="45.69255" lon="6.26122">
        <ele>1892.97</ele>
        <time>2013-02-16T10:18:40Z</time>
      </trkpt>
      <trkpt lat="45.69255" lon="6.26122">
        <ele>1889.61</ele>
        <time>2013-02-16T10:18:41Z</time>
      </trkpt>
      <trkpt lat="45.69253" lon="6.26121">
        <ele>1893.93</ele>
        <time>2013-02-16T10:18:43Z</time>
      </trkpt>
      <trkpt lat="45.69253" lon="6.26121">
        <ele>1889.13</ele>
        <time>2013-02-16T10:18:44Z</time>
      </trkpt>
      <trkpt lat="45.69252" lon="6.2612">
        <ele>1892.01</ele>
        <time>2013-02-16T10:18:45Z</time>
      </trkpt>
      <trkpt lat="45.6925" lon="6.2612">
        <ele>1892.97</ele>
        <time>2013-02-16T10:18:48Z</time>
      </trkpt>
      <trkpt lat="45.69249" lon="6.26119">
        <ele>1890.09</ele>
        <time>2013-02-16T10:18:49Z</time>
      </trkpt>
      <trkpt lat="45.69249" lon="6.26118">
        <ele>1890.09</ele>
        <time>2013-02-16T10:18:50Z</time>
      </trkpt>
      <trkpt lat="45.69249" lon="6.26118">
        <ele>1894.42</ele>
        <time>2013-02-16T10:18:51Z</time>
      </trkpt>
      <trkpt lat="45.69249" lon="6.26118">
        <ele>1892.49</ele>
        <time>2013-02-16T10:18:52Z</time>
      </trkpt>
      <trkpt lat="45.6925" lon="6.26119">
        <ele>1890.57</ele>
        <time>2013-02-16T10:18:55Z</time>
      </trkpt>
      <trkpt lat="45.6925" lon="6.2612">
        <ele>1892.97</ele>
        <time>2013-02-16T10:18:56Z</time>
      </trkpt>
      <trkpt lat="45.69251" lon="6.26121">
        <ele>1894.9</ele>
        <time>2013-02-16T10:18:57Z</time>
      </trkpt>
      <trkpt lat="45.69252" lon="6.26123">
        <ele>1892.01</ele>
        <time>2013-02-16T10:18:59Z</time>
      </trkpt>
      <trkpt lat="45.69252" lon="6.26124">
        <ele>1894.9</ele>
        <time>2013-02-16T10:19:00Z</time>
      </trkpt>
      <trkpt lat="45.69253" lon="6.26126">
        <ele>1892.49</ele>
        <time>2013-02-16T10:19:02Z</time>
      </trkpt>
      <trkpt lat="45.69253" lon="6.26127">
        <ele>1895.86</ele>
        <time>2013-02-16T10:19:03Z</time>
      </trkpt>
      <trkpt lat="45.69254" lon="6.26129">
        <ele>1894.42</ele>
        <time>2013-02-16T10:19:04Z</time>
      </trkpt>
      <trkpt lat="45.69254" lon="6.2613">
        <ele>1892.49</ele>
        <time>2013-02-16T10:19:05Z</time>
      </trkpt>
      <trkpt lat="45.69254" lon="6.2613">
        <ele>1896.34</ele>
        <time>2013-02-16T10:19:06Z</time>
      </trkpt>
      <trkpt lat="45.69254" lon="6.26132">
        <ele>1894.9</ele>
        <time>2013-02-16T10:19:07Z</time>
      </trkpt>
      <trkpt lat="45.69255" lon="6.26133">
        <ele>1896.34</ele>
        <time>2013-02-16T10:19:09Z</time>
      </trkpt>
      <trkpt lat="45.69255" lon="6.26135">
        <ele>1894.42</ele>
        <time>2013-02-16T10:19:10Z</time>
      </trkpt>
      <trkpt lat="45.69255" lon="6.26136">
        <ele>1896.82</ele>
        <time>2013-02-16T10:19:11Z</time>
      </trkpt>
      <trkpt lat="45.69255" lon="6.26137">
        <ele>1895.38</ele>
        <time>2013-02-16T10:19:12Z</time>
      </trkpt>
      <trkpt lat="45.69256" lon="6.26138">
        <ele>1892.01</ele>
        <time>2013-02-16T10:19:14Z</time>
      </trkpt>
      <trkpt lat="45.69256" lon="6.26138">
        <ele>1899.22</ele>
        <time>2013-02-16T10:19:15Z</time>
      </trkpt>
      <trkpt lat="45.69256" lon="6.26137">
        <ele>1895.38</ele>
        <time>2013-02-16T10:19:18Z</time>
      </trkpt>
      <trkpt lat="45.69256" lon="6.26137">
        <ele>1898.26</ele>
        <time>2013-02-16T10:19:19Z</time>
      </trkpt>
      <trkpt lat="45.69256" lon="6.26137">
        <ele>1896.82</ele>
        <time>2013-02-16T10:19:20Z</time>
      </trkpt>
      <trkpt lat="45.69255" lon="6.26136">
        <ele>1897.78</ele>
        <time>2013-02-16T10:19:22Z</time>
      </trkpt>
      <trkpt lat="45.69252" lon="6.26135">
        <ele>1898.74</ele>
        <time>2013-02-16T10:19:25Z</time>
      </trkpt>
      <trkpt lat="45.6925" lon="6.26135">
        <ele>1898.74</ele>
        <time>2013-02-16T10:19:27Z</time>
      </trkpt>
      <trkpt lat="45.6925" lon="6.26134">
        <ele>1895.86</ele>
        <time>2013-02-16T10:19:28Z</time>
      </trkpt>
      <trkpt lat="45.69249" lon="6.26134">
        <ele>1898.74</ele>
        <time>2013-02-16T10:19:29Z</time>
      </trkpt>
      <trkpt lat="45.69246" lon="6.26133">
        <ele>1897.78</ele>
        <time>2013-02-16T10:19:33Z</time>
      </trkpt>
      <trkpt lat="45.69246" lon="6.26132">
        <ele>1901.14</ele>
        <time>2013-02-16T10:19:34Z</time>
      </trkpt>
      <trkpt lat="45.69245" lon="6.26132">
        <ele>1899.22</ele>
        <time>2013-02-16T10:19:35Z</time>
      </trkpt>
      <trkpt lat="45.6924" lon="6.26131">
        <ele>1900.18</ele>
        <time>2013-02-16T10:19:45Z</time>
      </trkpt>
      <trkpt lat="45.6924" lon="6.26131">
        <ele>1902.59</ele>
        <time>2013-02-16T10:19:50Z</time>
      </trkpt>
      <trkpt lat="45.6924" lon="6.26131">
        <ele>1901.14</ele>
        <time>2013-02-16T10:19:51Z</time>
      </trkpt>
      <trkpt lat="45.69241" lon="6.26133">
        <ele>1898.74</ele>
        <time>2013-02-16T10:19:58Z</time>
      </trkpt>
      <trkpt lat="45.69241" lon="6.26133">
        <ele>1902.59</ele>
        <time>2013-02-16T10:19:59Z</time>
      </trkpt>
      <trkpt lat="45.69241" lon="6.26134">
        <ele>1900.66</ele>
        <time>2013-02-16T10:20:00Z</time>
      </trkpt>
      <trkpt lat="45.69241" lon="6.26135">
        <ele>1902.11</ele>
        <time>2013-02-16T10:20:01Z</time>
      </trkpt>
      <trkpt lat="45.69241" lon="6.26136">
        <ele>1900.18</ele>
        <time>2013-02-16T10:20:02Z</time>
      </trkpt>
      <trkpt lat="45.69241" lon="6.26136">
        <ele>1903.55</ele>
        <time>2013-02-16T10:20:03Z</time>
      </trkpt>
      <trkpt lat="45.69242" lon="6.26139">
        <ele>1901.14</ele>
        <time>2013-02-16T10:20:05Z</time>
      </trkpt>
      <trkpt lat="45.69244" lon="6.26141">
        <ele>1901.14</ele>
        <time>2013-02-16T10:20:08Z</time>
      </trkpt>
      <trkpt lat="45.69244" lon="6.26142">
        <ele>1904.03</ele>
        <time>2013-02-16T10:20:09Z</time>
      </trkpt>
      <trkpt lat="45.69245" lon="6.26143">
        <ele>1901.63</ele>
        <time>2013-02-16T10:20:10Z</time>
      </trkpt>
      <trkpt lat="45.69245" lon="6.26144">
        <ele>1905.47</ele>
        <time>2013-02-16T10:20:11Z</time>
      </trkpt>
      <trkpt lat="45.69245" lon="6.26144">
        <ele>1905.47</ele>
        <time>2013-02-16T10:20:12Z</time>
      </trkpt>
      <trkpt lat="45.69246" lon="6.26145">
        <ele>1901.63</ele>
        <time>2013-02-16T10:20:13Z</time>
      </trkpt>
      <trkpt lat="45.69246" lon="6.26146">
        <ele>1905.47</ele>
        <time>2013-02-16T10:20:14Z</time>
      </trkpt>
      <trkpt lat="45.69246" lon="6.26146">
        <ele>1903.07</ele>
        <time>2013-02-16T10:20:15Z</time>
      </trkpt>
      <trkpt lat="45.69246" lon="6.26146">
        <ele>1905.47</ele>
        <time>2013-02-16T10:20:16Z</time>
      </trkpt>
      <trkpt lat="45.69245" lon="6.26146">
        <ele>1903.55</ele>
        <time>2013-02-16T10:20:17Z</time>
      </trkpt>
      <trkpt lat="45.69244" lon="6.26147">
        <ele>1900.18</ele>
        <time>2013-02-16T10:20:20Z</time>
      </trkpt>
      <trkpt lat="45.69243" lon="6.26146">
        <ele>1908.35</ele>
        <time>2013-02-16T10:20:21Z</time>
      </trkpt>
      <trkpt lat="45.69243" lon="6.26145">
        <ele>1904.99</ele>
        <time>2013-02-16T10:20:22Z</time>
      </trkpt>
      <trkpt lat="45.69242" lon="6.26143">
        <ele>1903.55</ele>
        <time>2013-02-16T10:20:24Z</time>
      </trkpt>
      <trkpt lat="45.69241" lon="6.26142">
        <ele>1906.91</ele>
        <time>2013-02-16T10:20:26Z</time>
      </trkpt>
      <trkpt lat="45.69239" lon="6.2614">
        <ele>1907.87</ele>
        <time>2013-02-16T10:20:30Z</time>
      </trkpt>
      <trkpt lat="45.69238" lon="6.26139">
        <ele>1905.47</ele>
        <time>2013-02-16T10:20:31Z</time>
      </trkpt>
      <trkpt lat="45.69237" lon="6.26139">
        <ele>1907.39</ele>
        <time>2013-02-16T10:20:32Z</time>
      </trkpt>
      <trkpt lat="45.69236" lon="6.26138">
        <ele>1906.43</ele>
        <time>2013-02-16T10:20:33Z</time>
      </trkpt>
      <trkpt lat="45.69235" lon="6.26138">
        <ele>1908.35</ele>
        <time>2013-02-16T10:20:35Z</time>
      </trkpt>
      <trkpt lat="45.69234" lon="6.26138">
        <ele>1905.95</ele>
        <time>2013-02-16T10:20:36Z</time>
      </trkpt>
      <trkpt lat="45.69235" lon="6.26138">
        <ele>1908.35</ele>
        <time>2013-02-16T10:20:37Z</time>
      </trkpt>
      <trkpt lat="45.69235" lon="6.26139">
        <ele>1906.91</ele>
        <time>2013-02-16T10:20:38Z</time>
      </trkpt>
      <trkpt lat="45.69235" lon="6.26139">
        <ele>1906.91</ele>
        <time>2013-02-16T10:20:41Z</time>
      </trkpt>
      <trkpt lat="45.69235" lon="6.2614">
        <ele>1904.99</ele>
        <time>2013-02-16T10:20:42Z</time>
      </trkpt>
      <trkpt lat="45.69235" lon="6.2614">
        <ele>1909.32</ele>
        <time>2013-02-16T10:20:43Z</time>
      </trkpt>
      <trkpt lat="45.69236" lon="6.26144">
        <ele>1907.39</ele>
        <time>2013-02-16T10:20:45Z</time>
      </trkpt>
      <trkpt lat="45.69236" lon="6.26145">
        <ele>1910.28</ele>
        <time>2013-02-16T10:20:46Z</time>
      </trkpt>
      <trkpt lat="45.69237" lon="6.26146">
        <ele>1908.35</ele>
        <time>2013-02-16T10:20:47Z</time>
      </trkpt>
      <trkpt lat="45.69238" lon="6.26149">
        <ele>1909.8</ele>
        <time>2013-02-16T10:20:49Z</time>
      </trkpt>
      <trkpt lat="45.69238" lon="6.26149">
        <ele>1908.35</ele>
        <time>2013-02-16T10:20:50Z</time>
      </trkpt>
      <trkpt lat="45.69238" lon="6.2615">
        <ele>1910.76</ele>
        <time>2013-02-16T10:20:51Z</time>
      </trkpt>
      <trkpt lat="45.69239" lon="6.26151">
        <ele>1909.32</ele>
        <time>2013-02-16T10:20:52Z</time>
      </trkpt>
      <trkpt lat="45.6924" lon="6.26153">
        <ele>1911.72</ele>
        <time>2013-02-16T10:20:55Z</time>
      </trkpt>
      <trkpt lat="45.6924" lon="6.26155">
        <ele>1908.35</ele>
        <time>2013-02-16T10:20:56Z</time>
      </trkpt>
      <trkpt lat="45.6924" lon="6.26156">
        <ele>1911.72</ele>
        <time>2013-02-16T10:20:57Z</time>
      </trkpt>
      <trkpt lat="45.6924" lon="6.26157">
        <ele>1908.83</ele>
        <time>2013-02-16T10:20:58Z</time>
      </trkpt>
      <trkpt lat="45.69241" lon="6.26157">
        <ele>1910.28</ele>
        <time>2013-02-16T10:20:59Z</time>
      </trkpt>
      <trkpt lat="45.69239" lon="6.26156">
        <ele>1909.32</ele>
        <time>2013-02-16T10:21:03Z</time>
      </trkpt>
      <trkpt lat="45.69239" lon="6.26156">
        <ele>1913.64</ele>
        <time>2013-02-16T10:21:04Z</time>
      </trkpt>
      <trkpt lat="45.69239" lon="6.26155">
        <ele>1911.72</ele>
        <time>2013-02-16T10:21:05Z</time>
      </trkpt>
      <trkpt lat="45.69236" lon="6.26153">
        <ele>1912.2</ele>
        <time>2013-02-16T10:21:08Z</time>
      </trkpt>
      <trkpt lat="45.69234" lon="6.26152">
        <ele>1911.24</ele>
        <time>2013-02-16T10:21:10Z</time>
      </trkpt>
      <trkpt lat="45.69233" lon="6.26152">
        <ele>1914.12</ele>
        <time>2013-02-16T10:21:11Z</time>
      </trkpt>
      <trkpt lat="45.69233" lon="6.26152">
        <ele>1912.2</ele>
        <time>2013-02-16T10:21:12Z</time>
      </trkpt>
      <trkpt lat="45.69232" lon="6.26152">
        <ele>1914.12</ele>
        <time>2013-02-16T10:21:13Z</time>
      </trkpt>
      <trkpt lat="45.69231" lon="6.26151">
        <ele>1913.16</ele>
        <time>2013-02-16T10:21:14Z</time>
      </trkpt>
      <trkpt lat="45.6923" lon="6.2615">
        <ele>1914.6</ele>
        <time>2013-02-16T10:21:16Z</time>
      </trkpt>
      <trkpt lat="45.6923" lon="6.2615">
        <ele>1911.72</ele>
        <time>2013-02-16T10:21:17Z</time>
      </trkpt>
      <trkpt lat="45.6923" lon="6.26149">
        <ele>1916.04</ele>
        <time>2013-02-16T10:21:18Z</time>
      </trkpt>
      <trkpt lat="45.69229" lon="6.26149">
        <ele>1916.04</ele>
        <time>2013-02-16T10:21:19Z</time>
      </trkpt>
      <trkpt lat="45.69229" lon="6.26148">
        <ele>1912.68</ele>
        <time>2013-02-16T10:21:20Z</time>
      </trkpt>
      <trkpt lat="45.69229" lon="6.26148">
        <ele>1915.56</ele>
        <time>2013-02-16T10:21:21Z</time>
      </trkpt>
      <trkpt lat="45.69229" lon="6.26148">
        <ele>1914.12</ele>
        <time>2013-02-16T10:21:22Z</time>
      </trkpt>
      <trkpt lat="45.69227" lon="6.26147">
        <ele>1916.04</ele>
        <time>2013-02-16T10:21:24Z</time>
      </trkpt>
      <trkpt lat="45.69226" lon="6.26146">
        <ele>1913.64</ele>
        <time>2013-02-16T10:21:25Z</time>
      </trkpt>
      <trkpt lat="45.69225" lon="6.26146">
        <ele>1916.53</ele>
        <time>2013-02-16T10:21:26Z</time>
      </trkpt>
      <trkpt lat="45.69225" lon="6.26146">
        <ele>1914.12</ele>
        <time>2013-02-16T10:21:27Z</time>
      </trkpt>
      <trkpt lat="45.69225" lon="6.26147">
        <ele>1915.56</ele>
        <time>2013-02-16T10:21:28Z</time>
      </trkpt>
      <trkpt lat="45.69225" lon="6.26147">
        <ele>1914.12</ele>
        <time>2013-02-16T10:21:29Z</time>
      </trkpt>
      <trkpt lat="45.69226" lon="6.26149">
        <ele>1916.53</ele>
        <time>2013-02-16T10:21:31Z</time>
      </trkpt>
      <trkpt lat="45.69227" lon="6.2615">
        <ele>1915.08</ele>
        <time>2013-02-16T10:21:32Z</time>
      </trkpt>
      <trkpt lat="45.69227" lon="6.26151">
        <ele>1917.97</ele>
        <time>2013-02-16T10:21:33Z</time>
      </trkpt>
      <trkpt lat="45.69227" lon="6.26151">
        <ele>1914.6</ele>
        <time>2013-02-16T10:21:34Z</time>
      </trkpt>
      <trkpt lat="45.69227" lon="6.26152">
        <ele>1918.93</ele>
        <time>2013-02-16T10:21:35Z</time>
      </trkpt>
      <trkpt lat="45.69228" lon="6.26153">
        <ele>1915.56</ele>
        <time>2013-02-16T10:21:36Z</time>
      </trkpt>
      <trkpt lat="45.69228" lon="6.26154">
        <ele>1917.97</ele>
        <time>2013-02-16T10:21:37Z</time>
      </trkpt>
      <trkpt lat="45.69229" lon="6.26156">
        <ele>1916.04</ele>
        <time>2013-02-16T10:21:39Z</time>
      </trkpt>
      <trkpt lat="45.69229" lon="6.26156">
        <ele>1919.89</ele>
        <time>2013-02-16T10:21:40Z</time>
      </trkpt>
      <trkpt lat="45.69229" lon="6.26157">
        <ele>1917.01</ele>
        <time>2013-02-16T10:21:41Z</time>
      </trkpt>
      <trkpt lat="45.6923" lon="6.26158">
        <ele>1919.89</ele>
        <time>2013-02-16T10:21:42Z</time>
      </trkpt>
      <trkpt lat="45.6923" lon="6.26159">
        <ele>1917.97</ele>
        <time>2013-02-16T10:21:43Z</time>
      </trkpt>
      <trkpt lat="45.69231" lon="6.26163">
        <ele>1919.89</ele>
        <time>2013-02-16T10:21:46Z</time>
      </trkpt>
      <trkpt lat="45.69231" lon="6.26164">
        <ele>1917.97</ele>
        <time>2013-02-16T10:21:47Z</time>
      </trkpt>
      <trkpt lat="45.69231" lon="6.26165">
        <ele>1919.89</ele>
        <time>2013-02-16T10:21:48Z</time>
      </trkpt>
      <trkpt lat="45.69231" lon="6.26166">
        <ele>1917.97</ele>
        <time>2013-02-16T10:21:49Z</time>
      </trkpt>
      <trkpt lat="45.6923" lon="6.26165">
        <ele>1921.33</ele>
        <time>2013-02-16T10:21:50Z</time>
      </trkpt>
      <trkpt lat="45.6923" lon="6.26165">
        <ele>1918.93</ele>
        <time>2013-02-16T10:21:51Z</time>
      </trkpt>
      <trkpt lat="45.6923" lon="6.26165">
        <ele>1920.85</ele>
        <time>2013-02-16T10:21:52Z</time>
      </trkpt>
      <trkpt lat="45.69229" lon="6.26163">
        <ele>1918.93</ele>
        <time>2013-02-16T10:21:56Z</time>
      </trkpt>
      <trkpt lat="45.69229" lon="6.26163">
        <ele>1921.81</ele>
        <time>2013-02-16T10:21:57Z</time>
      </trkpt>
      <trkpt lat="45.69229" lon="6.26162">
        <ele>1919.89</ele>
        <time>2013-02-16T10:21:58Z</time>
      </trkpt>
      <trkpt lat="45.69228" lon="6.26162">
        <ele>1921.33</ele>
        <time>2013-02-16T10:21:59Z</time>
      </trkpt>
      <trkpt lat="45.69227" lon="6.2616">
        <ele>1922.29</ele>
        <time>2013-02-16T10:22:02Z</time>
      </trkpt>
      <trkpt lat="45.69227" lon="6.26159">
        <ele>1920.37</ele>
        <time>2013-02-16T10:22:03Z</time>
      </trkpt>
      <trkpt lat="45.69226" lon="6.26159">
        <ele>1922.29</ele>
        <time>2013-02-16T10:22:04Z</time>
      </trkpt>
      <trkpt lat="45.69225" lon="6.26158">
        <ele>1920.37</ele>
        <time>2013-02-16T10:22:05Z</time>
      </trkpt>
      <trkpt lat="45.69224" lon="6.26158">
        <ele>1922.29</ele>
        <time>2013-02-16T10:22:06Z</time>
      </trkpt>
      <trkpt lat="45.69223" lon="6.26156">
        <ele>1920.37</ele>
        <time>2013-02-16T10:22:08Z</time>
      </trkpt>
      <trkpt lat="45.69222" lon="6.26156">
        <ele>1924.7</ele>
        <time>2013-02-16T10:22:09Z</time>
      </trkpt>
      <trkpt lat="45.69221" lon="6.26155">
        <ele>1925.18</ele>
        <time>2013-02-16T10:22:10Z</time>
      </trkpt>
      <trkpt lat="45.6922" lon="6.26155">
        <ele>1921.33</ele>
        <time>2013-02-16T10:22:11Z</time>
      </trkpt>
      <trkpt lat="45.69219" lon="6.26154">
        <ele>1924.22</ele>
        <time>2013-02-16T10:22:12Z</time>
      </trkpt>
      <trkpt lat="45.69218" lon="6.26155">
        <ele>1921.33</ele>
        <time>2013-02-16T10:22:13Z</time>
      </trkpt>
      <trkpt lat="45.69218" lon="6.26154">
        <ele>1924.7</ele>
        <time>2013-02-16T10:22:14Z</time>
      </trkpt>
      <trkpt lat="45.69217" lon="6.26154">
        <ele>1922.29</ele>
        <time>2013-02-16T10:22:15Z</time>
      </trkpt>
      <trkpt lat="45.69217" lon="6.26154">
        <ele>1924.7</ele>
        <time>2013-02-16T10:22:16Z</time>
      </trkpt>
      <trkpt lat="45.69216" lon="6.26154">
        <ele>1922.77</ele>
        <time>2013-02-16T10:22:17Z</time>
      </trkpt>
      <trkpt lat="45.69216" lon="6.26154">
        <ele>1923.74</ele>
        <time>2013-02-16T10:22:18Z</time>
      </trkpt>
      <trkpt lat="45.69215" lon="6.26153">
        <ele>1919.89</ele>
        <time>2013-02-16T10:22:36Z</time>
      </trkpt>
      <trkpt lat="45.69216" lon="6.26154">
        <ele>1919.89</ele>
        <time>2013-02-16T10:22:37Z</time>
      </trkpt>
      <trkpt lat="45.69216" lon="6.26155">
        <ele>1926.62</ele>
        <time>2013-02-16T10:22:38Z</time>
      </trkpt>
      <trkpt lat="45.69216" lon="6.26155">
        <ele>1922.77</ele>
        <time>2013-02-16T10:22:39Z</time>
      </trkpt>
      <trkpt lat="45.69216" lon="6.26156">
        <ele>1925.18</ele>
        <time>2013-02-16T10:22:40Z</time>
      </trkpt>
      <trkpt lat="45.69212" lon="6.26171">
        <ele>1922.29</ele>
        <time>2013-02-16T10:22:50Z</time>
      </trkpt>
      <trkpt lat="45.6921" lon="6.26177">
        <ele>1926.14</ele>
        <time>2013-02-16T10:22:51Z</time>
      </trkpt>
      <trkpt lat="45.69214" lon="6.26182">
        <ele>1929.02</ele>
        <time>2013-02-16T10:23:07Z</time>
      </trkpt>
      <trkpt lat="45.69213" lon="6.26174">
        <ele>1926.14</ele>
        <time>2013-02-16T10:23:13Z</time>
      </trkpt>
      <trkpt lat="45.69212" lon="6.26173">
        <ele>1929.02</ele>
        <time>2013-02-16T10:23:14Z</time>
      </trkpt>
      <trkpt lat="45.69212" lon="6.26171">
        <ele>1928.54</ele>
        <time>2013-02-16T10:23:16Z</time>
      </trkpt>
      <trkpt lat="45.69208" lon="6.26165">
        <ele>1929.5</ele>
        <time>2013-02-16T10:23:21Z</time>
      </trkpt>
      <trkpt lat="45.69202" lon="6.26156">
        <ele>1931.43</ele>
        <time>2013-02-16T10:23:36Z</time>
      </trkpt>
      <trkpt lat="45.69199" lon="6.26157">
        <ele>1934.79</ele>
        <time>2013-02-16T10:23:49Z</time>
      </trkpt>
      <trkpt lat="45.692" lon="6.26159">
        <ele>1930.46</ele>
        <time>2013-02-16T10:23:50Z</time>
      </trkpt>
      <trkpt lat="45.69201" lon="6.26162">
        <ele>1931.91</ele>
        <time>2013-02-16T10:23:54Z</time>
      </trkpt>
      <trkpt lat="45.69202" lon="6.26164">
        <ele>1933.35</ele>
        <time>2013-02-16T10:23:57Z</time>
      </trkpt>
      <trkpt lat="45.69206" lon="6.26174">
        <ele>1935.27</ele>
        <time>2013-02-16T10:24:04Z</time>
      </trkpt>
      <trkpt lat="45.69209" lon="6.26188">
        <ele>1938.64</ele>
        <time>2013-02-16T10:24:18Z</time>
      </trkpt>
      <trkpt lat="45.6921" lon="6.26189">
        <ele>1934.79</ele>
        <time>2013-02-16T10:24:19Z</time>
      </trkpt>
      <trkpt lat="45.6921" lon="6.26189">
        <ele>1935.27</ele>
        <time>2013-02-16T10:24:20Z</time>
      </trkpt>
      <trkpt lat="45.69209" lon="6.26189">
        <ele>1935.27</ele>
        <time>2013-02-16T10:24:21Z</time>
      </trkpt>
      <trkpt lat="45.6921" lon="6.2619">
        <ele>1939.6</ele>
        <time>2013-02-16T10:24:22Z</time>
      </trkpt>
      <trkpt lat="45.6921" lon="6.26191">
        <ele>1935.27</ele>
        <time>2013-02-16T10:24:23Z</time>
      </trkpt>
      <trkpt lat="45.69209" lon="6.26192">
        <ele>1940.08</ele>
        <time>2013-02-16T10:24:24Z</time>
      </trkpt>
      <trkpt lat="45.6921" lon="6.26193">
        <ele>1935.75</ele>
        <time>2013-02-16T10:24:25Z</time>
      </trkpt>
      <trkpt lat="45.6921" lon="6.26195">
        <ele>1940.08</ele>
        <time>2013-02-16T10:24:26Z</time>
      </trkpt>
      <trkpt lat="45.6921" lon="6.26195">
        <ele>1936.23</ele>
        <time>2013-02-16T10:24:27Z</time>
      </trkpt>
      <trkpt lat="45.69211" lon="6.26197">
        <ele>1939.6</ele>
        <time>2013-02-16T10:24:28Z</time>
      </trkpt>
      <trkpt lat="45.69211" lon="6.26197">
        <ele>1936.23</ele>
        <time>2013-02-16T10:24:29Z</time>
      </trkpt>
      <trkpt lat="45.69212" lon="6.26198">
        <ele>1940.56</ele>
        <time>2013-02-16T10:24:30Z</time>
      </trkpt>
      <trkpt lat="45.69212" lon="6.26199">
        <ele>1937.67</ele>
        <time>2013-02-16T10:24:31Z</time>
      </trkpt>
      <trkpt lat="45.69211" lon="6.262">
        <ele>1941.04</ele>
        <time>2013-02-16T10:24:32Z</time>
      </trkpt>
      <trkpt lat="45.69212" lon="6.262">
        <ele>1938.16</ele>
        <time>2013-02-16T10:24:33Z</time>
      </trkpt>
      <trkpt lat="45.69212" lon="6.26201">
        <ele>1941.04</ele>
        <time>2013-02-16T10:24:34Z</time>
      </trkpt>
      <trkpt lat="45.69214" lon="6.26205">
        <ele>1938.64</ele>
        <time>2013-02-16T10:24:37Z</time>
      </trkpt>
      <trkpt lat="45.69214" lon="6.26206">
        <ele>1942.48</ele>
        <time>2013-02-16T10:24:38Z</time>
      </trkpt>
      <trkpt lat="45.69214" lon="6.26207">
        <ele>1938.64</ele>
        <time>2013-02-16T10:24:39Z</time>
      </trkpt>
      <trkpt lat="45.69214" lon="6.26208">
        <ele>1938.64</ele>
        <time>2013-02-16T10:24:40Z</time>
      </trkpt>
      <trkpt lat="45.69215" lon="6.26209">
        <ele>1939.12</ele>
        <time>2013-02-16T10:24:41Z</time>
      </trkpt>
      <trkpt lat="45.69215" lon="6.26211">
        <ele>1942.96</ele>
        <time>2013-02-16T10:24:42Z</time>
      </trkpt>
      <trkpt lat="45.69215" lon="6.26212">
        <ele>1939.6</ele>
        <time>2013-02-16T10:24:43Z</time>
      </trkpt>
      <trkpt lat="45.69215" lon="6.26212">
        <ele>1943.44</ele>
        <time>2013-02-16T10:24:44Z</time>
      </trkpt>
      <trkpt lat="45.69215" lon="6.26212">
        <ele>1939.12</ele>
        <time>2013-02-16T10:24:45Z</time>
      </trkpt>
      <trkpt lat="45.69215" lon="6.26212">
        <ele>1944.88</ele>
        <time>2013-02-16T10:24:46Z</time>
      </trkpt>
      <trkpt lat="45.69216" lon="6.26213">
        <ele>1941.04</ele>
        <time>2013-02-16T10:24:47Z</time>
      </trkpt>
      <trkpt lat="45.69217" lon="6.26218">
        <ele>1944.88</ele>
        <time>2013-02-16T10:24:52Z</time>
      </trkpt>
      <trkpt lat="45.69218" lon="6.26218">
        <ele>1941.04</ele>
        <time>2013-02-16T10:24:53Z</time>
      </trkpt>
      <trkpt lat="45.69218" lon="6.26219">
        <ele>1944.4</ele>
        <time>2013-02-16T10:24:54Z</time>
      </trkpt>
      <trkpt lat="45.6922" lon="6.26221">
        <ele>1943.44</ele>
        <time>2013-02-16T10:24:59Z</time>
      </trkpt>
      <trkpt lat="45.69223" lon="6.26225">
        <ele>1947.29</ele>
        <time>2013-02-16T10:25:10Z</time>
      </trkpt>
      <trkpt lat="45.69223" lon="6.26229">
        <ele>1947.29</ele>
        <time>2013-02-16T10:25:15Z</time>
      </trkpt>
      <trkpt lat="45.69218" lon="6.26221">
        <ele>1946.81</ele>
        <time>2013-02-16T10:25:24Z</time>
      </trkpt>
      <trkpt lat="45.69217" lon="6.26219">
        <ele>1948.73</ele>
        <time>2013-02-16T10:25:26Z</time>
      </trkpt>
      <trkpt lat="45.69215" lon="6.26216">
        <ele>1947.77</ele>
        <time>2013-02-16T10:25:30Z</time>
      </trkpt>
      <trkpt lat="45.69214" lon="6.26216">
        <ele>1949.69</ele>
        <time>2013-02-16T10:25:31Z</time>
      </trkpt>
      <trkpt lat="45.69212" lon="6.26216">
        <ele>1951.13</ele>
        <time>2013-02-16T10:25:34Z</time>
      </trkpt>
      <trkpt lat="45.69211" lon="6.26216">
        <ele>1948.25</ele>
        <time>2013-02-16T10:25:35Z</time>
      </trkpt>
      <trkpt lat="45.69211" lon="6.26216">
        <ele>1951.61</ele>
        <time>2013-02-16T10:25:36Z</time>
      </trkpt>
      <trkpt lat="45.6921" lon="6.26217">
        <ele>1949.69</ele>
        <time>2013-02-16T10:25:37Z</time>
      </trkpt>
      <trkpt lat="45.69209" lon="6.26217">
        <ele>1948.25</ele>
        <time>2013-02-16T10:25:40Z</time>
      </trkpt>
      <trkpt lat="45.69208" lon="6.26216">
        <ele>1953.54</ele>
        <time>2013-02-16T10:25:41Z</time>
      </trkpt>
      <trkpt lat="45.69207" lon="6.26216">
        <ele>1949.21</ele>
        <time>2013-02-16T10:25:42Z</time>
      </trkpt>
      <trkpt lat="45.69207" lon="6.26216">
        <ele>1952.57</ele>
        <time>2013-02-16T10:25:43Z</time>
      </trkpt>
      <trkpt lat="45.69207" lon="6.26216">
        <ele>1950.65</ele>
        <time>2013-02-16T10:25:44Z</time>
      </trkpt>
      <trkpt lat="45.69205" lon="6.26214">
        <ele>1952.57</ele>
        <time>2013-02-16T10:25:48Z</time>
      </trkpt>
      <trkpt lat="45.69204" lon="6.26214">
        <ele>1953.54</ele>
        <time>2013-02-16T10:25:50Z</time>
      </trkpt>
      <trkpt lat="45.69203" lon="6.26213">
        <ele>1951.13</ele>
        <time>2013-02-16T10:25:52Z</time>
      </trkpt>
      <trkpt lat="45.69203" lon="6.26213">
        <ele>1953.54</ele>
        <time>2013-02-16T10:25:53Z</time>
      </trkpt>
      <trkpt lat="45.69201" lon="6.26212">
        <ele>1954.02</ele>
        <time>2013-02-16T10:25:56Z</time>
      </trkpt>
      <trkpt lat="45.692" lon="6.26212">
        <ele>1952.57</ele>
        <time>2013-02-16T10:25:57Z</time>
      </trkpt>
      <trkpt lat="45.692" lon="6.26211">
        <ele>1954.02</ele>
        <time>2013-02-16T10:25:58Z</time>
      </trkpt>
      <trkpt lat="45.69198" lon="6.2621">
        <ele>1952.09</ele>
        <time>2013-02-16T10:26:02Z</time>
      </trkpt>
      <trkpt lat="45.69197" lon="6.26209">
        <ele>1955.46</ele>
        <time>2013-02-16T10:26:03Z</time>
      </trkpt>
      <trkpt lat="45.69197" lon="6.26209">
        <ele>1954.02</ele>
        <time>2013-02-16T10:26:04Z</time>
      </trkpt>
      <trkpt lat="45.69197" lon="6.26209">
        <ele>1955.94</ele>
        <time>2013-02-16T10:26:05Z</time>
      </trkpt>
      <trkpt lat="45.69196" lon="6.26208">
        <ele>1952.57</ele>
        <time>2013-02-16T10:26:06Z</time>
      </trkpt>
      <trkpt lat="45.69196" lon="6.26208">
        <ele>1956.9</ele>
        <time>2013-02-16T10:26:07Z</time>
      </trkpt>
      <trkpt lat="45.69195" lon="6.26208">
        <ele>1954.02</ele>
        <time>2013-02-16T10:26:08Z</time>
      </trkpt>
      <trkpt lat="45.69194" lon="6.26207">
        <ele>1955.94</ele>
        <time>2013-02-16T10:26:09Z</time>
      </trkpt>
      <trkpt lat="45.69194" lon="6.26206">
        <ele>1954.98</ele>
        <time>2013-02-16T10:26:10Z</time>
      </trkpt>
      <trkpt lat="45.69193" lon="6.26206">
        <ele>1955.46</ele>
        <time>2013-02-16T10:26:11Z</time>
      </trkpt>
      <trkpt lat="45.69192" lon="6.26206">
        <ele>1953.54</ele>
        <time>2013-02-16T10:26:13Z</time>
      </trkpt>
      <trkpt lat="45.69191" lon="6.26206">
        <ele>1956.9</ele>
        <time>2013-02-16T10:26:14Z</time>
      </trkpt>
      <trkpt lat="45.69191" lon="6.26206">
        <ele>1954.98</ele>
        <time>2013-02-16T10:26:15Z</time>
      </trkpt>
      <trkpt lat="45.6919" lon="6.26206">
        <ele>1957.38</ele>
        <time>2013-02-16T10:26:16Z</time>
      </trkpt>
      <trkpt lat="45.69189" lon="6.26205">
        <ele>1955.94</ele>
        <time>2013-02-16T10:26:18Z</time>
      </trkpt>
      <trkpt lat="45.69188" lon="6.26204">
        <ele>1957.86</ele>
        <time>2013-02-16T10:26:20Z</time>
      </trkpt>
      <trkpt lat="45.69186" lon="6.26204">
        <ele>1957.86</ele>
        <time>2013-02-16T10:26:22Z</time>
      </trkpt>
      <trkpt lat="45.69185" lon="6.26204">
        <ele>1958.82</ele>
        <time>2013-02-16T10:26:24Z</time>
      </trkpt>
      <trkpt lat="45.69183" lon="6.26202">
        <ele>1959.3</ele>
        <time>2013-02-16T10:26:27Z</time>
      </trkpt>
      <trkpt lat="45.69182" lon="6.26201">
        <ele>1957.38</ele>
        <time>2013-02-16T10:26:28Z</time>
      </trkpt>
      <trkpt lat="45.69181" lon="6.26201">
        <ele>1959.3</ele>
        <time>2013-02-16T10:26:29Z</time>
      </trkpt>
      <trkpt lat="45.6918" lon="6.26199">
        <ele>1960.27</ele>
        <time>2013-02-16T10:26:32Z</time>
      </trkpt>
      <trkpt lat="45.6918" lon="6.26199">
        <ele>1956.9</ele>
        <time>2013-02-16T10:26:33Z</time>
      </trkpt>
      <trkpt lat="45.69179" lon="6.26199">
        <ele>1960.27</ele>
        <time>2013-02-16T10:26:34Z</time>
      </trkpt>
      <trkpt lat="45.69178" lon="6.26199">
        <ele>1958.82</ele>
        <time>2013-02-16T10:26:35Z</time>
      </trkpt>
      <trkpt lat="45.69177" lon="6.26199">
        <ele>1960.27</ele>
        <time>2013-02-16T10:26:36Z</time>
      </trkpt>
      <trkpt lat="45.69176" lon="6.26199">
        <ele>1958.34</ele>
        <time>2013-02-16T10:26:38Z</time>
      </trkpt>
      <trkpt lat="45.69175" lon="6.26198">
        <ele>1960.75</ele>
        <time>2013-02-16T10:26:40Z</time>
      </trkpt>
      <trkpt lat="45.69174" lon="6.26197">
        <ele>1958.34</ele>
        <time>2013-02-16T10:26:41Z</time>
      </trkpt>
      <trkpt lat="45.69174" lon="6.26196">
        <ele>1960.27</ele>
        <time>2013-02-16T10:26:42Z</time>
      </trkpt>
      <trkpt lat="45.69173" lon="6.26196">
        <ele>1958.82</ele>
        <time>2013-02-16T10:26:44Z</time>
      </trkpt>
      <trkpt lat="45.69172" lon="6.26195">
        <ele>1962.19</ele>
        <time>2013-02-16T10:26:45Z</time>
      </trkpt>
      <trkpt lat="45.69172" lon="6.26194">
        <ele>1960.27</ele>
        <time>2013-02-16T10:26:46Z</time>
      </trkpt>
      <trkpt lat="45.6917" lon="6.26193">
        <ele>1959.3</ele>
        <time>2013-02-16T10:26:48Z</time>
      </trkpt>
      <trkpt lat="45.69169" lon="6.26193">
        <ele>1962.67</ele>
        <time>2013-02-16T10:26:49Z</time>
      </trkpt>
      <trkpt lat="45.69169" lon="6.26193">
        <ele>1960.27</ele>
        <time>2013-02-16T10:26:50Z</time>
      </trkpt>
      <trkpt lat="45.69168" lon="6.26191">
        <ele>1963.15</ele>
        <time>2013-02-16T10:26:52Z</time>
      </trkpt>
      <trkpt lat="45.69168" lon="6.26191">
        <ele>1959.78</ele>
        <time>2013-02-16T10:26:53Z</time>
      </trkpt>
      <trkpt lat="45.69168" lon="6.2619">
        <ele>1964.59</ele>
        <time>2013-02-16T10:26:54Z</time>
      </trkpt>
      <trkpt lat="45.69167" lon="6.2619">
        <ele>1961.71</ele>
        <time>2013-02-16T10:26:55Z</time>
      </trkpt>
      <trkpt lat="45.69165" lon="6.26188">
        <ele>1963.63</ele>
        <time>2013-02-16T10:26:58Z</time>
      </trkpt>
      <trkpt lat="45.69163" lon="6.26187">
        <ele>1964.59</ele>
        <time>2013-02-16T10:27:01Z</time>
      </trkpt>
      <trkpt lat="45.69158" lon="6.26183">
        <ele>1963.15</ele>
        <time>2013-02-16T10:27:08Z</time>
      </trkpt>
      <trkpt lat="45.69158" lon="6.26183">
        <ele>1965.07</ele>
        <time>2013-02-16T10:27:09Z</time>
      </trkpt>
      <trkpt lat="45.69158" lon="6.26185">
        <ele>1967.48</ele>
        <time>2013-02-16T10:27:17Z</time>
      </trkpt>
      <trkpt lat="45.69158" lon="6.26186">
        <ele>1966.03</ele>
        <time>2013-02-16T10:27:18Z</time>
      </trkpt>
      <trkpt lat="45.69159" lon="6.26187">
        <ele>1966.99</ele>
        <time>2013-02-16T10:27:20Z</time>
      </trkpt>
      <trkpt lat="45.69159" lon="6.26188">
        <ele>1964.59</ele>
        <time>2013-02-16T10:27:21Z</time>
      </trkpt>
      <trkpt lat="45.69159" lon="6.26188">
        <ele>1968.44</ele>
        <time>2013-02-16T10:27:22Z</time>
      </trkpt>
      <trkpt lat="45.6916" lon="6.26189">
        <ele>1965.55</ele>
        <time>2013-02-16T10:27:23Z</time>
      </trkpt>
      <trkpt lat="45.6916" lon="6.2619">
        <ele>1967.96</ele>
        <time>2013-02-16T10:27:24Z</time>
      </trkpt>
      <trkpt lat="45.6916" lon="6.26191">
        <ele>1968.44</ele>
        <time>2013-02-16T10:27:26Z</time>
      </trkpt>
      <trkpt lat="45.6916" lon="6.26192">
        <ele>1966.03</ele>
        <time>2013-02-16T10:27:27Z</time>
      </trkpt>
      <trkpt lat="45.6916" lon="6.26193">
        <ele>1969.4</ele>
        <time>2013-02-16T10:27:28Z</time>
      </trkpt>
      <trkpt lat="45.69161" lon="6.26196">
        <ele>1966.51</ele>
        <time>2013-02-16T10:27:29Z</time>
      </trkpt>
      <trkpt lat="45.69161" lon="6.26197">
        <ele>1969.88</ele>
        <time>2013-02-16T10:27:30Z</time>
      </trkpt>
      <trkpt lat="45.69161" lon="6.26198">
        <ele>1969.88</ele>
        <time>2013-02-16T10:27:31Z</time>
      </trkpt>
      <trkpt lat="45.6916" lon="6.262">
        <ele>1966.51</ele>
        <time>2013-02-16T10:27:32Z</time>
      </trkpt>
      <trkpt lat="45.6916" lon="6.262">
        <ele>1970.84</ele>
        <time>2013-02-16T10:27:33Z</time>
      </trkpt>
      <trkpt lat="45.6916" lon="6.26201">
        <ele>1966.99</ele>
        <time>2013-02-16T10:27:34Z</time>
      </trkpt>
      <trkpt lat="45.6916" lon="6.26202">
        <ele>1970.36</ele>
        <time>2013-02-16T10:27:35Z</time>
      </trkpt>
      <trkpt lat="45.69161" lon="6.26203">
        <ele>1966.99</ele>
        <time>2013-02-16T10:27:36Z</time>
      </trkpt>
      <trkpt lat="45.69161" lon="6.26203">
        <ele>1971.32</ele>
        <time>2013-02-16T10:27:37Z</time>
      </trkpt>
      <trkpt lat="45.69161" lon="6.26204">
        <ele>1968.44</ele>
        <time>2013-02-16T10:27:38Z</time>
      </trkpt>
      <trkpt lat="45.69162" lon="6.26205">
        <ele>1969.88</ele>
        <time>2013-02-16T10:27:40Z</time>
      </trkpt>
      <trkpt lat="45.69163" lon="6.26207">
        <ele>1967.96</ele>
        <time>2013-02-16T10:27:43Z</time>
      </trkpt>
      <trkpt lat="45.69163" lon="6.26208">
        <ele>1972.76</ele>
        <time>2013-02-16T10:27:44Z</time>
      </trkpt>
      <trkpt lat="45.69163" lon="6.26208">
        <ele>1969.4</ele>
        <time>2013-02-16T10:27:45Z</time>
      </trkpt>
      <trkpt lat="45.69163" lon="6.26209">
        <ele>1972.76</ele>
        <time>2013-02-16T10:27:46Z</time>
      </trkpt>
      <trkpt lat="45.69163" lon="6.2621">
        <ele>1969.4</ele>
        <time>2013-02-16T10:27:47Z</time>
      </trkpt>
      <trkpt lat="45.69163" lon="6.2621">
        <ele>1973.72</ele>
        <time>2013-02-16T10:27:48Z</time>
      </trkpt>
      <trkpt lat="45.69163" lon="6.26212">
        <ele>1969.88</ele>
        <time>2013-02-16T10:27:49Z</time>
      </trkpt>
      <trkpt lat="45.69163" lon="6.26214">
        <ele>1973.72</ele>
        <time>2013-02-16T10:27:50Z</time>
      </trkpt>
      <trkpt lat="45.69163" lon="6.26214">
        <ele>1969.88</ele>
        <time>2013-02-16T10:27:51Z</time>
      </trkpt>
      <trkpt lat="45.69163" lon="6.26215">
        <ele>1974.2</ele>
        <time>2013-02-16T10:27:52Z</time>
      </trkpt>
      <trkpt lat="45.69163" lon="6.26216">
        <ele>1969.88</ele>
        <time>2013-02-16T10:27:53Z</time>
      </trkpt>
      <trkpt lat="45.69163" lon="6.26218">
        <ele>1976.13</ele>
        <time>2013-02-16T10:27:54Z</time>
      </trkpt>
      <trkpt lat="45.69164" lon="6.26219">
        <ele>1970.36</ele>
        <time>2013-02-16T10:27:55Z</time>
      </trkpt>
      <trkpt lat="45.69165" lon="6.26222">
        <ele>1976.13</ele>
        <time>2013-02-16T10:27:56Z</time>
      </trkpt>
      <trkpt lat="45.69165" lon="6.26222">
        <ele>1976.13</ele>
        <time>2013-02-16T10:27:57Z</time>
      </trkpt>
      <trkpt lat="45.69166" lon="6.26223">
        <ele>1969.88</ele>
        <time>2013-02-16T10:27:58Z</time>
      </trkpt>
      <trkpt lat="45.69167" lon="6.26223">
        <ele>1975.65</ele>
        <time>2013-02-16T10:27:59Z</time>
      </trkpt>
      <trkpt lat="45.69167" lon="6.26224">
        <ele>1976.61</ele>
        <time>2013-02-16T10:28:00Z</time>
      </trkpt>
      <trkpt lat="45.69166" lon="6.26225">
        <ele>1976.13</ele>
        <time>2013-02-16T10:28:01Z</time>
      </trkpt>
      <trkpt lat="45.69166" lon="6.26224">
        <ele>1973.24</ele>
        <time>2013-02-16T10:28:02Z</time>
      </trkpt>
      <trkpt lat="45.69156" lon="6.26213">
        <ele>1974.69</ele>
        <time>2013-02-16T10:28:17Z</time>
      </trkpt>
      <trkpt lat="45.69149" lon="6.26205">
        <ele>1978.05</ele>
        <time>2013-02-16T10:28:27Z</time>
      </trkpt>
      <trkpt lat="45.69143" lon="6.26205">
        <ele>1976.61</ele>
        <time>2013-02-16T10:28:41Z</time>
      </trkpt>
      <trkpt lat="45.69144" lon="6.2621">
        <ele>1979.97</ele>
        <time>2013-02-16T10:28:48Z</time>
      </trkpt>
      <trkpt lat="45.69148" lon="6.26226">
        <ele>1983.82</ele>
        <time>2013-02-16T10:29:01Z</time>
      </trkpt>
      <trkpt lat="45.69148" lon="6.26226">
        <ele>1980.93</ele>
        <time>2013-02-16T10:29:02Z</time>
      </trkpt>
      <trkpt lat="45.69149" lon="6.26233">
        <ele>1985.26</ele>
        <time>2013-02-16T10:29:07Z</time>
      </trkpt>
      <trkpt lat="45.69153" lon="6.2624">
        <ele>1981.9</ele>
        <time>2013-02-16T10:29:15Z</time>
      </trkpt>
      <trkpt lat="45.69153" lon="6.26241">
        <ele>1986.22</ele>
        <time>2013-02-16T10:29:16Z</time>
      </trkpt>
      <trkpt lat="45.69154" lon="6.26242">
        <ele>1982.86</ele>
        <time>2013-02-16T10:29:17Z</time>
      </trkpt>
      <trkpt lat="45.69154" lon="6.26242">
        <ele>1987.66</ele>
        <time>2013-02-16T10:29:18Z</time>
      </trkpt>
      <trkpt lat="45.69155" lon="6.26243">
        <ele>1981.9</ele>
        <time>2013-02-16T10:29:19Z</time>
      </trkpt>
      <trkpt lat="45.69156" lon="6.26244">
        <ele>1988.62</ele>
        <time>2013-02-16T10:29:20Z</time>
      </trkpt>
      <trkpt lat="45.69156" lon="6.26245">
        <ele>1982.38</ele>
        <time>2013-02-16T10:29:21Z</time>
      </trkpt>
      <trkpt lat="45.69157" lon="6.26247">
        <ele>1988.62</ele>
        <time>2013-02-16T10:29:22Z</time>
      </trkpt>
      <trkpt lat="45.69158" lon="6.26248">
        <ele>1982.86</ele>
        <time>2013-02-16T10:29:23Z</time>
      </trkpt>
      <trkpt lat="45.69158" lon="6.26248">
        <ele>1987.18</ele>
        <time>2013-02-16T10:29:24Z</time>
      </trkpt>
      <trkpt lat="45.69163" lon="6.26258">
        <ele>1985.74</ele>
        <time>2013-02-16T10:29:35Z</time>
      </trkpt>
      <trkpt lat="45.69164" lon="6.26259">
        <ele>1989.1</ele>
        <time>2013-02-16T10:29:36Z</time>
      </trkpt>
      <trkpt lat="45.69164" lon="6.26261">
        <ele>1985.26</ele>
        <time>2013-02-16T10:29:39Z</time>
      </trkpt>
      <trkpt lat="45.69165" lon="6.26262">
        <ele>1990.55</ele>
        <time>2013-02-16T10:29:40Z</time>
      </trkpt>
      <trkpt lat="45.69165" lon="6.26263">
        <ele>1986.22</ele>
        <time>2013-02-16T10:29:41Z</time>
      </trkpt>
      <trkpt lat="45.69165" lon="6.26263">
        <ele>1986.22</ele>
        <time>2013-02-16T10:29:43Z</time>
      </trkpt>
      <trkpt lat="45.69165" lon="6.26264">
        <ele>1992.47</ele>
        <time>2013-02-16T10:29:44Z</time>
      </trkpt>
      <trkpt lat="45.69166" lon="6.26264">
        <ele>1983.34</ele>
        <time>2013-02-16T10:29:45Z</time>
      </trkpt>
      <trkpt lat="45.69166" lon="6.26264">
        <ele>1994.39</ele>
        <time>2013-02-16T10:29:46Z</time>
      </trkpt>
      <trkpt lat="45.69166" lon="6.26265">
        <ele>1984.78</ele>
        <time>2013-02-16T10:29:47Z</time>
      </trkpt>
      <trkpt lat="45.69166" lon="6.26265">
        <ele>1994.39</ele>
        <time>2013-02-16T10:29:48Z</time>
      </trkpt>
      <trkpt lat="45.69166" lon="6.26266">
        <ele>1989.1</ele>
        <time>2013-02-16T10:29:49Z</time>
      </trkpt>
      <trkpt lat="45.69166" lon="6.26267">
        <ele>1989.59</ele>
        <time>2013-02-16T10:29:52Z</time>
      </trkpt>
      <trkpt lat="45.69165" lon="6.26267">
        <ele>1988.62</ele>
        <time>2013-02-16T10:29:58Z</time>
      </trkpt>
      <trkpt lat="45.69162" lon="6.26259">
        <ele>1988.14</ele>
        <time>2013-02-16T10:30:24Z</time>
      </trkpt>
      <trkpt lat="45.69162" lon="6.26254">
        <ele>1992.47</ele>
        <time>2013-02-16T10:30:36Z</time>
      </trkpt>
      <trkpt lat="45.69161" lon="6.26254">
        <ele>1989.1</ele>
        <time>2013-02-16T10:30:37Z</time>
      </trkpt>
      <trkpt lat="45.69162" lon="6.26254">
        <ele>1993.43</ele>
        <time>2013-02-16T10:30:39Z</time>
      </trkpt>
      <trkpt lat="45.69162" lon="6.26254">
        <ele>1991.03</ele>
        <time>2013-02-16T10:30:40Z</time>
      </trkpt>
      <trkpt lat="45.69151" lon="6.26252">
        <ele>1993.91</ele>
        <time>2013-02-16T10:30:56Z</time>
      </trkpt>
      <trkpt lat="45.69144" lon="6.26252">
        <ele>1997.76</ele>
        <time>2013-02-16T10:31:09Z</time>
      </trkpt>
      <trkpt lat="45.69141" lon="6.26252">
        <ele>1994.87</ele>
        <time>2013-02-16T10:31:14Z</time>
      </trkpt>
      <trkpt lat="45.69139" lon="6.26251">
        <ele>1997.76</ele>
        <time>2013-02-16T10:31:16Z</time>
      </trkpt>
      <trkpt lat="45.69138" lon="6.26251">
        <ele>1997.28</ele>
        <time>2013-02-16T10:31:17Z</time>
      </trkpt>
      <trkpt lat="45.69131" lon="6.26248">
        <ele>1999.2</ele>
        <time>2013-02-16T10:31:30Z</time>
      </trkpt>
      <trkpt lat="45.69125" lon="6.26245">
        <ele>1997.76</ele>
        <time>2013-02-16T10:31:39Z</time>
      </trkpt>
      <trkpt lat="45.69124" lon="6.26245">
        <ele>2002.08</ele>
        <time>2013-02-16T10:31:40Z</time>
      </trkpt>
      <trkpt lat="45.69124" lon="6.26244">
        <ele>1998.72</ele>
        <time>2013-02-16T10:31:41Z</time>
      </trkpt>
      <trkpt lat="45.69123" lon="6.26243">
        <ele>2002.56</ele>
        <time>2013-02-16T10:31:42Z</time>
      </trkpt>
      <trkpt lat="45.69122" lon="6.26243">
        <ele>1997.76</ele>
        <time>2013-02-16T10:31:43Z</time>
      </trkpt>
      <trkpt lat="45.69122" lon="6.26243">
        <ele>2003.04</ele>
        <time>2013-02-16T10:31:44Z</time>
      </trkpt>
      <trkpt lat="45.69122" lon="6.26243">
        <ele>1999.2</ele>
        <time>2013-02-16T10:31:45Z</time>
      </trkpt>
      <trkpt lat="45.69121" lon="6.26243">
        <ele>2003.04</ele>
        <time>2013-02-16T10:31:46Z</time>
      </trkpt>
      <trkpt lat="45.69121" lon="6.26244">
        <ele>1996.32</ele>
        <time>2013-02-16T10:31:55Z</time>
      </trkpt>
      <trkpt lat="45.69122" lon="6.26245">
        <ele>2002.08</ele>
        <time>2013-02-16T10:31:56Z</time>
      </trkpt>
      <trkpt lat="45.69122" lon="6.26245">
        <ele>2005.93</ele>
        <time>2013-02-16T10:31:57Z</time>
      </trkpt>
      <trkpt lat="45.69122" lon="6.26246">
        <ele>2002.56</ele>
        <time>2013-02-16T10:31:58Z</time>
      </trkpt>
      <trkpt lat="45.69122" lon="6.26247">
        <ele>1999.2</ele>
        <time>2013-02-16T10:31:59Z</time>
      </trkpt>
      <trkpt lat="45.69123" lon="6.26247">
        <ele>2004.49</ele>
        <time>2013-02-16T10:32:00Z</time>
      </trkpt>
      <trkpt lat="45.69123" lon="6.26252">
        <ele>1999.2</ele>
        <time>2013-02-16T10:32:04Z</time>
      </trkpt>
      <trkpt lat="45.69124" lon="6.26253">
        <ele>1998.72</ele>
        <time>2013-02-16T10:32:05Z</time>
      </trkpt>
      <trkpt lat="45.69124" lon="6.26255">
        <ele>2005.45</ele>
        <time>2013-02-16T10:32:06Z</time>
      </trkpt>
      <trkpt lat="45.69124" lon="6.26255">
        <ele>1998.24</ele>
        <time>2013-02-16T10:32:07Z</time>
      </trkpt>
      <trkpt lat="45.69124" lon="6.26256">
        <ele>2006.41</ele>
        <time>2013-02-16T10:32:08Z</time>
      </trkpt>
      <trkpt lat="45.69125" lon="6.26257">
        <ele>1998.72</ele>
        <time>2013-02-16T10:32:09Z</time>
      </trkpt>
      <trkpt lat="45.69125" lon="6.26258">
        <ele>2007.85</ele>
        <time>2013-02-16T10:32:10Z</time>
      </trkpt>
      <trkpt lat="45.69125" lon="6.26259">
        <ele>2000.16</ele>
        <time>2013-02-16T10:32:11Z</time>
      </trkpt>
      <trkpt lat="45.69126" lon="6.26259">
        <ele>2006.89</ele>
        <time>2013-02-16T10:32:12Z</time>
      </trkpt>
      <trkpt lat="45.69126" lon="6.26261">
        <ele>2000.64</ele>
        <time>2013-02-16T10:32:13Z</time>
      </trkpt>
      <trkpt lat="45.69126" lon="6.26261">
        <ele>2006.89</ele>
        <time>2013-02-16T10:32:14Z</time>
      </trkpt>
      <trkpt lat="45.69127" lon="6.26262">
        <ele>2001.12</ele>
        <time>2013-02-16T10:32:15Z</time>
      </trkpt>
      <trkpt lat="45.69127" lon="6.26263">
        <ele>2007.85</ele>
        <time>2013-02-16T10:32:16Z</time>
      </trkpt>
      <trkpt lat="45.69127" lon="6.26263">
        <ele>2001.6</ele>
        <time>2013-02-16T10:32:17Z</time>
      </trkpt>
      <trkpt lat="45.69128" lon="6.26264">
        <ele>2007.85</ele>
        <time>2013-02-16T10:32:18Z</time>
      </trkpt>
      <trkpt lat="45.69128" lon="6.26265">
        <ele>2002.08</ele>
        <time>2013-02-16T10:32:19Z</time>
      </trkpt>
      <trkpt lat="45.69128" lon="6.26267">
        <ele>2007.85</ele>
        <time>2013-02-16T10:32:20Z</time>
      </trkpt>
      <trkpt lat="45.69128" lon="6.26267">
        <ele>2002.56</ele>
        <time>2013-02-16T10:32:21Z</time>
      </trkpt>
      <trkpt lat="45.69128" lon="6.26269">
        <ele>2008.33</ele>
        <time>2013-02-16T10:32:22Z</time>
      </trkpt>
      <trkpt lat="45.69129" lon="6.26269">
        <ele>2003.52</ele>
        <time>2013-02-16T10:32:23Z</time>
      </trkpt>
      <trkpt lat="45.6913" lon="6.2627">
        <ele>2009.29</ele>
        <time>2013-02-16T10:32:24Z</time>
      </trkpt>
      <trkpt lat="45.69131" lon="6.26271">
        <ele>2004.49</ele>
        <time>2013-02-16T10:32:25Z</time>
      </trkpt>
      <trkpt lat="45.69131" lon="6.26271">
        <ele>2008.81</ele>
        <time>2013-02-16T10:32:26Z</time>
      </trkpt>
      <trkpt lat="45.69137" lon="6.26286">
        <ele>2011.22</ele>
        <time>2013-02-16T10:32:42Z</time>
      </trkpt>
      <trkpt lat="45.69137" lon="6.26287">
        <ele>2006.89</ele>
        <time>2013-02-16T10:32:43Z</time>
      </trkpt>
      <trkpt lat="45.69137" lon="6.26288">
        <ele>2012.18</ele>
        <time>2013-02-16T10:32:44Z</time>
      </trkpt>
      <trkpt lat="45.69137" lon="6.26288">
        <ele>2008.33</ele>
        <time>2013-02-16T10:32:45Z</time>
      </trkpt>
      <trkpt lat="45.69138" lon="6.26288">
        <ele>2011.7</ele>
        <time>2013-02-16T10:32:46Z</time>
      </trkpt>
      <trkpt lat="45.6914" lon="6.2629">
        <ele>2008.33</ele>
        <time>2013-02-16T10:32:49Z</time>
      </trkpt>
      <trkpt lat="45.69141" lon="6.26291">
        <ele>2014.1</ele>
        <time>2013-02-16T10:32:50Z</time>
      </trkpt>
      <trkpt lat="45.69142" lon="6.26291">
        <ele>2009.77</ele>
        <time>2013-02-16T10:32:51Z</time>
      </trkpt>
      <trkpt lat="45.69143" lon="6.26292">
        <ele>2013.14</ele>
        <time>2013-02-16T10:32:52Z</time>
      </trkpt>
      <trkpt lat="45.69143" lon="6.26292">
        <ele>2008.81</ele>
        <time>2013-02-16T10:32:53Z</time>
      </trkpt>
      <trkpt lat="45.69145" lon="6.26293">
        <ele>2016.5</ele>
        <time>2013-02-16T10:32:55Z</time>
      </trkpt>
      <trkpt lat="45.69146" lon="6.26293">
        <ele>2008.81</ele>
        <time>2013-02-16T10:32:56Z</time>
      </trkpt>
      <trkpt lat="45.69147" lon="6.26293">
        <ele>2015.06</ele>
        <time>2013-02-16T10:32:57Z</time>
      </trkpt>
      <trkpt lat="45.69146" lon="6.26297">
        <ele>2008.33</ele>
        <time>2013-02-16T10:32:58Z</time>
      </trkpt>
      <trkpt lat="45.69146" lon="6.263">
        <ele>2014.58</ele>
        <time>2013-02-16T10:32:59Z</time>
      </trkpt>
      <trkpt lat="45.69142" lon="6.26289">
        <ele>2011.7</ele>
        <time>2013-02-16T10:33:13Z</time>
      </trkpt>
      <trkpt lat="45.69142" lon="6.26289">
        <ele>2015.54</ele>
        <time>2013-02-16T10:33:14Z</time>
      </trkpt>
      <trkpt lat="45.69142" lon="6.26288">
        <ele>2011.7</ele>
        <time>2013-02-16T10:33:15Z</time>
      </trkpt>
      <trkpt lat="45.69139" lon="6.26288">
        <ele>2016.02</ele>
        <time>2013-02-16T10:33:19Z</time>
      </trkpt>
      <trkpt lat="45.69138" lon="6.26288">
        <ele>2015.54</ele>
        <time>2013-02-16T10:33:20Z</time>
      </trkpt>
      <trkpt lat="45.69135" lon="6.26287">
        <ele>2015.06</ele>
        <time>2013-02-16T10:33:25Z</time>
      </trkpt>
      <trkpt lat="45.6913" lon="6.26287">
        <ele>2018.91</ele>
        <time>2013-02-16T10:33:36Z</time>
      </trkpt>
      <trkpt lat="45.6913" lon="6.26287">
        <ele>2015.54</ele>
        <time>2013-02-16T10:33:37Z</time>
      </trkpt>
      <trkpt lat="45.6913" lon="6.26287">
        <ele>2019.87</ele>
        <time>2013-02-16T10:33:38Z</time>
      </trkpt>
      <trkpt lat="45.6913" lon="6.26287">
        <ele>2013.62</ele>
        <time>2013-02-16T10:33:39Z</time>
      </trkpt>
      <trkpt lat="45.6913" lon="6.26287">
        <ele>2020.83</ele>
        <time>2013-02-16T10:33:40Z</time>
      </trkpt>
      <trkpt lat="45.69129" lon="6.26287">
        <ele>2016.98</ele>
        <time>2013-02-16T10:33:41Z</time>
      </trkpt>
      <trkpt lat="45.69127" lon="6.26287">
        <ele>2019.87</ele>
        <time>2013-02-16T10:33:45Z</time>
      </trkpt>
      <trkpt lat="45.69126" lon="6.26287">
        <ele>2016.98</ele>
        <time>2013-02-16T10:33:47Z</time>
      </trkpt>
      <trkpt lat="45.69126" lon="6.26286">
        <ele>2020.83</ele>
        <time>2013-02-16T10:33:48Z</time>
      </trkpt>
      <trkpt lat="45.69125" lon="6.26286">
        <ele>2016.98</ele>
        <time>2013-02-16T10:33:49Z</time>
      </trkpt>
      <trkpt lat="45.69125" lon="6.26286">
        <ele>2020.35</ele>
        <time>2013-02-16T10:33:50Z</time>
      </trkpt>
      <trkpt lat="45.69124" lon="6.26286">
        <ele>2016.02</ele>
        <time>2013-02-16T10:33:51Z</time>
      </trkpt>
      <trkpt lat="45.69124" lon="6.26286">
        <ele>2020.35</ele>
        <time>2013-02-16T10:33:52Z</time>
      </trkpt>
      <trkpt lat="45.69118" lon="6.26285">
        <ele>2023.71</ele>
        <time>2013-02-16T10:34:05Z</time>
      </trkpt>
      <trkpt lat="45.69117" lon="6.26285">
        <ele>2018.91</ele>
        <time>2013-02-16T10:34:06Z</time>
      </trkpt>
      <trkpt lat="45.69117" lon="6.26285">
        <ele>2021.79</ele>
        <time>2013-02-16T10:34:07Z</time>
      </trkpt>
      <trkpt lat="45.69115" lon="6.26285">
        <ele>2019.39</ele>
        <time>2013-02-16T10:34:11Z</time>
      </trkpt>
      <trkpt lat="45.69114" lon="6.26284">
        <ele>2025.64</ele>
        <time>2013-02-16T10:34:12Z</time>
      </trkpt>
      <trkpt lat="45.69114" lon="6.26284">
        <ele>2020.83</ele>
        <time>2013-02-16T10:34:13Z</time>
      </trkpt>
      <trkpt lat="45.69113" lon="6.26284">
        <ele>2024.67</ele>
        <time>2013-02-16T10:34:14Z</time>
      </trkpt>
      <trkpt lat="45.69113" lon="6.26284">
        <ele>2021.31</ele>
        <time>2013-02-16T10:34:16Z</time>
      </trkpt>
      <trkpt lat="45.69112" lon="6.26284">
        <ele>2024.67</ele>
        <time>2013-02-16T10:34:17Z</time>
      </trkpt>
      <trkpt lat="45.69111" lon="6.26284">
        <ele>2021.31</ele>
        <time>2013-02-16T10:34:24Z</time>
      </trkpt>
      <trkpt lat="45.69111" lon="6.26284">
        <ele>2024.67</ele>
        <time>2013-02-16T10:34:26Z</time>
      </trkpt>
      <trkpt lat="45.69111" lon="6.26286">
        <ele>2025.64</ele>
        <time>2013-02-16T10:34:29Z</time>
      </trkpt>
      <trkpt lat="45.69112" lon="6.26287">
        <ele>2019.87</ele>
        <time>2013-02-16T10:34:33Z</time>
      </trkpt>
      <trkpt lat="45.69112" lon="6.26288">
        <ele>2027.08</ele>
        <time>2013-02-16T10:34:34Z</time>
      </trkpt>
      <trkpt lat="45.69113" lon="6.26289">
        <ele>2023.71</ele>
        <time>2013-02-16T10:34:38Z</time>
      </trkpt>
      <trkpt lat="45.69114" lon="6.26295">
        <ele>2026.6</ele>
        <time>2013-02-16T10:34:55Z</time>
      </trkpt>
      <trkpt lat="45.69116" lon="6.263">
        <ele>2027.08</ele>
        <time>2013-02-16T10:34:59Z</time>
      </trkpt>
      <trkpt lat="45.69117" lon="6.26312">
        <ele>2027.08</ele>
        <time>2013-02-16T10:35:23Z</time>
      </trkpt>
      <trkpt lat="45.69119" lon="6.26317">
        <ele>2029.96</ele>
        <time>2013-02-16T10:35:37Z</time>
      </trkpt>
      <trkpt lat="45.69119" lon="6.26315">
        <ele>2031.4</ele>
        <time>2013-02-16T10:35:49Z</time>
      </trkpt>
      <trkpt lat="45.69121" lon="6.26303">
        <ele>2031.88</ele>
        <time>2013-02-16T10:36:05Z</time>
      </trkpt>
      <trkpt lat="45.69116" lon="6.26304">
        <ele>2034.29</ele>
        <time>2013-02-16T10:36:15Z</time>
      </trkpt>
      <trkpt lat="45.69109" lon="6.26303">
        <ele>2036.21</ele>
        <time>2013-02-16T10:36:26Z</time>
      </trkpt>
      <trkpt lat="45.69098" lon="6.263">
        <ele>2039.57</ele>
        <time>2013-02-16T10:36:40Z</time>
      </trkpt>
      <trkpt lat="45.69092" lon="6.26298">
        <ele>2039.57</ele>
        <time>2013-02-16T10:36:51Z</time>
      </trkpt>
      <trkpt lat="45.69084" lon="6.26295">
        <ele>2041.5</ele>
        <time>2013-02-16T10:37:02Z</time>
      </trkpt>
      <trkpt lat="45.69077" lon="6.26291">
        <ele>2043.9</ele>
        <time>2013-02-16T10:37:15Z</time>
      </trkpt>
      <trkpt lat="45.69072" lon="6.26288">
        <ele>2044.38</ele>
        <time>2013-02-16T10:37:21Z</time>
      </trkpt>
      <trkpt lat="45.6907" lon="6.26287">
        <ele>2045.34</ele>
        <time>2013-02-16T10:37:24Z</time>
      </trkpt>
      <trkpt lat="45.69064" lon="6.26282">
        <ele>2047.75</ele>
        <time>2013-02-16T10:37:33Z</time>
      </trkpt>
      <trkpt lat="45.69054" lon="6.26279">
        <ele>2049.67</ele>
        <time>2013-02-16T10:37:46Z</time>
      </trkpt>
      <trkpt lat="45.69049" lon="6.26275">
        <ele>2049.67</ele>
        <time>2013-02-16T10:37:52Z</time>
      </trkpt>
      <trkpt lat="45.69042" lon="6.26274">
        <ele>2052.07</ele>
        <time>2013-02-16T10:38:04Z</time>
      </trkpt>
      <trkpt lat="45.69041" lon="6.26273">
        <ele>2052.55</ele>
        <time>2013-02-16T10:38:08Z</time>
      </trkpt>
      <trkpt lat="45.69038" lon="6.26271">
        <ele>2053.03</ele>
        <time>2013-02-16T10:38:12Z</time>
      </trkpt>
      <trkpt lat="45.69035" lon="6.26266">
        <ele>2054.96</ele>
        <time>2013-02-16T10:38:22Z</time>
      </trkpt>
      <trkpt lat="45.69031" lon="6.2626">
        <ele>2057.36</ele>
        <time>2013-02-16T10:38:34Z</time>
      </trkpt>
      <trkpt lat="45.69027" lon="6.26256">
        <ele>2057.84</ele>
        <time>2013-02-16T10:38:42Z</time>
      </trkpt>
      <trkpt lat="45.69026" lon="6.26255">
        <ele>2058.32</ele>
        <time>2013-02-16T10:38:44Z</time>
      </trkpt>
      <trkpt lat="45.69022" lon="6.26251">
        <ele>2059.76</ele>
        <time>2013-02-16T10:38:52Z</time>
      </trkpt>
      <trkpt lat="45.69017" lon="6.26245">
        <ele>2062.17</ele>
        <time>2013-02-16T10:39:06Z</time>
      </trkpt>
      <trkpt lat="45.69012" lon="6.26243">
        <ele>2063.13</ele>
        <time>2013-02-16T10:39:17Z</time>
      </trkpt>
      <trkpt lat="45.69013" lon="6.26255">
        <ele>2065.53</ele>
        <time>2013-02-16T10:39:30Z</time>
      </trkpt>
      <trkpt lat="45.69011" lon="6.26259">
        <ele>2066.97</ele>
        <time>2013-02-16T10:39:50Z</time>
      </trkpt>
      <trkpt lat="45.69011" lon="6.26263">
        <ele>2068.41</ele>
        <time>2013-02-16T10:39:55Z</time>
      </trkpt>
      <trkpt lat="45.69011" lon="6.26269">
        <ele>2069.38</ele>
        <time>2013-02-16T10:40:02Z</time>
      </trkpt>
      <trkpt lat="45.69009" lon="6.26275">
        <ele>2070.34</ele>
        <time>2013-02-16T10:40:07Z</time>
      </trkpt>
      <trkpt lat="45.69006" lon="6.2629">
        <ele>2072.74</ele>
        <time>2013-02-16T10:40:23Z</time>
      </trkpt>
      <trkpt lat="45.69006" lon="6.26294">
        <ele>2074.18</ele>
        <time>2013-02-16T10:40:30Z</time>
      </trkpt>
      <trkpt lat="45.69007" lon="6.26306">
        <ele>2077.55</ele>
        <time>2013-02-16T10:40:43Z</time>
      </trkpt>
      <trkpt lat="45.69009" lon="6.26313">
        <ele>2078.99</ele>
        <time>2013-02-16T10:40:52Z</time>
      </trkpt>
      <trkpt lat="45.69004" lon="6.26313">
        <ele>2080.91</ele>
        <time>2013-02-16T10:41:03Z</time>
      </trkpt>
      <trkpt lat="45.68997" lon="6.26308">
        <ele>2080.91</ele>
        <time>2013-02-16T10:41:15Z</time>
      </trkpt>
      <trkpt lat="45.68996" lon="6.26307">
        <ele>2082.35</ele>
        <time>2013-02-16T10:41:18Z</time>
      </trkpt>
      <trkpt lat="45.68993" lon="6.26305">
        <ele>2084.28</ele>
        <time>2013-02-16T10:41:22Z</time>
      </trkpt>
      <trkpt lat="45.68988" lon="6.26297">
        <ele>2084.76</ele>
        <time>2013-02-16T10:41:33Z</time>
      </trkpt>
      <trkpt lat="45.68986" lon="6.26295">
        <ele>2085.24</ele>
        <time>2013-02-16T10:41:36Z</time>
      </trkpt>
      <trkpt lat="45.68984" lon="6.26289">
        <ele>2083.31</ele>
        <time>2013-02-16T10:41:41Z</time>
      </trkpt>
      <trkpt lat="45.68981" lon="6.26279">
        <ele>2082.83</ele>
        <time>2013-02-16T10:41:48Z</time>
      </trkpt>
      <trkpt lat="45.68981" lon="6.26272">
        <ele>2084.76</ele>
        <time>2013-02-16T10:41:53Z</time>
      </trkpt>
      <trkpt lat="45.68981" lon="6.2627">
        <ele>2084.76</ele>
        <time>2013-02-16T10:41:55Z</time>
      </trkpt>
      <trkpt lat="45.6898" lon="6.26268">
        <ele>2086.2</ele>
        <time>2013-02-16T10:41:57Z</time>
      </trkpt>
      <trkpt lat="45.68979" lon="6.26263">
        <ele>2084.76</ele>
        <time>2013-02-16T10:42:02Z</time>
      </trkpt>
      <trkpt lat="45.68979" lon="6.26259">
        <ele>2085.24</ele>
        <time>2013-02-16T10:42:13Z</time>
      </trkpt>
      <trkpt lat="45.68977" lon="6.26255">
        <ele>2085.72</ele>
        <time>2013-02-16T10:42:27Z</time>
      </trkpt>
      <trkpt lat="45.68975" lon="6.26251">
        <ele>2087.64</ele>
        <time>2013-02-16T10:42:31Z</time>
      </trkpt>
      <trkpt lat="45.68973" lon="6.26247">
        <ele>2087.64</ele>
        <time>2013-02-16T10:42:35Z</time>
      </trkpt>
      <trkpt lat="45.68973" lon="6.26246">
        <ele>2087.16</ele>
        <time>2013-02-16T10:42:36Z</time>
      </trkpt>
      <trkpt lat="45.68972" lon="6.26244">
        <ele>2088.12</ele>
        <time>2013-02-16T10:42:38Z</time>
      </trkpt>
      <trkpt lat="45.68972" lon="6.26242">
        <ele>2088.6</ele>
        <time>2013-02-16T10:42:40Z</time>
      </trkpt>
      <trkpt lat="45.6897" lon="6.26239">
        <ele>2087.16</ele>
        <time>2013-02-16T10:42:43Z</time>
      </trkpt>
      <trkpt lat="45.68969" lon="6.26236">
        <ele>2088.12</ele>
        <time>2013-02-16T10:42:45Z</time>
      </trkpt>
      <trkpt lat="45.68966" lon="6.26233">
        <ele>2087.16</ele>
        <time>2013-02-16T10:42:50Z</time>
      </trkpt>
      <trkpt lat="45.68965" lon="6.26231">
        <ele>2090.04</ele>
        <time>2013-02-16T10:42:52Z</time>
      </trkpt>
      <trkpt lat="45.68963" lon="6.2623">
        <ele>2088.6</ele>
        <time>2013-02-16T10:42:54Z</time>
      </trkpt>
      <trkpt lat="45.68962" lon="6.26227">
        <ele>2090.52</ele>
        <time>2013-02-16T10:42:56Z</time>
      </trkpt>
      <trkpt lat="45.68955" lon="6.26222">
        <ele>2089.56</ele>
        <time>2013-02-16T10:43:05Z</time>
      </trkpt>
      <trkpt lat="45.68953" lon="6.26221">
        <ele>2091</ele>
        <time>2013-02-16T10:43:07Z</time>
      </trkpt>
      <trkpt lat="45.68949" lon="6.26218">
        <ele>2092.93</ele>
        <time>2013-02-16T10:43:11Z</time>
      </trkpt>
      <trkpt lat="45.68947" lon="6.26217">
        <ele>2094.37</ele>
        <time>2013-02-16T10:43:14Z</time>
      </trkpt>
      <trkpt lat="45.68944" lon="6.26216">
        <ele>2095.81</ele>
        <time>2013-02-16T10:43:18Z</time>
      </trkpt>
      <trkpt lat="45.6894" lon="6.26216">
        <ele>2095.33</ele>
        <time>2013-02-16T10:43:22Z</time>
      </trkpt>
      <trkpt lat="45.68934" lon="6.26216">
        <ele>2097.25</ele>
        <time>2013-02-16T10:43:32Z</time>
      </trkpt>
      <trkpt lat="45.68931" lon="6.26211">
        <ele>2098.7</ele>
        <time>2013-02-16T10:43:39Z</time>
      </trkpt>
      <trkpt lat="45.6893" lon="6.26208">
        <ele>2100.62</ele>
        <time>2013-02-16T10:43:45Z</time>
      </trkpt>
      <trkpt lat="45.68925" lon="6.26203">
        <ele>2102.06</ele>
        <time>2013-02-16T10:43:54Z</time>
      </trkpt>
      <trkpt lat="45.6892" lon="6.26195">
        <ele>2103.02</ele>
        <time>2013-02-16T10:44:03Z</time>
      </trkpt>
      <trkpt lat="45.6892" lon="6.26195">
        <ele>2103.5</ele>
        <time>2013-02-16T10:44:04Z</time>
      </trkpt>
      <trkpt lat="45.68917" lon="6.26186">
        <ele>2103.98</ele>
        <time>2013-02-16T10:44:14Z</time>
      </trkpt>
      <trkpt lat="45.68913" lon="6.26179">
        <ele>2106.39</ele>
        <time>2013-02-16T10:44:24Z</time>
      </trkpt>
      <trkpt lat="45.68913" lon="6.26176">
        <ele>2108.31</ele>
        <time>2013-02-16T10:44:28Z</time>
      </trkpt>
      <trkpt lat="45.68911" lon="6.26173">
        <ele>2107.83</ele>
        <time>2013-02-16T10:44:32Z</time>
      </trkpt>
      <trkpt lat="45.68909" lon="6.26168">
        <ele>2109.75</ele>
        <time>2013-02-16T10:44:39Z</time>
      </trkpt>
      <trkpt lat="45.68905" lon="6.26163">
        <ele>2110.71</ele>
        <time>2013-02-16T10:44:48Z</time>
      </trkpt>
      <trkpt lat="45.68901" lon="6.26158">
        <ele>2111.67</ele>
        <time>2013-02-16T10:45:02Z</time>
      </trkpt>
      <trkpt lat="45.68897" lon="6.26152">
        <ele>2113.6</ele>
        <time>2013-02-16T10:45:11Z</time>
      </trkpt>
      <trkpt lat="45.68891" lon="6.26146">
        <ele>2116</ele>
        <time>2013-02-16T10:45:25Z</time>
      </trkpt>
      <trkpt lat="45.68888" lon="6.26144">
        <ele>2117.44</ele>
        <time>2013-02-16T10:45:32Z</time>
      </trkpt>
      <trkpt lat="45.68882" lon="6.26141">
        <ele>2119.36</ele>
        <time>2013-02-16T10:45:44Z</time>
      </trkpt>
      <trkpt lat="45.6888" lon="6.26133">
        <ele>2121.77</ele>
        <time>2013-02-16T10:46:00Z</time>
      </trkpt>
      <trkpt lat="45.68878" lon="6.26131">
        <ele>2123.21</ele>
        <time>2013-02-16T10:46:03Z</time>
      </trkpt>
      <trkpt lat="45.68876" lon="6.26125">
        <ele>2125.13</ele>
        <time>2013-02-16T10:46:16Z</time>
      </trkpt>
      <trkpt lat="45.68876" lon="6.26118">
        <ele>2126.57</ele>
        <time>2013-02-16T10:46:26Z</time>
      </trkpt>
      <trkpt lat="45.68873" lon="6.26113">
        <ele>2129.46</ele>
        <time>2013-02-16T10:46:37Z</time>
      </trkpt>
      <trkpt lat="45.68873" lon="6.26112">
        <ele>2128.98</ele>
        <time>2013-02-16T10:46:39Z</time>
      </trkpt>
      <trkpt lat="45.6887" lon="6.26107">
        <ele>2130.42</ele>
        <time>2013-02-16T10:46:49Z</time>
      </trkpt>
      <trkpt lat="45.6887" lon="6.26107">
        <ele>2129.46</ele>
        <time>2013-02-16T10:47:12Z</time>
      </trkpt>
      <trkpt lat="45.6887" lon="6.26107">
        <ele>2129.94</ele>
        <time>2013-02-16T10:47:32Z</time>
      </trkpt>
      <trkpt lat="45.68869" lon="6.26108">
        <ele>2130.42</ele>
        <time>2013-02-16T10:47:50Z</time>
      </trkpt>
      <trkpt lat="45.6887" lon="6.26108">
        <ele>2130.9</ele>
        <time>2013-02-16T10:48:12Z</time>
      </trkpt>
      <trkpt lat="45.68871" lon="6.26108">
        <ele>2129.94</ele>
        <time>2013-02-16T10:48:31Z</time>
      </trkpt>
      <trkpt lat="45.6887" lon="6.26111">
        <ele>2129.46</ele>
        <time>2013-02-16T10:48:44Z</time>
      </trkpt>
      <trkpt lat="45.6887" lon="6.26108">
        <ele>2130.42</ele>
        <time>2013-02-16T10:49:08Z</time>
      </trkpt>
      <trkpt lat="45.6887" lon="6.26106">
        <ele>2129.94</ele>
        <time>2013-02-16T10:49:39Z</time>
      </trkpt>
      <trkpt lat="45.68869" lon="6.26106">
        <ele>2129.94</ele>
        <time>2013-02-16T10:50:03Z</time>
      </trkpt>
      <trkpt lat="45.68869" lon="6.26108">
        <ele>2129.46</ele>
        <time>2013-02-16T10:50:30Z</time>
      </trkpt>
      <trkpt lat="45.68872" lon="6.26109">
        <ele>2130.9</ele>
        <time>2013-02-16T10:50:48Z</time>
      </trkpt>
      <trkpt lat="45.68871" lon="6.26111">
        <ele>2127.53</ele>
        <time>2013-02-16T10:50:57Z</time>
      </trkpt>
      <trkpt lat="45.6887" lon="6.26112">
        <ele>2130.9</ele>
        <time>2013-02-16T10:51:30Z</time>
      </trkpt>
      <trkpt lat="45.6887" lon="6.26112">
        <ele>2130.42</ele>
        <time>2013-02-16T10:51:31Z</time>
      </trkpt>
      <trkpt lat="45.68871" lon="6.2611">
        <ele>2128.98</ele>
        <time>2013-02-16T10:51:41Z</time>
      </trkpt>
      <trkpt lat="45.6887" lon="6.26109">
        <ele>2128.5</ele>
        <time>2013-02-16T10:51:54Z</time>
      </trkpt>
      <trkpt lat="45.68869" lon="6.26108">
        <ele>2128.98</ele>
        <time>2013-02-16T10:52:14Z</time>
      </trkpt>
      <trkpt lat="45.68869" lon="6.26108">
        <ele>2128.02</ele>
        <time>2013-02-16T10:52:33Z</time>
      </trkpt>
      <trkpt lat="45.68871" lon="6.26111">
        <ele>2130.42</ele>
        <time>2013-02-16T10:52:53Z</time>
      </trkpt>
      <trkpt lat="45.68871" lon="6.26108">
        <ele>2128.02</ele>
        <time>2013-02-16T10:53:16Z</time>
      </trkpt>
      <trkpt lat="45.6887" lon="6.26107">
        <ele>2128.5</ele>
        <time>2013-02-16T10:53:35Z</time>
      </trkpt>
      <trkpt lat="45.68869" lon="6.26109">
        <ele>2128.5</ele>
        <time>2013-02-16T10:53:59Z</time>
      </trkpt>
      <trkpt lat="45.6887" lon="6.26109">
        <ele>2127.53</ele>
        <time>2013-02-16T10:54:19Z</time>
      </trkpt>
      <trkpt lat="45.6887" lon="6.26111">
        <ele>2127.05</ele>
        <time>2013-02-16T10:54:40Z</time>
      </trkpt>
      <trkpt lat="45.6887" lon="6.26111">
        <ele>2130.9</ele>
        <time>2013-02-16T10:54:41Z</time>
      </trkpt>
      <trkpt lat="45.68871" lon="6.26111">
        <ele>2126.09</ele>
        <time>2013-02-16T10:54:43Z</time>
      </trkpt>
      <trkpt lat="45.68871" lon="6.26111">
        <ele>2129.46</ele>
        <time>2013-02-16T10:54:44Z</time>
      </trkpt>
      <trkpt lat="45.68871" lon="6.2611">
        <ele>2128.02</ele>
        <time>2013-02-16T10:54:47Z</time>
      </trkpt>
      <trkpt lat="45.6887" lon="6.2611">
        <ele>2127.05</ele>
        <time>2013-02-16T10:55:05Z</time>
      </trkpt>
      <trkpt lat="45.6887" lon="6.26111">
        <ele>2129.94</ele>
        <time>2013-02-16T10:55:06Z</time>
      </trkpt>
      <trkpt lat="45.68871" lon="6.2611">
        <ele>2126.09</ele>
        <time>2013-02-16T10:55:07Z</time>
      </trkpt>
      <trkpt lat="45.68871" lon="6.2611">
        <ele>2128.98</ele>
        <time>2013-02-16T10:55:08Z</time>
      </trkpt>
      <trkpt lat="45.68871" lon="6.26109">
        <ele>2125.61</ele>
        <time>2013-02-16T10:55:19Z</time>
      </trkpt>
      <trkpt lat="45.68871" lon="6.26109">
        <ele>2128.98</ele>
        <time>2013-02-16T10:55:20Z</time>
      </trkpt>
      <trkpt lat="45.6887" lon="6.26109">
        <ele>2130.42</ele>
        <time>2013-02-16T10:55:30Z</time>
      </trkpt>
      <trkpt lat="45.68869" lon="6.26109">
        <ele>2126.57</ele>
        <time>2013-02-16T10:55:32Z</time>
      </trkpt>
      <trkpt lat="45.68869" lon="6.26109">
        <ele>2126.09</ele>
        <time>2013-02-16T10:55:33Z</time>
      </trkpt>
      <trkpt lat="45.68869" lon="6.2611">
        <ele>2128.98</ele>
        <time>2013-02-16T10:55:41Z</time>
      </trkpt>
      <trkpt lat="45.68869" lon="6.26111">
        <ele>2130.9</ele>
        <time>2013-02-16T10:55:43Z</time>
      </trkpt>
      <trkpt lat="45.6887" lon="6.26111">
        <ele>2129.46</ele>
        <time>2013-02-16T10:55:46Z</time>
      </trkpt>
      <trkpt lat="45.6887" lon="6.26111">
        <ele>2127.05</ele>
        <time>2013-02-16T10:55:49Z</time>
      </trkpt>
      <trkpt lat="45.6887" lon="6.2611">
        <ele>2130.9</ele>
        <time>2013-02-16T10:55:55Z</time>
      </trkpt>
      <trkpt lat="45.6887" lon="6.26108">
        <ele>2127.05</ele>
        <time>2013-02-16T10:55:59Z</time>
      </trkpt>
      <trkpt lat="45.68871" lon="6.26109">
        <ele>2130.42</ele>
        <time>2013-02-16T10:56:03Z</time>
      </trkpt>
      <trkpt lat="45.68871" lon="6.26109">
        <ele>2126.09</ele>
        <time>2013-02-16T10:56:05Z</time>
      </trkpt>
      <trkpt lat="45.68871" lon="6.26109">
        <ele>2127.53</ele>
        <time>2013-02-16T10:56:06Z</time>
      </trkpt>
      <trkpt lat="45.68871" lon="6.26109">
        <ele>2129.94</ele>
        <time>2013-02-16T10:56:09Z</time>
      </trkpt>
      <trkpt lat="45.68871" lon="6.26109">
        <ele>2127.05</ele>
        <time>2013-02-16T10:56:10Z</time>
      </trkpt>
      <trkpt lat="45.6887" lon="6.26109">
        <ele>2130.42</ele>
        <time>2013-02-16T10:56:13Z</time>
      </trkpt>
      <trkpt lat="45.6887" lon="6.26109">
        <ele>2126.57</ele>
        <time>2013-02-16T10:56:15Z</time>
      </trkpt>
      <trkpt lat="45.6887" lon="6.26109">
        <ele>2127.05</ele>
        <time>2013-02-16T10:56:16Z</time>
      </trkpt>
      <trkpt lat="45.6887" lon="6.26109">
        <ele>2130.42</ele>
        <time>2013-02-16T10:56:18Z</time>
      </trkpt>
      <trkpt lat="45.6887" lon="6.26109">
        <ele>2126.09</ele>
        <time>2013-02-16T10:56:20Z</time>
      </trkpt>
      <trkpt lat="45.6887" lon="6.26108">
        <ele>2129.94</ele>
        <time>2013-02-16T10:56:22Z</time>
      </trkpt>
      <trkpt lat="45.6887" lon="6.26109">
        <ele>2125.61</ele>
        <time>2013-02-16T10:56:24Z</time>
      </trkpt>
      <trkpt lat="45.6887" lon="6.26109">
        <ele>2129.46</ele>
        <time>2013-02-16T10:56:25Z</time>
      </trkpt>
      <trkpt lat="45.6887" lon="6.26109">
        <ele>2128.02</ele>
        <time>2013-02-16T10:56:28Z</time>
      </trkpt>
      <trkpt lat="45.68869" lon="6.26109">
        <ele>2130.42</ele>
        <time>2013-02-16T10:56:32Z</time>
      </trkpt>
      <trkpt lat="45.68869" lon="6.26109">
        <ele>2126.09</ele>
        <time>2013-02-16T10:56:34Z</time>
      </trkpt>
      <trkpt lat="45.68869" lon="6.2611">
        <ele>2126.09</ele>
        <time>2013-02-16T10:56:35Z</time>
      </trkpt>
      <trkpt lat="45.68869" lon="6.2611">
        <ele>2129.46</ele>
        <time>2013-02-16T10:56:40Z</time>
      </trkpt>
      <trkpt lat="45.68871" lon="6.26111">
        <ele>2128.02</ele>
        <time>2013-02-16T10:56:57Z</time>
      </trkpt>
      <trkpt lat="45.68872" lon="6.2611">
        <ele>2127.05</ele>
        <time>2013-02-16T10:57:19Z</time>
      </trkpt>
      <trkpt lat="45.68873" lon="6.26109">
        <ele>2128.98</ele>
        <time>2013-02-16T10:57:29Z</time>
      </trkpt>
      <trkpt lat="45.68874" lon="6.26109">
        <ele>2127.53</ele>
        <time>2013-02-16T10:57:31Z</time>
      </trkpt>
      <trkpt lat="45.68873" lon="6.26109">
        <ele>2128.5</ele>
        <time>2013-02-16T10:58:00Z</time>
      </trkpt>
      <trkpt lat="45.68873" lon="6.2611">
        <ele>2126.57</ele>
        <time>2013-02-16T10:58:27Z</time>
      </trkpt>
      <trkpt lat="45.68873" lon="6.26111">
        <ele>2128.5</ele>
        <time>2013-02-16T10:58:51Z</time>
      </trkpt>
      <trkpt lat="45.68873" lon="6.2611">
        <ele>2126.57</ele>
        <time>2013-02-16T10:59:01Z</time>
      </trkpt>
      <trkpt lat="45.68869" lon="6.26112">
        <ele>2128.5</ele>
        <time>2013-02-16T10:59:27Z</time>
      </trkpt>
      <trkpt lat="45.68869" lon="6.26113">
        <ele>2128.5</ele>
        <time>2013-02-16T10:59:40Z</time>
      </trkpt>
      <trkpt lat="45.68869" lon="6.26112">
        <ele>2128.98</ele>
        <time>2013-02-16T10:59:53Z</time>
      </trkpt>
      <trkpt lat="45.68869" lon="6.26113">
        <ele>2125.61</ele>
        <time>2013-02-16T10:59:54Z</time>
      </trkpt>
      <trkpt lat="45.68869" lon="6.26112">
        <ele>2126.57</ele>
        <time>2013-02-16T11:00:18Z</time>
      </trkpt>
      <trkpt lat="45.68869" lon="6.26113">
        <ele>2127.53</ele>
        <time>2013-02-16T11:00:40Z</time>
      </trkpt>
      <trkpt lat="45.68869" lon="6.26112">
        <ele>2127.05</ele>
        <time>2013-02-16T11:01:17Z</time>
      </trkpt>
      <trkpt lat="45.6887" lon="6.26114">
        <ele>2126.57</ele>
        <time>2013-02-16T11:01:42Z</time>
      </trkpt>
      <trkpt lat="45.68871" lon="6.26111">
        <ele>2127.05</ele>
        <time>2013-02-16T11:02:06Z</time>
      </trkpt>
      <trkpt lat="45.68871" lon="6.26112">
        <ele>2126.57</ele>
        <time>2013-02-16T11:02:42Z</time>
      </trkpt>
      <trkpt lat="45.6887" lon="6.26112">
        <ele>2127.05</ele>
        <time>2013-02-16T11:03:10Z</time>
      </trkpt>
      <trkpt lat="45.68871" lon="6.26113">
        <ele>2126.09</ele>
        <time>2013-02-16T11:03:35Z</time>
      </trkpt>
      <trkpt lat="45.68871" lon="6.26113">
        <ele>2126.09</ele>
        <time>2013-02-16T11:03:49Z</time>
      </trkpt>
      <trkpt lat="45.68871" lon="6.26112">
        <ele>2118.88</ele>
        <time>2013-02-16T11:04:09Z</time>
      </trkpt>
      <trkpt lat="45.68871" lon="6.26112">
        <ele>2125.13</ele>
        <time>2013-02-16T11:04:10Z</time>
      </trkpt>
      <trkpt lat="45.68871" lon="6.26112">
        <ele>2121.77</ele>
        <time>2013-02-16T11:04:11Z</time>
      </trkpt>
      <trkpt lat="45.68871" lon="6.26112">
        <ele>2135.23</ele>
        <time>2013-02-16T11:04:12Z</time>
      </trkpt>
      <trkpt lat="45.68871" lon="6.26112">
        <ele>2128.02</ele>
        <time>2013-02-16T11:04:13Z</time>
      </trkpt>
      <trkpt lat="45.68872" lon="6.2611">
        <ele>2124.17</ele>
        <time>2013-02-16T11:04:33Z</time>
      </trkpt>
      <trkpt lat="45.68873" lon="6.2611">
        <ele>2127.53</ele>
        <time>2013-02-16T11:04:34Z</time>
      </trkpt>
      <trkpt lat="45.68872" lon="6.26109">
        <ele>2126.09</ele>
        <time>2013-02-16T11:04:37Z</time>
      </trkpt>
      <trkpt lat="45.68872" lon="6.26107">
        <ele>2129.46</ele>
        <time>2013-02-16T11:04:46Z</time>
      </trkpt>
      <trkpt lat="45.68872" lon="6.26107">
        <ele>2125.13</ele>
        <time>2013-02-16T11:04:47Z</time>
      </trkpt>
      <trkpt lat="45.68872" lon="6.26109">
        <ele>2126.09</ele>
        <time>2013-02-16T11:05:16Z</time>
      </trkpt>
      <trkpt lat="45.68872" lon="6.26109">
        <ele>2126.09</ele>
        <time>2013-02-16T11:05:46Z</time>
      </trkpt>
      <trkpt lat="45.68872" lon="6.26109">
        <ele>2122.73</ele>
        <time>2013-02-16T11:06:01Z</time>
      </trkpt>
      <trkpt lat="45.68872" lon="6.26109">
        <ele>2125.13</ele>
        <time>2013-02-16T11:06:04Z</time>
      </trkpt>
      <trkpt lat="45.68871" lon="6.26109">
        <ele>2129.46</ele>
        <time>2013-02-16T11:06:10Z</time>
      </trkpt>
      <trkpt lat="45.68872" lon="6.26109">
        <ele>2127.05</ele>
        <time>2013-02-16T11:06:11Z</time>
      </trkpt>
      <trkpt lat="45.68873" lon="6.26111">
        <ele>2123.69</ele>
        <time>2013-02-16T11:06:26Z</time>
      </trkpt>
      <trkpt lat="45.68873" lon="6.26111">
        <ele>2115.04</ele>
        <time>2013-02-16T11:06:28Z</time>
      </trkpt>
      <trkpt lat="45.68873" lon="6.26111">
        <ele>2138.11</ele>
        <time>2013-02-16T11:06:29Z</time>
      </trkpt>
      <trkpt lat="45.68873" lon="6.26111">
        <ele>2138.11</ele>
        <time>2013-02-16T11:06:30Z</time>
      </trkpt>
      <trkpt lat="45.68873" lon="6.26111">
        <ele>2128.02</ele>
        <time>2013-02-16T11:06:31Z</time>
      </trkpt>
      <trkpt lat="45.68873" lon="6.2611">
        <ele>2122.25</ele>
        <time>2013-02-16T11:06:36Z</time>
      </trkpt>
      <trkpt lat="45.68873" lon="6.2611">
        <ele>2124.65</ele>
        <time>2013-02-16T11:06:37Z</time>
      </trkpt>
      <trkpt lat="45.68872" lon="6.26109">
        <ele>2128.02</ele>
        <time>2013-02-16T11:06:42Z</time>
      </trkpt>
      <trkpt lat="45.68872" lon="6.26109">
        <ele>2126.57</ele>
        <time>2013-02-16T11:06:43Z</time>
      </trkpt>
      <trkpt lat="45.68872" lon="6.26109">
        <ele>2123.69</ele>
        <time>2013-02-16T11:06:46Z</time>
      </trkpt>
      <trkpt lat="45.68872" lon="6.26109">
        <ele>2129.94</ele>
        <time>2013-02-16T11:06:48Z</time>
      </trkpt>
      <trkpt lat="45.68872" lon="6.26109">
        <ele>2127.53</ele>
        <time>2013-02-16T11:06:49Z</time>
      </trkpt>
      <trkpt lat="45.68872" lon="6.26109">
        <ele>2123.69</ele>
        <time>2013-02-16T11:06:50Z</time>
      </trkpt>
      <trkpt lat="45.68872" lon="6.26109">
        <ele>2125.13</ele>
        <time>2013-02-16T11:06:51Z</time>
      </trkpt>
      <trkpt lat="45.68871" lon="6.26109">
        <ele>2126.09</ele>
        <time>2013-02-16T11:06:58Z</time>
      </trkpt>
      <trkpt lat="45.68871" lon="6.26108">
        <ele>2124.17</ele>
        <time>2013-02-16T11:07:00Z</time>
      </trkpt>
      <trkpt lat="45.68871" lon="6.26109">
        <ele>2128.5</ele>
        <time>2013-02-16T11:07:02Z</time>
      </trkpt>
      <trkpt lat="45.68872" lon="6.26109">
        <ele>2127.53</ele>
        <time>2013-02-16T11:07:03Z</time>
      </trkpt>
      <trkpt lat="45.68872" lon="6.26109">
        <ele>2126.09</ele>
        <time>2013-02-16T11:07:05Z</time>
      </trkpt>
      <trkpt lat="45.68871" lon="6.26109">
        <ele>2115.04</ele>
        <time>2013-02-16T11:07:08Z</time>
      </trkpt>
      <trkpt lat="45.68871" lon="6.26109">
        <ele>2129.46</ele>
        <time>2013-02-16T11:07:09Z</time>
      </trkpt>
      <trkpt lat="45.68871" lon="6.26109">
        <ele>2125.13</ele>
        <time>2013-02-16T11:07:10Z</time>
      </trkpt>
      <trkpt lat="45.68871" lon="6.26109">
        <ele>2121.29</ele>
        <time>2013-02-16T11:07:11Z</time>
      </trkpt>
      <trkpt lat="45.68871" lon="6.26109">
        <ele>2128.98</ele>
        <time>2013-02-16T11:07:12Z</time>
      </trkpt>
      <trkpt lat="45.68871" lon="6.26109">
        <ele>2125.13</ele>
        <time>2013-02-16T11:07:14Z</time>
      </trkpt>
      <trkpt lat="45.68872" lon="6.2611">
        <ele>2121.77</ele>
        <time>2013-02-16T11:07:25Z</time>
      </trkpt>
      <trkpt lat="45.68872" lon="6.2611">
        <ele>2128.98</ele>
        <time>2013-02-16T11:07:26Z</time>
      </trkpt>
      <trkpt lat="45.68872" lon="6.2611">
        <ele>2126.09</ele>
        <time>2013-02-16T11:07:27Z</time>
      </trkpt>
      <trkpt lat="45.68872" lon="6.2611">
        <ele>2121.77</ele>
        <time>2013-02-16T11:07:28Z</time>
      </trkpt>
      <trkpt lat="45.68872" lon="6.2611">
        <ele>2124.65</ele>
        <time>2013-02-16T11:07:29Z</time>
      </trkpt>
      <trkpt lat="45.68873" lon="6.2611">
        <ele>2131.38</ele>
        <time>2013-02-16T11:07:32Z</time>
      </trkpt>
      <trkpt lat="45.68873" lon="6.2611">
        <ele>2127.05</ele>
        <time>2013-02-16T11:07:33Z</time>
      </trkpt>
      <trkpt lat="45.68873" lon="6.26107">
        <ele>2125.61</ele>
        <time>2013-02-16T11:08:04Z</time>
      </trkpt>
      <trkpt lat="45.68873" lon="6.2611">
        <ele>2126.09</ele>
        <time>2013-02-16T11:08:39Z</time>
      </trkpt>
      <trkpt lat="45.68874" lon="6.26109">
        <ele>2126.09</ele>
        <time>2013-02-16T11:09:06Z</time>
      </trkpt>
      <trkpt lat="45.68873" lon="6.26108">
        <ele>2125.61</ele>
        <time>2013-02-16T11:09:35Z</time>
      </trkpt>
      <trkpt lat="45.68872" lon="6.26109">
        <ele>2126.57</ele>
        <time>2013-02-16T11:09:50Z</time>
      </trkpt>
      <trkpt lat="45.68872" lon="6.26111">
        <ele>2126.09</ele>
        <time>2013-02-16T11:10:18Z</time>
      </trkpt>
      <trkpt lat="45.6887" lon="6.26107">
        <ele>2126.09</ele>
        <time>2013-02-16T11:10:46Z</time>
      </trkpt>
      <trkpt lat="45.68873" lon="6.26109">
        <ele>2126.09</ele>
        <time>2013-02-16T11:11:21Z</time>
      </trkpt>
      <trkpt lat="45.68873" lon="6.26109">
        <ele>2126.09</ele>
        <time>2013-02-16T11:11:22Z</time>
      </trkpt>
      <trkpt lat="45.68873" lon="6.2611">
        <ele>2125.13</ele>
        <time>2013-02-16T11:11:52Z</time>
      </trkpt>
      <trkpt lat="45.68873" lon="6.26109">
        <ele>2126.09</ele>
        <time>2013-02-16T11:12:24Z</time>
      </trkpt>
      <trkpt lat="45.68872" lon="6.26109">
        <ele>2125.61</ele>
        <time>2013-02-16T11:13:03Z</time>
      </trkpt>
      <trkpt lat="45.68873" lon="6.26109">
        <ele>2126.09</ele>
        <time>2013-02-16T11:13:28Z</time>
      </trkpt>
      <trkpt lat="45.68874" lon="6.26108">
        <ele>2125.61</ele>
        <time>2013-02-16T11:13:59Z</time>
      </trkpt>
      <trkpt lat="45.68874" lon="6.26109">
        <ele>2127.53</ele>
        <time>2013-02-16T11:14:22Z</time>
      </trkpt>
      <trkpt lat="45.68874" lon="6.26109">
        <ele>2124.17</ele>
        <time>2013-02-16T11:14:23Z</time>
      </trkpt>
      <trkpt lat="45.68873" lon="6.26108">
        <ele>2127.53</ele>
        <time>2013-02-16T11:14:53Z</time>
      </trkpt>
      <trkpt lat="45.68873" lon="6.26108">
        <ele>2124.65</ele>
        <time>2013-02-16T11:14:54Z</time>
      </trkpt>
      <trkpt lat="45.68873" lon="6.26108">
        <ele>2126.57</ele>
        <time>2013-02-16T11:14:57Z</time>
      </trkpt>
      <trkpt lat="45.68873" lon="6.26108">
        <ele>2124.65</ele>
        <time>2013-02-16T11:14:59Z</time>
      </trkpt>
      <trkpt lat="45.68875" lon="6.26109">
        <ele>2126.57</ele>
        <time>2013-02-16T11:15:17Z</time>
      </trkpt>
      <trkpt lat="45.68875" lon="6.26109">
        <ele>2124.17</ele>
        <time>2013-02-16T11:15:20Z</time>
      </trkpt>
      <trkpt lat="45.68875" lon="6.2611">
        <ele>2126.09</ele>
        <time>2013-02-16T11:15:31Z</time>
      </trkpt>
      <trkpt lat="45.68874" lon="6.2611">
        <ele>2124.17</ele>
        <time>2013-02-16T11:15:33Z</time>
      </trkpt>
      <trkpt lat="45.68874" lon="6.26111">
        <ele>2127.53</ele>
        <time>2013-02-16T11:15:35Z</time>
      </trkpt>
      <trkpt lat="45.68874" lon="6.26111">
        <ele>2126.09</ele>
        <time>2013-02-16T11:15:36Z</time>
      </trkpt>
      <trkpt lat="45.68874" lon="6.2611">
        <ele>2124.17</ele>
        <time>2013-02-16T11:15:38Z</time>
      </trkpt>
      <trkpt lat="45.68874" lon="6.2611">
        <ele>2125.13</ele>
        <time>2013-02-16T11:15:40Z</time>
      </trkpt>
      <trkpt lat="45.68874" lon="6.2611">
        <ele>2123.69</ele>
        <time>2013-02-16T11:15:42Z</time>
      </trkpt>
      <trkpt lat="45.68874" lon="6.26109">
        <ele>2127.05</ele>
        <time>2013-02-16T11:15:45Z</time>
      </trkpt>
      <trkpt lat="45.68874" lon="6.26109">
        <ele>2124.65</ele>
        <time>2013-02-16T11:15:47Z</time>
      </trkpt>
      <trkpt lat="45.68874" lon="6.26109">
        <ele>2125.61</ele>
        <time>2013-02-16T11:15:50Z</time>
      </trkpt>
      <trkpt lat="45.68874" lon="6.26109">
        <ele>2127.05</ele>
        <time>2013-02-16T11:16:00Z</time>
      </trkpt>
      <trkpt lat="45.68874" lon="6.26109">
        <ele>2127.05</ele>
        <time>2013-02-16T11:16:05Z</time>
      </trkpt>
      <trkpt lat="45.68874" lon="6.26109">
        <ele>2124.65</ele>
        <time>2013-02-16T11:16:08Z</time>
      </trkpt>
      <trkpt lat="45.68874" lon="6.26109">
        <ele>2124.17</ele>
        <time>2013-02-16T11:16:14Z</time>
      </trkpt>
      <trkpt lat="45.68875" lon="6.26109">
        <ele>2126.09</ele>
        <time>2013-02-16T11:16:16Z</time>
      </trkpt>
      <trkpt lat="45.68874" lon="6.26109">
        <ele>2126.09</ele>
        <time>2013-02-16T11:16:21Z</time>
      </trkpt>
      <trkpt lat="45.68874" lon="6.26109">
        <ele>2123.69</ele>
        <time>2013-02-16T11:16:31Z</time>
      </trkpt>
      <trkpt lat="45.68874" lon="6.26109">
        <ele>2127.05</ele>
        <time>2013-02-16T11:16:36Z</time>
      </trkpt>
      <trkpt lat="45.68873" lon="6.26109">
        <ele>2125.61</ele>
        <time>2013-02-16T11:16:43Z</time>
      </trkpt>
      <trkpt lat="45.68873" lon="6.26109">
        <ele>2123.69</ele>
        <time>2013-02-16T11:16:45Z</time>
      </trkpt>
      <trkpt lat="45.68874" lon="6.2611">
        <ele>2127.53</ele>
        <time>2013-02-16T11:16:50Z</time>
      </trkpt>
      <trkpt lat="45.68872" lon="6.26109">
        <ele>2124.17</ele>
        <time>2013-02-16T11:17:05Z</time>
      </trkpt>
      <trkpt lat="45.68872" lon="6.26109">
        <ele>2123.69</ele>
        <time>2013-02-16T11:17:06Z</time>
      </trkpt>
      <trkpt lat="45.68872" lon="6.2611">
        <ele>2127.53</ele>
        <time>2013-02-16T11:17:08Z</time>
      </trkpt>
      <trkpt lat="45.68873" lon="6.2611">
        <ele>2124.17</ele>
        <time>2013-02-16T11:17:11Z</time>
      </trkpt>
      <trkpt lat="45.68872" lon="6.26111">
        <ele>2123.69</ele>
        <time>2013-02-16T11:17:42Z</time>
      </trkpt>
      <trkpt lat="45.68872" lon="6.26111">
        <ele>2123.21</ele>
        <time>2013-02-16T11:17:43Z</time>
      </trkpt>
      <trkpt lat="45.68872" lon="6.26111">
        <ele>2126.09</ele>
        <time>2013-02-16T11:17:44Z</time>
      </trkpt>
      <trkpt lat="45.68872" lon="6.26111">
        <ele>2125.61</ele>
        <time>2013-02-16T11:17:45Z</time>
      </trkpt>
      <trkpt lat="45.68871" lon="6.2611">
        <ele>2127.05</ele>
        <time>2013-02-16T11:17:48Z</time>
      </trkpt>
      <trkpt lat="45.68871" lon="6.26109">
        <ele>2124.65</ele>
        <time>2013-02-16T11:18:00Z</time>
      </trkpt>
      <trkpt lat="45.68872" lon="6.2611">
        <ele>2126.57</ele>
        <time>2013-02-16T11:18:10Z</time>
      </trkpt>
      <trkpt lat="45.68872" lon="6.26111">
        <ele>2123.21</ele>
        <time>2013-02-16T11:18:15Z</time>
      </trkpt>
      <trkpt lat="45.68872" lon="6.26111">
        <ele>2123.21</ele>
        <time>2013-02-16T11:18:21Z</time>
      </trkpt>
      <trkpt lat="45.68872" lon="6.2611">
        <ele>2125.61</ele>
        <time>2013-02-16T11:18:35Z</time>
      </trkpt>
      <trkpt lat="45.68872" lon="6.2611">
        <ele>2122.73</ele>
        <time>2013-02-16T11:18:44Z</time>
      </trkpt>
      <trkpt lat="45.68871" lon="6.2611">
        <ele>2126.57</ele>
        <time>2013-02-16T11:18:46Z</time>
      </trkpt>
      <trkpt lat="45.68871" lon="6.2611">
        <ele>2124.65</ele>
        <time>2013-02-16T11:18:47Z</time>
      </trkpt>
      <trkpt lat="45.6887" lon="6.2611">
        <ele>2122.73</ele>
        <time>2013-02-16T11:18:49Z</time>
      </trkpt>
      <trkpt lat="45.6887" lon="6.2611">
        <ele>2128.98</ele>
        <time>2013-02-16T11:18:50Z</time>
      </trkpt>
      <trkpt lat="45.6887" lon="6.2611">
        <ele>2126.09</ele>
        <time>2013-02-16T11:18:51Z</time>
      </trkpt>
      <trkpt lat="45.6887" lon="6.26111">
        <ele>2123.21</ele>
        <time>2013-02-16T11:18:55Z</time>
      </trkpt>
      <trkpt lat="45.6887" lon="6.26111">
        <ele>2122.73</ele>
        <time>2013-02-16T11:19:00Z</time>
      </trkpt>
      <trkpt lat="45.68871" lon="6.2611">
        <ele>2127.05</ele>
        <time>2013-02-16T11:19:04Z</time>
      </trkpt>
      <trkpt lat="45.68871" lon="6.2611">
        <ele>2119.84</ele>
        <time>2013-02-16T11:19:05Z</time>
      </trkpt>
      <trkpt lat="45.68871" lon="6.2611">
        <ele>2125.13</ele>
        <time>2013-02-16T11:19:06Z</time>
      </trkpt>
      <trkpt lat="45.68871" lon="6.26109">
        <ele>2115.52</ele>
        <time>2013-02-16T11:19:10Z</time>
      </trkpt>
      <trkpt lat="45.68871" lon="6.26109">
        <ele>2129.46</ele>
        <time>2013-02-16T11:19:11Z</time>
      </trkpt>
      <trkpt lat="45.68871" lon="6.26109">
        <ele>2121.77</ele>
        <time>2013-02-16T11:19:12Z</time>
      </trkpt>
      <trkpt lat="45.68871" lon="6.26109">
        <ele>2128.02</ele>
        <time>2013-02-16T11:19:13Z</time>
      </trkpt>
      <trkpt lat="45.68871" lon="6.26108">
        <ele>2119.36</ele>
        <time>2013-02-16T11:19:14Z</time>
      </trkpt>
      <trkpt lat="45.6887" lon="6.26109">
        <ele>2134.74</ele>
        <time>2013-02-16T11:19:15Z</time>
      </trkpt>
      <trkpt lat="45.6887" lon="6.26108">
        <ele>2127.05</ele>
        <time>2013-02-16T11:19:16Z</time>
      </trkpt>
      <trkpt lat="45.6887" lon="6.26109">
        <ele>2125.13</ele>
        <time>2013-02-16T11:19:18Z</time>
      </trkpt>
      <trkpt lat="45.6887" lon="6.2611">
        <ele>2120.81</ele>
        <time>2013-02-16T11:19:26Z</time>
      </trkpt>
      <trkpt lat="45.6887" lon="6.2611">
        <ele>2127.53</ele>
        <time>2013-02-16T11:19:30Z</time>
      </trkpt>
      <trkpt lat="45.6887" lon="6.2611">
        <ele>2127.05</ele>
        <time>2013-02-16T11:19:31Z</time>
      </trkpt>
      <trkpt lat="45.6887" lon="6.26109">
        <ele>2123.21</ele>
        <time>2013-02-16T11:19:32Z</time>
      </trkpt>
      <trkpt lat="45.6887" lon="6.26109">
        <ele>2125.13</ele>
        <time>2013-02-16T11:19:35Z</time>
      </trkpt>
      <trkpt lat="45.6887" lon="6.26108">
        <ele>2123.21</ele>
        <time>2013-02-16T11:19:37Z</time>
      </trkpt>
      <trkpt lat="45.6887" lon="6.26108">
        <ele>2124.17</ele>
        <time>2013-02-16T11:19:39Z</time>
      </trkpt>
      <trkpt lat="45.6887" lon="6.26107">
        <ele>2132.82</ele>
        <time>2013-02-16T11:19:42Z</time>
      </trkpt>
      <trkpt lat="45.6887" lon="6.26107">
        <ele>2125.61</ele>
        <time>2013-02-16T11:19:43Z</time>
      </trkpt>
      <trkpt lat="45.6887" lon="6.26107">
        <ele>2116.96</ele>
        <time>2013-02-16T11:19:44Z</time>
      </trkpt>
      <trkpt lat="45.6887" lon="6.26108">
        <ele>2110.71</ele>
        <time>2013-02-16T11:19:45Z</time>
      </trkpt>
      <trkpt lat="45.68871" lon="6.26108">
        <ele>2145.32</ele>
        <time>2013-02-16T11:19:46Z</time>
      </trkpt>
      <trkpt lat="45.68871" lon="6.26108">
        <ele>2129.94</ele>
        <time>2013-02-16T11:19:47Z</time>
      </trkpt>
      <trkpt lat="45.68871" lon="6.26108">
        <ele>2125.13</ele>
        <time>2013-02-16T11:19:48Z</time>
      </trkpt>
      <trkpt lat="45.6887" lon="6.2611">
        <ele>2122.25</ele>
        <time>2013-02-16T11:19:50Z</time>
      </trkpt>
      <trkpt lat="45.6887" lon="6.2611">
        <ele>2106.39</ele>
        <time>2013-02-16T11:19:51Z</time>
      </trkpt>
      <trkpt lat="45.6887" lon="6.2611">
        <ele>2128.5</ele>
        <time>2013-02-16T11:19:52Z</time>
      </trkpt>
      <trkpt lat="45.6887" lon="6.2611">
        <ele>2121.77</ele>
        <time>2013-02-16T11:19:53Z</time>
      </trkpt>
      <trkpt lat="45.6887" lon="6.2611">
        <ele>2125.13</ele>
        <time>2013-02-16T11:19:56Z</time>
      </trkpt>
      <trkpt lat="45.6887" lon="6.2611">
        <ele>2130.42</ele>
        <time>2013-02-16T11:19:57Z</time>
      </trkpt>
      <trkpt lat="45.6887" lon="6.2611">
        <ele>2136.67</ele>
        <time>2013-02-16T11:19:58Z</time>
      </trkpt>
      <trkpt lat="45.68871" lon="6.26111">
        <ele>2129.46</ele>
        <time>2013-02-16T11:19:59Z</time>
      </trkpt>
      <trkpt lat="45.68871" lon="6.26111">
        <ele>2125.61</ele>
        <time>2013-02-16T11:20:00Z</time>
      </trkpt>
      <trkpt lat="45.68871" lon="6.2611">
        <ele>2124.17</ele>
        <time>2013-02-16T11:20:02Z</time>
      </trkpt>
      <trkpt lat="45.6887" lon="6.2611">
        <ele>2117.92</ele>
        <time>2013-02-16T11:20:28Z</time>
      </trkpt>
      <trkpt lat="45.6887" lon="6.2611">
        <ele>2114.08</ele>
        <time>2013-02-16T11:20:29Z</time>
      </trkpt>
      <trkpt lat="45.68871" lon="6.2611">
        <ele>2136.19</ele>
        <time>2013-02-16T11:20:30Z</time>
      </trkpt>
      <trkpt lat="45.68871" lon="6.2611">
        <ele>2126.09</ele>
        <time>2013-02-16T11:20:31Z</time>
      </trkpt>
      <trkpt lat="45.68871" lon="6.26111">
        <ele>2122.73</ele>
        <time>2013-02-16T11:20:33Z</time>
      </trkpt>
      <trkpt lat="45.6887" lon="6.26111">
        <ele>2103.98</ele>
        <time>2013-02-16T11:20:40Z</time>
      </trkpt>
      <trkpt lat="45.6887" lon="6.26111">
        <ele>2114.56</ele>
        <time>2013-02-16T11:20:41Z</time>
      </trkpt>
      <trkpt lat="45.6887" lon="6.26111">
        <ele>2123.21</ele>
        <time>2013-02-16T11:20:42Z</time>
      </trkpt>
      <trkpt lat="45.6887" lon="6.26111">
        <ele>2123.21</ele>
        <time>2013-02-16T11:20:43Z</time>
      </trkpt>
      <trkpt lat="45.6887" lon="6.26111">
        <ele>2126.57</ele>
        <time>2013-02-16T11:20:46Z</time>
      </trkpt>
      <trkpt lat="45.6887" lon="6.2611">
        <ele>2131.38</ele>
        <time>2013-02-16T11:20:47Z</time>
      </trkpt>
      <trkpt lat="45.68871" lon="6.26111">
        <ele>2144.84</ele>
        <time>2013-02-16T11:20:48Z</time>
      </trkpt>
      <trkpt lat="45.68871" lon="6.26111">
        <ele>2131.38</ele>
        <time>2013-02-16T11:20:49Z</time>
      </trkpt>
      <trkpt lat="45.68871" lon="6.2611">
        <ele>2125.61</ele>
        <time>2013-02-16T11:20:50Z</time>
      </trkpt>
      <trkpt lat="45.68872" lon="6.2611">
        <ele>2124.65</ele>
        <time>2013-02-16T11:21:19Z</time>
      </trkpt>
      <trkpt lat="45.68872" lon="6.26111">
        <ele>2123.69</ele>
        <time>2013-02-16T11:21:58Z</time>
      </trkpt>
      <trkpt lat="45.68874" lon="6.26113">
        <ele>2123.69</ele>
        <time>2013-02-16T11:22:10Z</time>
      </trkpt>
      <trkpt lat="45.68879" lon="6.26107">
        <ele>2121.29</ele>
        <time>2013-02-16T11:22:14Z</time>
      </trkpt>
      <trkpt lat="45.68888" lon="6.26101">
        <ele>2115.52</ele>
        <time>2013-02-16T11:22:17Z</time>
      </trkpt>
      <trkpt lat="45.68896" lon="6.26094">
        <ele>2110.23</ele>
        <time>2013-02-16T11:22:19Z</time>
      </trkpt>
      <trkpt lat="45.68904" lon="6.26087">
        <ele>2105.42</ele>
        <time>2013-02-16T11:22:21Z</time>
      </trkpt>
      <trkpt lat="45.68915" lon="6.26084">
        <ele>2101.58</ele>
        <time>2013-02-16T11:22:24Z</time>
      </trkpt>
      <trkpt lat="45.68922" lon="6.26082">
        <ele>2097.25</ele>
        <time>2013-02-16T11:22:26Z</time>
      </trkpt>
      <trkpt lat="45.68928" lon="6.26079">
        <ele>2093.89</ele>
        <time>2013-02-16T11:22:28Z</time>
      </trkpt>
      <trkpt lat="45.68932" lon="6.26081">
        <ele>2090.04</ele>
        <time>2013-02-16T11:22:30Z</time>
      </trkpt>
      <trkpt lat="45.68934" lon="6.26084">
        <ele>2088.6</ele>
        <time>2013-02-16T11:22:32Z</time>
      </trkpt>
      <trkpt lat="45.68932" lon="6.26086">
        <ele>2088.6</ele>
        <time>2013-02-16T11:22:43Z</time>
      </trkpt>
      <trkpt lat="45.68936" lon="6.26074">
        <ele>2084.28</ele>
        <time>2013-02-16T11:22:47Z</time>
      </trkpt>
      <trkpt lat="45.68936" lon="6.26063">
        <ele>2081.39</ele>
        <time>2013-02-16T11:22:51Z</time>
      </trkpt>
      <trkpt lat="45.68935" lon="6.26062">
        <ele>2080.91</ele>
        <time>2013-02-16T11:23:08Z</time>
      </trkpt>
      <trkpt lat="45.68936" lon="6.26063">
        <ele>2080.91</ele>
        <time>2013-02-16T11:23:40Z</time>
      </trkpt>
      <trkpt lat="45.68936" lon="6.26063">
        <ele>2081.87</ele>
        <time>2013-02-16T11:24:15Z</time>
      </trkpt>
      <trkpt lat="45.68938" lon="6.26048">
        <ele>2076.1</ele>
        <time>2013-02-16T11:24:20Z</time>
      </trkpt>
      <trkpt lat="45.6894" lon="6.26047">
        <ele>2077.07</ele>
        <time>2013-02-16T11:24:21Z</time>
      </trkpt>
      <trkpt lat="45.68941" lon="6.26044">
        <ele>2073.7</ele>
        <time>2013-02-16T11:24:23Z</time>
      </trkpt>
      <trkpt lat="45.68941" lon="6.26044">
        <ele>2073.7</ele>
        <time>2013-02-16T11:24:24Z</time>
      </trkpt>
      <trkpt lat="45.6894" lon="6.26042">
        <ele>2072.74</ele>
        <time>2013-02-16T11:24:31Z</time>
      </trkpt>
      <trkpt lat="45.68939" lon="6.26029">
        <ele>2069.38</ele>
        <time>2013-02-16T11:24:38Z</time>
      </trkpt>
      <trkpt lat="45.68936" lon="6.26016">
        <ele>2064.57</ele>
        <time>2013-02-16T11:24:43Z</time>
      </trkpt>
      <trkpt lat="45.68933" lon="6.26008">
        <ele>2061.2</ele>
        <time>2013-02-16T11:24:50Z</time>
      </trkpt>
      <trkpt lat="45.68933" lon="6.26008">
        <ele>2063.13</ele>
        <time>2013-02-16T11:24:54Z</time>
      </trkpt>
      <trkpt lat="45.68933" lon="6.26008">
        <ele>2062.17</ele>
        <time>2013-02-16T11:24:56Z</time>
      </trkpt>
      <trkpt lat="45.68937" lon="6.26004">
        <ele>2057.84</ele>
        <time>2013-02-16T11:24:59Z</time>
      </trkpt>
      <trkpt lat="45.6894" lon="6.26003">
        <ele>2059.28</ele>
        <time>2013-02-16T11:25:00Z</time>
      </trkpt>
      <trkpt lat="45.68941" lon="6.25997">
        <ele>2053.99</ele>
        <time>2013-02-16T11:25:02Z</time>
      </trkpt>
      <trkpt lat="45.68946" lon="6.2599">
        <ele>2046.78</ele>
        <time>2013-02-16T11:25:05Z</time>
      </trkpt>
      <trkpt lat="45.68948" lon="6.25987">
        <ele>2049.67</ele>
        <time>2013-02-16T11:25:06Z</time>
      </trkpt>
      <trkpt lat="45.6895" lon="6.25985">
        <ele>2044.38</ele>
        <time>2013-02-16T11:25:07Z</time>
      </trkpt>
      <trkpt lat="45.68953" lon="6.25983">
        <ele>2042.94</ele>
        <time>2013-02-16T11:25:08Z</time>
      </trkpt>
      <trkpt lat="45.68961" lon="6.25974">
        <ele>2036.21</ele>
        <time>2013-02-16T11:25:11Z</time>
      </trkpt>
      <trkpt lat="45.68963" lon="6.2597">
        <ele>2031.4</ele>
        <time>2013-02-16T11:25:12Z</time>
      </trkpt>
      <trkpt lat="45.68966" lon="6.25967">
        <ele>2027.08</ele>
        <time>2013-02-16T11:25:13Z</time>
      </trkpt>
      <trkpt lat="45.68969" lon="6.25964">
        <ele>2028.52</ele>
        <time>2013-02-16T11:25:14Z</time>
      </trkpt>
      <trkpt lat="45.68972" lon="6.25962">
        <ele>2023.23</ele>
        <time>2013-02-16T11:25:15Z</time>
      </trkpt>
      <trkpt lat="45.68979" lon="6.2596">
        <ele>2017.46</ele>
        <time>2013-02-16T11:25:17Z</time>
      </trkpt>
      <trkpt lat="45.68987" lon="6.25956">
        <ele>2014.1</ele>
        <time>2013-02-16T11:25:19Z</time>
      </trkpt>
      <trkpt lat="45.68994" lon="6.25948">
        <ele>2006.89</ele>
        <time>2013-02-16T11:25:21Z</time>
      </trkpt>
      <trkpt lat="45.69001" lon="6.25946">
        <ele>2004.01</ele>
        <time>2013-02-16T11:25:23Z</time>
      </trkpt>
      <trkpt lat="45.69005" lon="6.25942">
        <ele>1999.2</ele>
        <time>2013-02-16T11:25:24Z</time>
      </trkpt>
      <trkpt lat="45.69013" lon="6.25936">
        <ele>1992.47</ele>
        <time>2013-02-16T11:25:26Z</time>
      </trkpt>
      <trkpt lat="45.69026" lon="6.25928">
        <ele>1985.26</ele>
        <time>2013-02-16T11:25:30Z</time>
      </trkpt>
      <trkpt lat="45.69034" lon="6.25921">
        <ele>1978.05</ele>
        <time>2013-02-16T11:25:32Z</time>
      </trkpt>
      <trkpt lat="45.69039" lon="6.25919">
        <ele>1972.28</ele>
        <time>2013-02-16T11:25:33Z</time>
      </trkpt>
      <trkpt lat="45.69043" lon="6.25919">
        <ele>1975.17</ele>
        <time>2013-02-16T11:25:34Z</time>
      </trkpt>
      <trkpt lat="45.69047" lon="6.25919">
        <ele>1967.96</ele>
        <time>2013-02-16T11:25:35Z</time>
      </trkpt>
      <trkpt lat="45.69064" lon="6.25922">
        <ele>1956.42</ele>
        <time>2013-02-16T11:25:39Z</time>
      </trkpt>
      <trkpt lat="45.69067" lon="6.2592">
        <ele>1953.06</ele>
        <time>2013-02-16T11:25:40Z</time>
      </trkpt>
      <trkpt lat="45.69064" lon="6.25909">
        <ele>1949.69</ele>
        <time>2013-02-16T11:25:42Z</time>
      </trkpt>
      <trkpt lat="45.69064" lon="6.25907">
        <ele>1949.69</ele>
        <time>2013-02-16T11:25:43Z</time>
      </trkpt>
      <trkpt lat="45.69063" lon="6.25907">
        <ele>1947.29</ele>
        <time>2013-02-16T11:25:45Z</time>
      </trkpt>
      <trkpt lat="45.69054" lon="6.25906">
        <ele>1949.21</ele>
        <time>2013-02-16T11:25:50Z</time>
      </trkpt>
      <trkpt lat="45.69051" lon="6.25909">
        <ele>1949.69</ele>
        <time>2013-02-16T11:26:14Z</time>
      </trkpt>
      <trkpt lat="45.69051" lon="6.25909">
        <ele>1949.69</ele>
        <time>2013-02-16T11:26:20Z</time>
      </trkpt>
      <trkpt lat="45.69051" lon="6.25911">
        <ele>1950.65</ele>
        <time>2013-02-16T11:26:55Z</time>
      </trkpt>
      <trkpt lat="45.6905" lon="6.25911">
        <ele>1949.69</ele>
        <time>2013-02-16T11:27:04Z</time>
      </trkpt>
      <trkpt lat="45.69051" lon="6.25911">
        <ele>1949.21</ele>
        <time>2013-02-16T11:27:27Z</time>
      </trkpt>
      <trkpt lat="45.69052" lon="6.25912">
        <ele>1949.69</ele>
        <time>2013-02-16T11:27:48Z</time>
      </trkpt>
      <trkpt lat="45.69051" lon="6.25913">
        <ele>1950.17</ele>
        <time>2013-02-16T11:28:16Z</time>
      </trkpt>
      <trkpt lat="45.69051" lon="6.25912">
        <ele>1950.65</ele>
        <time>2013-02-16T11:28:43Z</time>
      </trkpt>
      <trkpt lat="45.69051" lon="6.25911">
        <ele>1950.65</ele>
        <time>2013-02-16T11:29:14Z</time>
      </trkpt>
      <trkpt lat="45.69051" lon="6.25911">
        <ele>1950.65</ele>
        <time>2013-02-16T11:29:22Z</time>
      </trkpt>
      <trkpt lat="45.69051" lon="6.25911">
        <ele>1950.17</ele>
        <time>2013-02-16T11:29:58Z</time>
      </trkpt>
      <trkpt lat="45.69051" lon="6.2591">
        <ele>1949.69</ele>
        <time>2013-02-16T11:30:17Z</time>
      </trkpt>
      <trkpt lat="45.6906" lon="6.25902">
        <ele>1946.33</ele>
        <time>2013-02-16T11:30:21Z</time>
      </trkpt>
      <trkpt lat="45.69064" lon="6.259">
        <ele>1941.52</ele>
        <time>2013-02-16T11:30:22Z</time>
      </trkpt>
      <trkpt lat="45.69071" lon="6.25894">
        <ele>1936.23</ele>
        <time>2013-02-16T11:30:24Z</time>
      </trkpt>
      <trkpt lat="45.69075" lon="6.25891">
        <ele>1932.39</ele>
        <time>2013-02-16T11:30:25Z</time>
      </trkpt>
      <trkpt lat="45.69084" lon="6.25883">
        <ele>1927.1</ele>
        <time>2013-02-16T11:30:27Z</time>
      </trkpt>
      <trkpt lat="45.69088" lon="6.25878">
        <ele>1921.81</ele>
        <time>2013-02-16T11:30:28Z</time>
      </trkpt>
      <trkpt lat="45.69093" lon="6.25874">
        <ele>1918.45</ele>
        <time>2013-02-16T11:30:29Z</time>
      </trkpt>
      <trkpt lat="45.69097" lon="6.25868">
        <ele>1913.16</ele>
        <time>2013-02-16T11:30:30Z</time>
      </trkpt>
      <trkpt lat="45.69109" lon="6.25851">
        <ele>1903.07</ele>
        <time>2013-02-16T11:30:33Z</time>
      </trkpt>
      <trkpt lat="45.69113" lon="6.25837">
        <ele>1897.3</ele>
        <time>2013-02-16T11:30:35Z</time>
      </trkpt>
      <trkpt lat="45.6912" lon="6.25826">
        <ele>1891.05</ele>
        <time>2013-02-16T11:30:37Z</time>
      </trkpt>
      <trkpt lat="45.69123" lon="6.2582">
        <ele>1884.32</ele>
        <time>2013-02-16T11:30:38Z</time>
      </trkpt>
      <trkpt lat="45.69125" lon="6.25816">
        <ele>1887.69</ele>
        <time>2013-02-16T11:30:39Z</time>
      </trkpt>
      <trkpt lat="45.69129" lon="6.25814">
        <ele>1880</ele>
        <time>2013-02-16T11:30:40Z</time>
      </trkpt>
      <trkpt lat="45.69133" lon="6.25812">
        <ele>1879.51</ele>
        <time>2013-02-16T11:30:41Z</time>
      </trkpt>
      <trkpt lat="45.69143" lon="6.25809">
        <ele>1871.82</ele>
        <time>2013-02-16T11:30:43Z</time>
      </trkpt>
      <trkpt lat="45.69152" lon="6.25803">
        <ele>1864.13</ele>
        <time>2013-02-16T11:30:45Z</time>
      </trkpt>
      <trkpt lat="45.69157" lon="6.25799">
        <ele>1859.81</ele>
        <time>2013-02-16T11:30:46Z</time>
      </trkpt>
      <trkpt lat="45.69161" lon="6.25795">
        <ele>1856.44</ele>
        <time>2013-02-16T11:30:47Z</time>
      </trkpt>
      <trkpt lat="45.69166" lon="6.25791">
        <ele>1851.16</ele>
        <time>2013-02-16T11:30:48Z</time>
      </trkpt>
      <trkpt lat="45.69173" lon="6.25779">
        <ele>1846.35</ele>
        <time>2013-02-16T11:30:50Z</time>
      </trkpt>
      <trkpt lat="45.69177" lon="6.25775">
        <ele>1842.02</ele>
        <time>2013-02-16T11:30:51Z</time>
      </trkpt>
      <trkpt lat="45.69181" lon="6.25771">
        <ele>1838.66</ele>
        <time>2013-02-16T11:30:52Z</time>
      </trkpt>
      <trkpt lat="45.69188" lon="6.25763">
        <ele>1831.93</ele>
        <time>2013-02-16T11:30:54Z</time>
      </trkpt>
      <trkpt lat="45.69196" lon="6.25754">
        <ele>1825.68</ele>
        <time>2013-02-16T11:30:56Z</time>
      </trkpt>
      <trkpt lat="45.69203" lon="6.25747">
        <ele>1819.91</ele>
        <time>2013-02-16T11:30:58Z</time>
      </trkpt>
      <trkpt lat="45.69211" lon="6.25741">
        <ele>1813.66</ele>
        <time>2013-02-16T11:31:00Z</time>
      </trkpt>
      <trkpt lat="45.69218" lon="6.25735">
        <ele>1807.9</ele>
        <time>2013-02-16T11:31:02Z</time>
      </trkpt>
      <trkpt lat="45.69226" lon="6.25728">
        <ele>1800.21</ele>
        <time>2013-02-16T11:31:04Z</time>
      </trkpt>
      <trkpt lat="45.69244" lon="6.2571">
        <ele>1791.55</ele>
        <time>2013-02-16T11:31:08Z</time>
      </trkpt>
      <trkpt lat="45.69256" lon="6.25697">
        <ele>1782.9</ele>
        <time>2013-02-16T11:31:11Z</time>
      </trkpt>
      <trkpt lat="45.69259" lon="6.25694">
        <ele>1782.9</ele>
        <time>2013-02-16T11:31:12Z</time>
      </trkpt>
      <trkpt lat="45.6926" lon="6.25692">
        <ele>1778.58</ele>
        <time>2013-02-16T11:31:13Z</time>
      </trkpt>
      <trkpt lat="45.69263" lon="6.25689">
        <ele>1775.21</ele>
        <time>2013-02-16T11:31:15Z</time>
      </trkpt>
      <trkpt lat="45.69262" lon="6.2569">
        <ele>1775.21</ele>
        <time>2013-02-16T11:31:16Z</time>
      </trkpt>
      <trkpt lat="45.69258" lon="6.25695">
        <ele>1775.21</ele>
        <time>2013-02-16T11:31:20Z</time>
      </trkpt>
      <trkpt lat="45.69243" lon="6.25714">
        <ele>1776.17</ele>
        <time>2013-02-16T11:31:47Z</time>
      </trkpt>
      <trkpt lat="45.69246" lon="6.25707">
        <ele>1775.21</ele>
        <time>2013-02-16T11:32:13Z</time>
      </trkpt>
      <trkpt lat="45.69251" lon="6.25701">
        <ele>1775.69</ele>
        <time>2013-02-16T11:32:49Z</time>
      </trkpt>
      <trkpt lat="45.69251" lon="6.257">
        <ele>1776.17</ele>
        <time>2013-02-16T11:32:51Z</time>
      </trkpt>
      <trkpt lat="45.69263" lon="6.25702">
        <ele>1773.29</ele>
        <time>2013-02-16T11:32:55Z</time>
      </trkpt>
      <trkpt lat="45.69281" lon="6.25698">
        <ele>1768.48</ele>
        <time>2013-02-16T11:32:58Z</time>
      </trkpt>
      <trkpt lat="45.69286" lon="6.25695">
        <ele>1765.12</ele>
        <time>2013-02-16T11:32:59Z</time>
      </trkpt>
      <trkpt lat="45.69295" lon="6.25688">
        <ele>1759.83</ele>
        <time>2013-02-16T11:33:01Z</time>
      </trkpt>
      <trkpt lat="45.69304" lon="6.25683">
        <ele>1755.5</ele>
        <time>2013-02-16T11:33:03Z</time>
      </trkpt>
      <trkpt lat="45.69314" lon="6.25677">
        <ele>1751.18</ele>
        <time>2013-02-16T11:33:05Z</time>
      </trkpt>
      <trkpt lat="45.69319" lon="6.25674">
        <ele>1748.29</ele>
        <time>2013-02-16T11:33:06Z</time>
      </trkpt>
      <trkpt lat="45.69328" lon="6.25668">
        <ele>1743.97</ele>
        <time>2013-02-16T11:33:08Z</time>
      </trkpt>
      <trkpt lat="45.69337" lon="6.25663">
        <ele>1740.6</ele>
        <time>2013-02-16T11:33:10Z</time>
      </trkpt>
      <trkpt lat="45.69345" lon="6.2566">
        <ele>1736.76</ele>
        <time>2013-02-16T11:33:12Z</time>
      </trkpt>
      <trkpt lat="45.69354" lon="6.25658">
        <ele>1732.91</ele>
        <time>2013-02-16T11:33:14Z</time>
      </trkpt>
      <trkpt lat="45.69362" lon="6.25652">
        <ele>1729.55</ele>
        <time>2013-02-16T11:33:16Z</time>
      </trkpt>
      <trkpt lat="45.6937" lon="6.25648">
        <ele>1725.22</ele>
        <time>2013-02-16T11:33:18Z</time>
      </trkpt>
      <trkpt lat="45.69379" lon="6.25644">
        <ele>1720.9</ele>
        <time>2013-02-16T11:33:20Z</time>
      </trkpt>
      <trkpt lat="45.69388" lon="6.25632">
        <ele>1713.21</ele>
        <time>2013-02-16T11:33:23Z</time>
      </trkpt>
      <trkpt lat="45.69396" lon="6.25625">
        <ele>1707.44</ele>
        <time>2013-02-16T11:33:25Z</time>
      </trkpt>
      <trkpt lat="45.69406" lon="6.25623">
        <ele>1702.15</ele>
        <time>2013-02-16T11:33:27Z</time>
      </trkpt>
      <trkpt lat="45.69415" lon="6.25623">
        <ele>1697.83</ele>
        <time>2013-02-16T11:33:29Z</time>
      </trkpt>
      <trkpt lat="45.69424" lon="6.25622">
        <ele>1693.02</ele>
        <time>2013-02-16T11:33:31Z</time>
      </trkpt>
      <trkpt lat="45.69442" lon="6.25621">
        <ele>1681</ele>
        <time>2013-02-16T11:33:35Z</time>
      </trkpt>
      <trkpt lat="45.69442" lon="6.25623">
        <ele>1681</ele>
        <time>2013-02-16T11:33:36Z</time>
      </trkpt>
      <trkpt lat="45.69439" lon="6.25625">
        <ele>1679.56</ele>
        <time>2013-02-16T11:33:41Z</time>
      </trkpt>
      <trkpt lat="45.69432" lon="6.25623">
        <ele>1681.48</ele>
        <time>2013-02-16T11:33:48Z</time>
      </trkpt>
      <trkpt lat="45.69426" lon="6.25621">
        <ele>1681.96</ele>
        <time>2013-02-16T11:34:13Z</time>
      </trkpt>
      <trkpt lat="45.6944" lon="6.25622">
        <ele>1677.64</ele>
        <time>2013-02-16T11:34:17Z</time>
      </trkpt>
      <trkpt lat="45.69457" lon="6.25615">
        <ele>1670.43</ele>
        <time>2013-02-16T11:34:20Z</time>
      </trkpt>
      <trkpt lat="45.69464" lon="6.25612">
        <ele>1666.58</ele>
        <time>2013-02-16T11:34:21Z</time>
      </trkpt>
      <trkpt lat="45.69472" lon="6.2561">
        <ele>1662.74</ele>
        <time>2013-02-16T11:34:22Z</time>
      </trkpt>
      <trkpt lat="45.69479" lon="6.2561">
        <ele>1659.37</ele>
        <time>2013-02-16T11:34:23Z</time>
      </trkpt>
      <trkpt lat="45.69489" lon="6.25606">
        <ele>1656.49</ele>
        <time>2013-02-16T11:34:25Z</time>
      </trkpt>
      <trkpt lat="45.69499" lon="6.256">
        <ele>1652.64</ele>
        <time>2013-02-16T11:34:27Z</time>
      </trkpt>
      <trkpt lat="45.69507" lon="6.25596">
        <ele>1648.32</ele>
        <time>2013-02-16T11:34:29Z</time>
      </trkpt>
      <trkpt lat="45.69519" lon="6.25589">
        <ele>1643.99</ele>
        <time>2013-02-16T11:34:32Z</time>
      </trkpt>
      <trkpt lat="45.69526" lon="6.25584">
        <ele>1641.59</ele>
        <time>2013-02-16T11:34:34Z</time>
      </trkpt>
      <trkpt lat="45.69544" lon="6.25575">
        <ele>1635.34</ele>
        <time>2013-02-16T11:34:38Z</time>
      </trkpt>
      <trkpt lat="45.69555" lon="6.25579">
        <ele>1631.49</ele>
        <time>2013-02-16T11:34:40Z</time>
      </trkpt>
      <trkpt lat="45.69563" lon="6.25588">
        <ele>1630.53</ele>
        <time>2013-02-16T11:34:42Z</time>
      </trkpt>
      <trkpt lat="45.69563" lon="6.25592">
        <ele>1631.49</ele>
        <time>2013-02-16T11:34:55Z</time>
      </trkpt>
      <trkpt lat="45.69565" lon="6.25592">
        <ele>1631.01</ele>
        <time>2013-02-16T11:35:20Z</time>
      </trkpt>
      <trkpt lat="45.69564" lon="6.25591">
        <ele>1631.49</ele>
        <time>2013-02-16T11:35:41Z</time>
      </trkpt>
      <trkpt lat="45.69564" lon="6.25591">
        <ele>1631.98</ele>
        <time>2013-02-16T11:36:14Z</time>
      </trkpt>
      <trkpt lat="45.69565" lon="6.25591">
        <ele>1631.49</ele>
        <time>2013-02-16T11:36:42Z</time>
      </trkpt>
      <trkpt lat="45.69565" lon="6.25592">
        <ele>1631.49</ele>
        <time>2013-02-16T11:37:18Z</time>
      </trkpt>
      <trkpt lat="45.69565" lon="6.25594">
        <ele>1631.98</ele>
        <time>2013-02-16T11:37:47Z</time>
      </trkpt>
      <trkpt lat="45.69565" lon="6.25592">
        <ele>1632.46</ele>
        <time>2013-02-16T11:38:11Z</time>
      </trkpt>
      <trkpt lat="45.69565" lon="6.25593">
        <ele>1632.46</ele>
        <time>2013-02-16T11:38:36Z</time>
      </trkpt>
      <trkpt lat="45.69565" lon="6.25592">
        <ele>1632.46</ele>
        <time>2013-02-16T11:38:53Z</time>
      </trkpt>
      <trkpt lat="45.69565" lon="6.25591">
        <ele>1632.46</ele>
        <time>2013-02-16T11:39:20Z</time>
      </trkpt>
      <trkpt lat="45.69565" lon="6.25592">
        <ele>1632.94</ele>
        <time>2013-02-16T11:39:46Z</time>
      </trkpt>
      <trkpt lat="45.69565" lon="6.25593">
        <ele>1631.49</ele>
        <time>2013-02-16T11:40:08Z</time>
      </trkpt>
      <trkpt lat="45.69565" lon="6.25592">
        <ele>1633.42</ele>
        <time>2013-02-16T11:40:37Z</time>
      </trkpt>
      <trkpt lat="45.69566" lon="6.25595">
        <ele>1631.98</ele>
        <time>2013-02-16T11:40:50Z</time>
      </trkpt>
      <trkpt lat="45.69565" lon="6.25594">
        <ele>1633.9</ele>
        <time>2013-02-16T11:41:10Z</time>
      </trkpt>
      <trkpt lat="45.69565" lon="6.25594">
        <ele>1633.9</ele>
        <time>2013-02-16T11:41:14Z</time>
      </trkpt>
      <trkpt lat="45.69564" lon="6.25595">
        <ele>1633.42</ele>
        <time>2013-02-16T11:41:50Z</time>
      </trkpt>
      <trkpt lat="45.69563" lon="6.25594">
        <ele>1633.42</ele>
        <time>2013-02-16T11:42:13Z</time>
      </trkpt>
      <trkpt lat="45.69564" lon="6.25593">
        <ele>1632.94</ele>
        <time>2013-02-16T11:42:40Z</time>
      </trkpt>
      <trkpt lat="45.69565" lon="6.25591">
        <ele>1633.42</ele>
        <time>2013-02-16T11:43:01Z</time>
      </trkpt>
      <trkpt lat="45.69567" lon="6.25592">
        <ele>1628.61</ele>
        <time>2013-02-16T11:43:17Z</time>
      </trkpt>
      <trkpt lat="45.69567" lon="6.25593">
        <ele>1636.78</ele>
        <time>2013-02-16T11:43:18Z</time>
      </trkpt>
      <trkpt lat="45.69567" lon="6.25593">
        <ele>1633.9</ele>
        <time>2013-02-16T11:43:19Z</time>
      </trkpt>
      <trkpt lat="45.69567" lon="6.25592">
        <ele>1633.42</ele>
        <time>2013-02-16T11:43:44Z</time>
      </trkpt>
      <trkpt lat="45.69566" lon="6.25592">
        <ele>1633.42</ele>
        <time>2013-02-16T11:44:07Z</time>
      </trkpt>
      <trkpt lat="45.69565" lon="6.25592">
        <ele>1633.9</ele>
        <time>2013-02-16T11:44:38Z</time>
      </trkpt>
      <trkpt lat="45.69564" lon="6.25592">
        <ele>1633.9</ele>
        <time>2013-02-16T11:45:05Z</time>
      </trkpt>
      <trkpt lat="45.69566" lon="6.25591">
        <ele>1634.38</ele>
        <time>2013-02-16T11:45:32Z</time>
      </trkpt>
      <trkpt lat="45.69565" lon="6.25592">
        <ele>1627.17</ele>
        <time>2013-02-16T11:45:56Z</time>
      </trkpt>
      <trkpt lat="45.69566" lon="6.25592">
        <ele>1639.19</ele>
        <time>2013-02-16T11:45:57Z</time>
      </trkpt>
      <trkpt lat="45.69566" lon="6.25592">
        <ele>1635.82</ele>
        <time>2013-02-16T11:45:58Z</time>
      </trkpt>
      <trkpt lat="45.69566" lon="6.25592">
        <ele>1633.9</ele>
        <time>2013-02-16T11:46:00Z</time>
      </trkpt>
      <trkpt lat="45.69565" lon="6.25592">
        <ele>1633.9</ele>
        <time>2013-02-16T11:46:23Z</time>
      </trkpt>
      <trkpt lat="45.69565" lon="6.25593">
        <ele>1634.38</ele>
        <time>2013-02-16T11:46:46Z</time>
      </trkpt>
      <trkpt lat="45.69566" lon="6.25592">
        <ele>1633.42</ele>
        <time>2013-02-16T11:47:08Z</time>
      </trkpt>
      <trkpt lat="45.69565" lon="6.25591">
        <ele>1633.9</ele>
        <time>2013-02-16T11:47:29Z</time>
      </trkpt>
      <trkpt lat="45.69565" lon="6.25592">
        <ele>1633.9</ele>
        <time>2013-02-16T11:48:05Z</time>
      </trkpt>
      <trkpt lat="45.69562" lon="6.25591">
        <ele>1633.9</ele>
        <time>2013-02-16T11:48:40Z</time>
      </trkpt>
      <trkpt lat="45.69562" lon="6.25591">
        <ele>1633.9</ele>
        <time>2013-02-16T11:49:08Z</time>
      </trkpt>
      <trkpt lat="45.69562" lon="6.25592">
        <ele>1633.9</ele>
        <time>2013-02-16T11:49:44Z</time>
      </trkpt>
      <trkpt lat="45.69563" lon="6.25592">
        <ele>1633.9</ele>
        <time>2013-02-16T11:50:10Z</time>
      </trkpt>
      <trkpt lat="45.69562" lon="6.25592">
        <ele>1635.34</ele>
        <time>2013-02-16T11:50:36Z</time>
      </trkpt>
      <trkpt lat="45.69561" lon="6.25591">
        <ele>1634.38</ele>
        <time>2013-02-16T11:51:03Z</time>
      </trkpt>
      <trkpt lat="45.69561" lon="6.25592">
        <ele>1634.38</ele>
        <time>2013-02-16T11:51:28Z</time>
      </trkpt>
      <trkpt lat="45.69561" lon="6.25592">
        <ele>1629.57</ele>
        <time>2013-02-16T11:51:44Z</time>
      </trkpt>
      <trkpt lat="45.69561" lon="6.25592">
        <ele>1633.42</ele>
        <time>2013-02-16T11:51:45Z</time>
      </trkpt>
      <trkpt lat="45.6956" lon="6.25591">
        <ele>1634.38</ele>
        <time>2013-02-16T11:51:47Z</time>
      </trkpt>
      <trkpt lat="45.6956" lon="6.25591">
        <ele>1638.7</ele>
        <time>2013-02-16T11:51:48Z</time>
      </trkpt>
      <trkpt lat="45.6956" lon="6.25592">
        <ele>1635.34</ele>
        <time>2013-02-16T11:51:49Z</time>
      </trkpt>
      <trkpt lat="45.6956" lon="6.25592">
        <ele>1634.38</ele>
        <time>2013-02-16T11:51:51Z</time>
      </trkpt>
      <trkpt lat="45.6956" lon="6.25593">
        <ele>1634.86</ele>
        <time>2013-02-16T11:52:15Z</time>
      </trkpt>
      <trkpt lat="45.69559" lon="6.25592">
        <ele>1634.86</ele>
        <time>2013-02-16T11:52:44Z</time>
      </trkpt>
      <trkpt lat="45.69561" lon="6.25592">
        <ele>1634.86</ele>
        <time>2013-02-16T11:53:09Z</time>
      </trkpt>
      <trkpt lat="45.69558" lon="6.25589">
        <ele>1635.34</ele>
        <time>2013-02-16T11:53:41Z</time>
      </trkpt>
      <trkpt lat="45.69559" lon="6.25589">
        <ele>1633.9</ele>
        <time>2013-02-16T11:54:01Z</time>
      </trkpt>
      <trkpt lat="45.69561" lon="6.2559">
        <ele>1634.86</ele>
        <time>2013-02-16T11:54:21Z</time>
      </trkpt>
      <trkpt lat="45.69561" lon="6.25591">
        <ele>1635.82</ele>
        <time>2013-02-16T11:54:51Z</time>
      </trkpt>
      <trkpt lat="45.69561" lon="6.25592">
        <ele>1635.34</ele>
        <time>2013-02-16T11:55:16Z</time>
      </trkpt>
      <trkpt lat="45.69558" lon="6.25588">
        <ele>1636.3</ele>
        <time>2013-02-16T11:55:57Z</time>
      </trkpt>
      <trkpt lat="45.69558" lon="6.25588">
        <ele>1636.78</ele>
        <time>2013-02-16T11:55:58Z</time>
      </trkpt>
      <trkpt lat="45.69561" lon="6.25596">
        <ele>1636.3</ele>
        <time>2013-02-16T11:56:26Z</time>
      </trkpt>
      <trkpt lat="45.69559" lon="6.2559">
        <ele>1636.3</ele>
        <time>2013-02-16T11:56:54Z</time>
      </trkpt>
      <trkpt lat="45.69557" lon="6.25587">
        <ele>1636.3</ele>
        <time>2013-02-16T11:57:25Z</time>
      </trkpt>
      <trkpt lat="45.69557" lon="6.25588">
        <ele>1636.3</ele>
        <time>2013-02-16T11:57:45Z</time>
      </trkpt>
      <trkpt lat="45.69558" lon="6.25588">
        <ele>1636.3</ele>
        <time>2013-02-16T11:58:11Z</time>
      </trkpt>
      <trkpt lat="45.69558" lon="6.25586">
        <ele>1636.78</ele>
        <time>2013-02-16T11:58:39Z</time>
      </trkpt>
      <trkpt lat="45.69576" lon="6.25588">
        <ele>1633.42</ele>
        <time>2013-02-16T11:58:44Z</time>
      </trkpt>
      <trkpt lat="45.69588" lon="6.25589">
        <ele>1630.05</ele>
        <time>2013-02-16T11:58:46Z</time>
      </trkpt>
      <trkpt lat="45.69606" lon="6.25584">
        <ele>1625.73</ele>
        <time>2013-02-16T11:58:49Z</time>
      </trkpt>
      <trkpt lat="45.69616" lon="6.25579">
        <ele>1621.88</ele>
        <time>2013-02-16T11:58:51Z</time>
      </trkpt>
      <trkpt lat="45.69627" lon="6.25577">
        <ele>1618.52</ele>
        <time>2013-02-16T11:58:53Z</time>
      </trkpt>
      <trkpt lat="45.69637" lon="6.25576">
        <ele>1616.11</ele>
        <time>2013-02-16T11:58:55Z</time>
      </trkpt>
      <trkpt lat="45.6966" lon="6.25564">
        <ele>1609.38</ele>
        <time>2013-02-16T11:59:00Z</time>
      </trkpt>
      <trkpt lat="45.69671" lon="6.25558">
        <ele>1606.5</ele>
        <time>2013-02-16T11:59:02Z</time>
      </trkpt>
      <trkpt lat="45.69676" lon="6.25553">
        <ele>1603.62</ele>
        <time>2013-02-16T11:59:03Z</time>
      </trkpt>
      <trkpt lat="45.69687" lon="6.25537">
        <ele>1599.29</ele>
        <time>2013-02-16T11:59:05Z</time>
      </trkpt>
      <trkpt lat="45.69709" lon="6.25518">
        <ele>1595.93</ele>
        <time>2013-02-16T11:59:09Z</time>
      </trkpt>
      <trkpt lat="45.69709" lon="6.2552">
        <ele>1598.33</ele>
        <time>2013-02-16T11:59:22Z</time>
      </trkpt>
      <trkpt lat="45.69718" lon="6.25529">
        <ele>1596.41</ele>
        <time>2013-02-16T11:59:40Z</time>
      </trkpt>
      <trkpt lat="45.6972" lon="6.25531">
        <ele>1596.41</ele>
        <time>2013-02-16T11:59:41Z</time>
      </trkpt>
      <trkpt lat="45.69737" lon="6.2554">
        <ele>1594</ele>
        <time>2013-02-16T11:59:46Z</time>
      </trkpt>
      <trkpt lat="45.69744" lon="6.25541">
        <ele>1594</ele>
        <time>2013-02-16T11:59:55Z</time>
      </trkpt>
      <trkpt lat="45.69744" lon="6.25542">
        <ele>1594</ele>
        <time>2013-02-16T12:00:16Z</time>
      </trkpt>
      <trkpt lat="45.69743" lon="6.25543">
        <ele>1591.6</ele>
        <time>2013-02-16T12:00:40Z</time>
      </trkpt>
      <trkpt lat="45.69743" lon="6.25543">
        <ele>1593.52</ele>
        <time>2013-02-16T12:00:42Z</time>
      </trkpt>
      <trkpt lat="45.69743" lon="6.25543">
        <ele>1595.93</ele>
        <time>2013-02-16T12:00:46Z</time>
      </trkpt>
      <trkpt lat="45.69744" lon="6.25542">
        <ele>1593.52</ele>
        <time>2013-02-16T12:00:49Z</time>
      </trkpt>
      <trkpt lat="45.69744" lon="6.25542">
        <ele>1589.2</ele>
        <time>2013-02-16T12:00:59Z</time>
      </trkpt>
      <trkpt lat="45.69743" lon="6.25542">
        <ele>1595.93</ele>
        <time>2013-02-16T12:01:00Z</time>
      </trkpt>
      <trkpt lat="45.69742" lon="6.25544">
        <ele>1592.56</ele>
        <time>2013-02-16T12:01:08Z</time>
      </trkpt>
      <trkpt lat="45.69741" lon="6.25547">
        <ele>1592.56</ele>
        <time>2013-02-16T12:01:24Z</time>
      </trkpt>
      <trkpt lat="45.69742" lon="6.25547">
        <ele>1592.56</ele>
        <time>2013-02-16T12:01:50Z</time>
      </trkpt>
      <trkpt lat="45.69742" lon="6.25547">
        <ele>1593.52</ele>
        <time>2013-02-16T12:02:06Z</time>
      </trkpt>
      <trkpt lat="45.69744" lon="6.25547">
        <ele>1593.04</ele>
        <time>2013-02-16T12:02:26Z</time>
      </trkpt>
      <trkpt lat="45.69746" lon="6.25549">
        <ele>1592.56</ele>
        <time>2013-02-16T12:02:56Z</time>
      </trkpt>
      <trkpt lat="45.69745" lon="6.25548">
        <ele>1593.52</ele>
        <time>2013-02-16T12:03:06Z</time>
      </trkpt>
      <trkpt lat="45.69743" lon="6.25547">
        <ele>1592.08</ele>
        <time>2013-02-16T12:03:27Z</time>
      </trkpt>
      <trkpt lat="45.69744" lon="6.25547">
        <ele>1593.04</ele>
        <time>2013-02-16T12:03:47Z</time>
      </trkpt>
      <trkpt lat="45.69744" lon="6.25547">
        <ele>1593.52</ele>
        <time>2013-02-16T12:04:10Z</time>
      </trkpt>
      <trkpt lat="45.69743" lon="6.25548">
        <ele>1592.08</ele>
        <time>2013-02-16T12:04:34Z</time>
      </trkpt>
      <trkpt lat="45.69743" lon="6.25548">
        <ele>1591.12</ele>
        <time>2013-02-16T12:04:36Z</time>
      </trkpt>
      <trkpt lat="45.69743" lon="6.25548">
        <ele>1594.96</ele>
        <time>2013-02-16T12:04:37Z</time>
      </trkpt>
      <trkpt lat="45.69744" lon="6.25548">
        <ele>1591.6</ele>
        <time>2013-02-16T12:04:38Z</time>
      </trkpt>
      <trkpt lat="45.69743" lon="6.25546">
        <ele>1592.56</ele>
        <time>2013-02-16T12:05:00Z</time>
      </trkpt>
      <trkpt lat="45.69742" lon="6.25546">
        <ele>1591.6</ele>
        <time>2013-02-16T12:05:33Z</time>
      </trkpt>
      <trkpt lat="45.69742" lon="6.25546">
        <ele>1593.04</ele>
        <time>2013-02-16T12:06:04Z</time>
      </trkpt>
      <trkpt lat="45.69742" lon="6.25546">
        <ele>1594</ele>
        <time>2013-02-16T12:06:26Z</time>
      </trkpt>
      <trkpt lat="45.69742" lon="6.25545">
        <ele>1594.48</ele>
        <time>2013-02-16T12:06:32Z</time>
      </trkpt>
      <trkpt lat="45.69742" lon="6.25544">
        <ele>1593.04</ele>
        <time>2013-02-16T12:06:56Z</time>
      </trkpt>
      <trkpt lat="45.69742" lon="6.25545">
        <ele>1592.56</ele>
        <time>2013-02-16T12:07:22Z</time>
      </trkpt>
      <trkpt lat="45.69741" lon="6.25544">
        <ele>1593.04</ele>
        <time>2013-02-16T12:07:54Z</time>
      </trkpt>
      <trkpt lat="45.69741" lon="6.25543">
        <ele>1594</ele>
        <time>2013-02-16T12:08:03Z</time>
      </trkpt>
      <trkpt lat="45.69741" lon="6.25545">
        <ele>1594</ele>
        <time>2013-02-16T12:08:35Z</time>
      </trkpt>
      <trkpt lat="45.69741" lon="6.25545">
        <ele>1592.08</ele>
        <time>2013-02-16T12:08:51Z</time>
      </trkpt>
      <trkpt lat="45.69741" lon="6.25546">
        <ele>1593.52</ele>
        <time>2013-02-16T12:08:57Z</time>
      </trkpt>
      <trkpt lat="45.69741" lon="6.25546">
        <ele>1594</ele>
        <time>2013-02-16T12:09:06Z</time>
      </trkpt>
      <trkpt lat="45.69741" lon="6.25545">
        <ele>1593.04</ele>
        <time>2013-02-16T12:09:32Z</time>
      </trkpt>
      <trkpt lat="45.6974" lon="6.25546">
        <ele>1594</ele>
        <time>2013-02-16T12:10:04Z</time>
      </trkpt>
      <trkpt lat="45.69741" lon="6.25545">
        <ele>1593.52</ele>
        <time>2013-02-16T12:10:35Z</time>
      </trkpt>
      <trkpt lat="45.69741" lon="6.25547">
        <ele>1593.52</ele>
        <time>2013-02-16T12:11:11Z</time>
      </trkpt>
      <trkpt lat="45.69741" lon="6.25544">
        <ele>1594.48</ele>
        <time>2013-02-16T12:11:47Z</time>
      </trkpt>
      <trkpt lat="45.69741" lon="6.25546">
        <ele>1594.48</ele>
        <time>2013-02-16T12:12:25Z</time>
      </trkpt>
      <trkpt lat="45.69741" lon="6.25545">
        <ele>1594</ele>
        <time>2013-02-16T12:13:03Z</time>
      </trkpt>
      <trkpt lat="45.69742" lon="6.25547">
        <ele>1594.96</ele>
        <time>2013-02-16T12:13:40Z</time>
      </trkpt>
      <trkpt lat="45.69742" lon="6.25545">
        <ele>1594</ele>
        <time>2013-02-16T12:14:11Z</time>
      </trkpt>
      <trkpt lat="45.69741" lon="6.25544">
        <ele>1593.04</ele>
        <time>2013-02-16T12:14:35Z</time>
      </trkpt>
      <trkpt lat="45.69742" lon="6.25546">
        <ele>1593.52</ele>
        <time>2013-02-16T12:15:05Z</time>
      </trkpt>
      <trkpt lat="45.69743" lon="6.25546">
        <ele>1591.6</ele>
        <time>2013-02-16T12:15:33Z</time>
      </trkpt>
      <trkpt lat="45.69743" lon="6.25546">
        <ele>1595.93</ele>
        <time>2013-02-16T12:15:34Z</time>
      </trkpt>
      <trkpt lat="45.69742" lon="6.25545">
        <ele>1594.96</ele>
        <time>2013-02-16T12:15:49Z</time>
      </trkpt>
      <trkpt lat="45.69742" lon="6.25544">
        <ele>1594.96</ele>
        <time>2013-02-16T12:16:22Z</time>
      </trkpt>
      <trkpt lat="45.69742" lon="6.25545">
        <ele>1589.68</ele>
        <time>2013-02-16T12:16:36Z</time>
      </trkpt>
      <trkpt lat="45.69742" lon="6.25546">
        <ele>1598.81</ele>
        <time>2013-02-16T12:16:37Z</time>
      </trkpt>
      <trkpt lat="45.69742" lon="6.25545">
        <ele>1596.41</ele>
        <time>2013-02-16T12:16:38Z</time>
      </trkpt>
      <trkpt lat="45.69744" lon="6.25546">
        <ele>1594.48</ele>
        <time>2013-02-16T12:16:46Z</time>
      </trkpt>
      <trkpt lat="45.69744" lon="6.25547">
        <ele>1595.45</ele>
        <time>2013-02-16T12:17:09Z</time>
      </trkpt>
      <trkpt lat="45.69741" lon="6.25548">
        <ele>1595.45</ele>
        <time>2013-02-16T12:17:34Z</time>
      </trkpt>
      <trkpt lat="45.69743" lon="6.25546">
        <ele>1595.45</ele>
        <time>2013-02-16T12:18:01Z</time>
      </trkpt>
      <trkpt lat="45.69743" lon="6.25547">
        <ele>1590.64</ele>
        <time>2013-02-16T12:18:06Z</time>
      </trkpt>
      <trkpt lat="45.69743" lon="6.25547">
        <ele>1599.77</ele>
        <time>2013-02-16T12:18:07Z</time>
      </trkpt>
      <trkpt lat="45.69743" lon="6.25547">
        <ele>1594.96</ele>
        <time>2013-02-16T12:18:10Z</time>
      </trkpt>
      <trkpt lat="45.69743" lon="6.25547">
        <ele>1595.45</ele>
        <time>2013-02-16T12:18:11Z</time>
      </trkpt>
      <trkpt lat="45.69744" lon="6.25549">
        <ele>1594.96</ele>
        <time>2013-02-16T12:18:31Z</time>
      </trkpt>
      <trkpt lat="45.69747" lon="6.25546">
        <ele>1595.45</ele>
        <time>2013-02-16T12:18:50Z</time>
      </trkpt>
      <trkpt lat="45.69745" lon="6.25546">
        <ele>1595.93</ele>
        <time>2013-02-16T12:19:12Z</time>
      </trkpt>
      <trkpt lat="45.69745" lon="6.25547">
        <ele>1594.96</ele>
        <time>2013-02-16T12:19:34Z</time>
      </trkpt>
      <trkpt lat="45.69743" lon="6.25547">
        <ele>1594.48</ele>
        <time>2013-02-16T12:20:03Z</time>
      </trkpt>
      <trkpt lat="45.69742" lon="6.25548">
        <ele>1594.48</ele>
        <time>2013-02-16T12:20:14Z</time>
      </trkpt>
      <trkpt lat="45.69742" lon="6.25546">
        <ele>1595.45</ele>
        <time>2013-02-16T12:20:22Z</time>
      </trkpt>
      <trkpt lat="45.69742" lon="6.25545">
        <ele>1583.43</ele>
        <time>2013-02-16T12:20:24Z</time>
      </trkpt>
      <trkpt lat="45.69742" lon="6.25545">
        <ele>1595.93</ele>
        <time>2013-02-16T12:20:25Z</time>
      </trkpt>
      <trkpt lat="45.69741" lon="6.25542">
        <ele>1595.45</ele>
        <time>2013-02-16T12:20:54Z</time>
      </trkpt>
      <trkpt lat="45.69741" lon="6.25542">
        <ele>1594.48</ele>
        <time>2013-02-16T12:20:56Z</time>
      </trkpt>
      <trkpt lat="45.69743" lon="6.25544">
        <ele>1597.85</ele>
        <time>2013-02-16T12:21:05Z</time>
      </trkpt>
      <trkpt lat="45.69743" lon="6.25543">
        <ele>1595.93</ele>
        <time>2013-02-16T12:21:26Z</time>
      </trkpt>
      <trkpt lat="45.69743" lon="6.25548">
        <ele>1595.45</ele>
        <time>2013-02-16T12:21:44Z</time>
      </trkpt>
      <trkpt lat="45.69743" lon="6.25544">
        <ele>1595.93</ele>
        <time>2013-02-16T12:22:11Z</time>
      </trkpt>
      <trkpt lat="45.69742" lon="6.2554">
        <ele>1586.79</ele>
        <time>2013-02-16T12:22:20Z</time>
      </trkpt>
      <trkpt lat="45.69742" lon="6.25539">
        <ele>1602.66</ele>
        <time>2013-02-16T12:22:21Z</time>
      </trkpt>
      <trkpt lat="45.69742" lon="6.25539">
        <ele>1599.77</ele>
        <time>2013-02-16T12:22:22Z</time>
      </trkpt>
      <trkpt lat="45.69742" lon="6.25539">
        <ele>1596.41</ele>
        <time>2013-02-16T12:22:25Z</time>
      </trkpt>
      <trkpt lat="45.69742" lon="6.25539">
        <ele>1595.93</ele>
        <time>2013-02-16T12:22:26Z</time>
      </trkpt>
      <trkpt lat="45.69744" lon="6.25543">
        <ele>1596.89</ele>
        <time>2013-02-16T12:22:42Z</time>
      </trkpt>
      <trkpt lat="45.69746" lon="6.25543">
        <ele>1593.52</ele>
        <time>2013-02-16T12:23:09Z</time>
      </trkpt>
      <trkpt lat="45.69746" lon="6.25543">
        <ele>1595.93</ele>
        <time>2013-02-16T12:23:10Z</time>
      </trkpt>
      <trkpt lat="45.69746" lon="6.25543">
        <ele>1596.89</ele>
        <time>2013-02-16T12:23:12Z</time>
      </trkpt>
      <trkpt lat="45.69747" lon="6.25544">
        <ele>1599.77</ele>
        <time>2013-02-16T12:23:14Z</time>
      </trkpt>
      <trkpt lat="45.69747" lon="6.25544">
        <ele>1593.04</ele>
        <time>2013-02-16T12:23:17Z</time>
      </trkpt>
      <trkpt lat="45.69747" lon="6.25544">
        <ele>1576.7</ele>
        <time>2013-02-16T12:23:18Z</time>
      </trkpt>
      <trkpt lat="45.69747" lon="6.25544">
        <ele>1590.64</ele>
        <time>2013-02-16T12:23:20Z</time>
      </trkpt>
      <trkpt lat="45.69747" lon="6.25544">
        <ele>1599.29</ele>
        <time>2013-02-16T12:23:21Z</time>
      </trkpt>
      <trkpt lat="45.69747" lon="6.25544">
        <ele>1609.86</ele>
        <time>2013-02-16T12:23:22Z</time>
      </trkpt>
      <trkpt lat="45.69747" lon="6.25544">
        <ele>1622.36</ele>
        <time>2013-02-16T12:23:23Z</time>
      </trkpt>
      <trkpt lat="45.69747" lon="6.25544">
        <ele>1600.25</ele>
        <time>2013-02-16T12:23:24Z</time>
      </trkpt>
      <trkpt lat="45.69747" lon="6.25544">
        <ele>1596.41</ele>
        <time>2013-02-16T12:23:26Z</time>
      </trkpt>
      <trkpt lat="45.69747" lon="6.25545">
        <ele>1596.41</ele>
        <time>2013-02-16T12:23:27Z</time>
      </trkpt>
      <trkpt lat="45.69747" lon="6.25546">
        <ele>1600.25</ele>
        <time>2013-02-16T12:23:31Z</time>
      </trkpt>
      <trkpt lat="45.69748" lon="6.25546">
        <ele>1600.25</ele>
        <time>2013-02-16T12:23:32Z</time>
      </trkpt>
      <trkpt lat="45.69747" lon="6.25546">
        <ele>1596.89</ele>
        <time>2013-02-16T12:23:34Z</time>
      </trkpt>
      <trkpt lat="45.69746" lon="6.25542">
        <ele>1597.37</ele>
        <time>2013-02-16T12:23:58Z</time>
      </trkpt>
      <trkpt lat="45.69749" lon="6.25541">
        <ele>1589.68</ele>
        <time>2013-02-16T12:24:08Z</time>
      </trkpt>
      <trkpt lat="45.6975" lon="6.2554">
        <ele>1606.98</ele>
        <time>2013-02-16T12:24:09Z</time>
      </trkpt>
      <trkpt lat="45.6975" lon="6.25541">
        <ele>1597.85</ele>
        <time>2013-02-16T12:24:10Z</time>
      </trkpt>
      <trkpt lat="45.69751" lon="6.25541">
        <ele>1596.89</ele>
        <time>2013-02-16T12:24:12Z</time>
      </trkpt>
      <trkpt lat="45.69756" lon="6.25536">
        <ele>1596.41</ele>
        <time>2013-02-16T12:24:27Z</time>
      </trkpt>
      <trkpt lat="45.69765" lon="6.25522">
        <ele>1593.52</ele>
        <time>2013-02-16T12:24:31Z</time>
      </trkpt>
      <trkpt lat="45.69791" lon="6.2552">
        <ele>1590.64</ele>
        <time>2013-02-16T12:24:37Z</time>
      </trkpt>
      <trkpt lat="45.69793" lon="6.25523">
        <ele>1589.68</ele>
        <time>2013-02-16T12:24:38Z</time>
      </trkpt>
      <trkpt lat="45.69794" lon="6.25526">
        <ele>1589.68</ele>
        <time>2013-02-16T12:24:39Z</time>
      </trkpt>
      <trkpt lat="45.69795" lon="6.25528">
        <ele>1589.2</ele>
        <time>2013-02-16T12:24:40Z</time>
      </trkpt>
      <trkpt lat="45.69805" lon="6.25547">
        <ele>1587.27</ele>
        <time>2013-02-16T12:24:50Z</time>
      </trkpt>
      <trkpt lat="45.69808" lon="6.25549">
        <ele>1586.79</ele>
        <time>2013-02-16T12:24:51Z</time>
      </trkpt>
      <trkpt lat="45.69826" lon="6.25562">
        <ele>1583.43</ele>
        <time>2013-02-16T12:24:56Z</time>
      </trkpt>
      <trkpt lat="45.69839" lon="6.25573">
        <ele>1580.06</ele>
        <time>2013-02-16T12:24:59Z</time>
      </trkpt>
      <trkpt lat="45.69844" lon="6.25577">
        <ele>1580.54</ele>
        <time>2013-02-16T12:25:00Z</time>
      </trkpt>
      <trkpt lat="45.69848" lon="6.25581">
        <ele>1578.62</ele>
        <time>2013-02-16T12:25:01Z</time>
      </trkpt>
      <trkpt lat="45.69851" lon="6.25585">
        <ele>1578.62</ele>
        <time>2013-02-16T12:25:02Z</time>
      </trkpt>
      <trkpt lat="45.69867" lon="6.25601">
        <ele>1574.3</ele>
        <time>2013-02-16T12:25:07Z</time>
      </trkpt>
      <trkpt lat="45.69872" lon="6.25604">
        <ele>1573.82</ele>
        <time>2013-02-16T12:25:08Z</time>
      </trkpt>
      <trkpt lat="45.69894" lon="6.25614">
        <ele>1569.97</ele>
        <time>2013-02-16T12:25:12Z</time>
      </trkpt>
      <trkpt lat="45.69912" lon="6.25629">
        <ele>1565.64</ele>
        <time>2013-02-16T12:25:15Z</time>
      </trkpt>
      <trkpt lat="45.69917" lon="6.25635">
        <ele>1565.64</ele>
        <time>2013-02-16T12:25:16Z</time>
      </trkpt>
      <trkpt lat="45.69922" lon="6.25641">
        <ele>1565.16</ele>
        <time>2013-02-16T12:25:17Z</time>
      </trkpt>
      <trkpt lat="45.69928" lon="6.25645">
        <ele>1563.24</ele>
        <time>2013-02-16T12:25:18Z</time>
      </trkpt>
      <trkpt lat="45.69934" lon="6.25649">
        <ele>1560.84</ele>
        <time>2013-02-16T12:25:19Z</time>
      </trkpt>
      <trkpt lat="45.6994" lon="6.25654">
        <ele>1560.36</ele>
        <time>2013-02-16T12:25:20Z</time>
      </trkpt>
      <trkpt lat="45.69957" lon="6.25671">
        <ele>1555.07</ele>
        <time>2013-02-16T12:25:23Z</time>
      </trkpt>
      <trkpt lat="45.69963" lon="6.25679">
        <ele>1554.11</ele>
        <time>2013-02-16T12:25:24Z</time>
      </trkpt>
      <trkpt lat="45.69969" lon="6.25685">
        <ele>1552.19</ele>
        <time>2013-02-16T12:25:25Z</time>
      </trkpt>
      <trkpt lat="45.69976" lon="6.25691">
        <ele>1549.3</ele>
        <time>2013-02-16T12:25:26Z</time>
      </trkpt>
      <trkpt lat="45.69983" lon="6.25694">
        <ele>1546.9</ele>
        <time>2013-02-16T12:25:27Z</time>
      </trkpt>
      <trkpt lat="45.69988" lon="6.25697">
        <ele>1546.9</ele>
        <time>2013-02-16T12:25:28Z</time>
      </trkpt>
      <trkpt lat="45.70005" lon="6.25708">
        <ele>1542.09</ele>
        <time>2013-02-16T12:25:31Z</time>
      </trkpt>
      <trkpt lat="45.70019" lon="6.25718">
        <ele>1537.77</ele>
        <time>2013-02-16T12:25:33Z</time>
      </trkpt>
      <trkpt lat="45.70032" lon="6.25729">
        <ele>1533.92</ele>
        <time>2013-02-16T12:25:35Z</time>
      </trkpt>
      <trkpt lat="45.70041" lon="6.2574">
        <ele>1531.52</ele>
        <time>2013-02-16T12:25:37Z</time>
      </trkpt>
      <trkpt lat="45.70049" lon="6.25754">
        <ele>1527.19</ele>
        <time>2013-02-16T12:25:39Z</time>
      </trkpt>
      <trkpt lat="45.70052" lon="6.25763">
        <ele>1524.31</ele>
        <time>2013-02-16T12:25:40Z</time>
      </trkpt>
      <trkpt lat="45.70057" lon="6.25771">
        <ele>1522.39</ele>
        <time>2013-02-16T12:25:41Z</time>
      </trkpt>
      <trkpt lat="45.70061" lon="6.25777">
        <ele>1521.9</ele>
        <time>2013-02-16T12:25:42Z</time>
      </trkpt>
      <trkpt lat="45.70064" lon="6.25783">
        <ele>1519.5</ele>
        <time>2013-02-16T12:25:43Z</time>
      </trkpt>
      <trkpt lat="45.70068" lon="6.2579">
        <ele>1518.06</ele>
        <time>2013-02-16T12:25:44Z</time>
      </trkpt>
      <trkpt lat="45.70073" lon="6.25797">
        <ele>1515.18</ele>
        <time>2013-02-16T12:25:45Z</time>
      </trkpt>
      <trkpt lat="45.70078" lon="6.25803">
        <ele>1514.21</ele>
        <time>2013-02-16T12:25:46Z</time>
      </trkpt>
      <trkpt lat="45.70087" lon="6.25815">
        <ele>1509.41</ele>
        <time>2013-02-16T12:25:48Z</time>
      </trkpt>
      <trkpt lat="45.70092" lon="6.25819">
        <ele>1508.45</ele>
        <time>2013-02-16T12:25:49Z</time>
      </trkpt>
      <trkpt lat="45.70093" lon="6.25824">
        <ele>1506.52</ele>
        <time>2013-02-16T12:25:50Z</time>
      </trkpt>
      <trkpt lat="45.70091" lon="6.25824">
        <ele>1507</ele>
        <time>2013-02-16T12:25:57Z</time>
      </trkpt>
      <trkpt lat="45.7008" lon="6.25826">
        <ele>1507</ele>
        <time>2013-02-16T12:26:19Z</time>
      </trkpt>
      <trkpt lat="45.7008" lon="6.25829">
        <ele>1506.52</ele>
        <time>2013-02-16T12:26:23Z</time>
      </trkpt>
      <trkpt lat="45.70081" lon="6.25832">
        <ele>1506.04</ele>
        <time>2013-02-16T12:26:24Z</time>
      </trkpt>
      <trkpt lat="45.70083" lon="6.25835">
        <ele>1505.56</ele>
        <time>2013-02-16T12:26:25Z</time>
      </trkpt>
      <trkpt lat="45.70087" lon="6.25843">
        <ele>1504.12</ele>
        <time>2013-02-16T12:26:27Z</time>
      </trkpt>
      <trkpt lat="45.70091" lon="6.25848">
        <ele>1502.68</ele>
        <time>2013-02-16T12:26:28Z</time>
      </trkpt>
      <trkpt lat="45.70106" lon="6.25869">
        <ele>1499.31</ele>
        <time>2013-02-16T12:26:32Z</time>
      </trkpt>
      <trkpt lat="45.70117" lon="6.25885">
        <ele>1495.95</ele>
        <time>2013-02-16T12:26:35Z</time>
      </trkpt>
      <trkpt lat="45.7012" lon="6.25891">
        <ele>1494.51</ele>
        <time>2013-02-16T12:26:36Z</time>
      </trkpt>
      <trkpt lat="45.70125" lon="6.25903">
        <ele>1491.14</ele>
        <time>2013-02-16T12:26:38Z</time>
      </trkpt>
      <trkpt lat="45.70129" lon="6.25908">
        <ele>1490.18</ele>
        <time>2013-02-16T12:26:39Z</time>
      </trkpt>
      <trkpt lat="45.70133" lon="6.25912">
        <ele>1489.7</ele>
        <time>2013-02-16T12:26:40Z</time>
      </trkpt>
      <trkpt lat="45.70137" lon="6.25915">
        <ele>1487.3</ele>
        <time>2013-02-16T12:26:41Z</time>
      </trkpt>
      <trkpt lat="45.70141" lon="6.25917">
        <ele>1486.34</ele>
        <time>2013-02-16T12:26:42Z</time>
      </trkpt>
      <trkpt lat="45.70147" lon="6.25919">
        <ele>1485.37</ele>
        <time>2013-02-16T12:26:43Z</time>
      </trkpt>
      <trkpt lat="45.70158" lon="6.25922">
        <ele>1480.57</ele>
        <time>2013-02-16T12:26:45Z</time>
      </trkpt>
      <trkpt lat="45.70176" lon="6.25925">
        <ele>1477.2</ele>
        <time>2013-02-16T12:26:48Z</time>
      </trkpt>
      <trkpt lat="45.70194" lon="6.25927">
        <ele>1471.92</ele>
        <time>2013-02-16T12:26:51Z</time>
      </trkpt>
      <trkpt lat="45.70201" lon="6.25928">
        <ele>1472.4</ele>
        <time>2013-02-16T12:26:52Z</time>
      </trkpt>
      <trkpt lat="45.70208" lon="6.25931">
        <ele>1469.51</ele>
        <time>2013-02-16T12:26:53Z</time>
      </trkpt>
      <trkpt lat="45.70218" lon="6.25941">
        <ele>1467.59</ele>
        <time>2013-02-16T12:26:59Z</time>
      </trkpt>
      <trkpt lat="45.70221" lon="6.25946">
        <ele>1467.59</ele>
        <time>2013-02-16T12:27:11Z</time>
      </trkpt>
      <trkpt lat="45.70222" lon="6.25949">
        <ele>1467.11</ele>
        <time>2013-02-16T12:27:12Z</time>
      </trkpt>
      <trkpt lat="45.70222" lon="6.25952">
        <ele>1466.63</ele>
        <time>2013-02-16T12:27:13Z</time>
      </trkpt>
      <trkpt lat="45.70222" lon="6.25954">
        <ele>1465.67</ele>
        <time>2013-02-16T12:27:14Z</time>
      </trkpt>
      <trkpt lat="45.70221" lon="6.25957">
        <ele>1465.67</ele>
        <time>2013-02-16T12:27:15Z</time>
      </trkpt>
      <trkpt lat="45.70217" lon="6.2596">
        <ele>1463.74</ele>
        <time>2013-02-16T12:27:16Z</time>
      </trkpt>
      <trkpt lat="45.70214" lon="6.25964">
        <ele>1462.3</ele>
        <time>2013-02-16T12:27:17Z</time>
      </trkpt>
      <trkpt lat="45.70211" lon="6.25967">
        <ele>1463.26</ele>
        <time>2013-02-16T12:27:18Z</time>
      </trkpt>
      <trkpt lat="45.70206" lon="6.25969">
        <ele>1461.82</ele>
        <time>2013-02-16T12:27:19Z</time>
      </trkpt>
      <trkpt lat="45.70198" lon="6.25976">
        <ele>1457.98</ele>
        <time>2013-02-16T12:27:21Z</time>
      </trkpt>
      <trkpt lat="45.70197" lon="6.25982">
        <ele>1456.53</ele>
        <time>2013-02-16T12:27:22Z</time>
      </trkpt>
      <trkpt lat="45.70199" lon="6.25988">
        <ele>1455.09</ele>
        <time>2013-02-16T12:27:23Z</time>
      </trkpt>
      <trkpt lat="45.70203" lon="6.26">
        <ele>1451.73</ele>
        <time>2013-02-16T12:27:25Z</time>
      </trkpt>
      <trkpt lat="45.70212" lon="6.26016">
        <ele>1448.36</ele>
        <time>2013-02-16T12:27:28Z</time>
      </trkpt>
      <trkpt lat="45.70216" lon="6.26019">
        <ele>1446.92</ele>
        <time>2013-02-16T12:27:29Z</time>
      </trkpt>
      <trkpt lat="45.70221" lon="6.26022">
        <ele>1445</ele>
        <time>2013-02-16T12:27:30Z</time>
      </trkpt>
      <trkpt lat="45.70233" lon="6.26029">
        <ele>1443.08</ele>
        <time>2013-02-16T12:27:32Z</time>
      </trkpt>
      <trkpt lat="45.70245" lon="6.26036">
        <ele>1440.19</ele>
        <time>2013-02-16T12:27:34Z</time>
      </trkpt>
      <trkpt lat="45.70251" lon="6.26039">
        <ele>1439.23</ele>
        <time>2013-02-16T12:27:35Z</time>
      </trkpt>
      <trkpt lat="45.70257" lon="6.26042">
        <ele>1437.79</ele>
        <time>2013-02-16T12:27:36Z</time>
      </trkpt>
      <trkpt lat="45.70262" lon="6.26044">
        <ele>1436.35</ele>
        <time>2013-02-16T12:27:37Z</time>
      </trkpt>
      <trkpt lat="45.70268" lon="6.26046">
        <ele>1434.91</ele>
        <time>2013-02-16T12:27:38Z</time>
      </trkpt>
      <trkpt lat="45.70285" lon="6.26053">
        <ele>1431.54</ele>
        <time>2013-02-16T12:27:41Z</time>
      </trkpt>
      <trkpt lat="45.7029" lon="6.26056">
        <ele>1431.54</ele>
        <time>2013-02-16T12:27:42Z</time>
      </trkpt>
      <trkpt lat="45.70295" lon="6.26061">
        <ele>1431.06</ele>
        <time>2013-02-16T12:27:43Z</time>
      </trkpt>
      <trkpt lat="45.703" lon="6.26066">
        <ele>1429.62</ele>
        <time>2013-02-16T12:27:44Z</time>
      </trkpt>
      <trkpt lat="45.70303" lon="6.26071">
        <ele>1428.18</ele>
        <time>2013-02-16T12:27:45Z</time>
      </trkpt>
      <trkpt lat="45.70307" lon="6.26076">
        <ele>1426.73</ele>
        <time>2013-02-16T12:27:46Z</time>
      </trkpt>
      <trkpt lat="45.70312" lon="6.2608">
        <ele>1425.77</ele>
        <time>2013-02-16T12:27:47Z</time>
      </trkpt>
      <trkpt lat="45.70316" lon="6.26085">
        <ele>1425.29</ele>
        <time>2013-02-16T12:27:48Z</time>
      </trkpt>
      <trkpt lat="45.70321" lon="6.26089">
        <ele>1423.85</ele>
        <time>2013-02-16T12:27:49Z</time>
      </trkpt>
      <trkpt lat="45.70326" lon="6.26092">
        <ele>1421.93</ele>
        <time>2013-02-16T12:27:50Z</time>
      </trkpt>
      <trkpt lat="45.70331" lon="6.26096">
        <ele>1420.97</ele>
        <time>2013-02-16T12:27:51Z</time>
      </trkpt>
      <trkpt lat="45.70335" lon="6.26099">
        <ele>1419.04</ele>
        <time>2013-02-16T12:27:52Z</time>
      </trkpt>
      <trkpt lat="45.70339" lon="6.26102">
        <ele>1418.08</ele>
        <time>2013-02-16T12:27:53Z</time>
      </trkpt>
      <trkpt lat="45.70344" lon="6.26105">
        <ele>1416.64</ele>
        <time>2013-02-16T12:27:54Z</time>
      </trkpt>
      <trkpt lat="45.70348" lon="6.26109">
        <ele>1415.68</ele>
        <time>2013-02-16T12:27:55Z</time>
      </trkpt>
      <trkpt lat="45.70353" lon="6.26113">
        <ele>1414.24</ele>
        <time>2013-02-16T12:27:56Z</time>
      </trkpt>
      <trkpt lat="45.70357" lon="6.26117">
        <ele>1412.31</ele>
        <time>2013-02-16T12:27:57Z</time>
      </trkpt>
      <trkpt lat="45.70361" lon="6.26122">
        <ele>1411.35</ele>
        <time>2013-02-16T12:27:58Z</time>
      </trkpt>
      <trkpt lat="45.70365" lon="6.26127">
        <ele>1410.39</ele>
        <time>2013-02-16T12:27:59Z</time>
      </trkpt>
      <trkpt lat="45.70369" lon="6.26132">
        <ele>1409.91</ele>
        <time>2013-02-16T12:28:00Z</time>
      </trkpt>
      <trkpt lat="45.70373" lon="6.26136">
        <ele>1408.47</ele>
        <time>2013-02-16T12:28:01Z</time>
      </trkpt>
      <trkpt lat="45.70377" lon="6.26139">
        <ele>1407.51</ele>
        <time>2013-02-16T12:28:02Z</time>
      </trkpt>
      <trkpt lat="45.70381" lon="6.26142">
        <ele>1405.58</ele>
        <time>2013-02-16T12:28:03Z</time>
      </trkpt>
      <trkpt lat="45.70385" lon="6.26145">
        <ele>1404.62</ele>
        <time>2013-02-16T12:28:04Z</time>
      </trkpt>
      <trkpt lat="45.7039" lon="6.26146">
        <ele>1404.14</ele>
        <time>2013-02-16T12:28:05Z</time>
      </trkpt>
      <trkpt lat="45.70396" lon="6.26147">
        <ele>1403.18</ele>
        <time>2013-02-16T12:28:06Z</time>
      </trkpt>
      <trkpt lat="45.70402" lon="6.26148">
        <ele>1401.26</ele>
        <time>2013-02-16T12:28:07Z</time>
      </trkpt>
      <trkpt lat="45.70408" lon="6.2615">
        <ele>1399.82</ele>
        <time>2013-02-16T12:28:08Z</time>
      </trkpt>
      <trkpt lat="45.70413" lon="6.26153">
        <ele>1398.37</ele>
        <time>2013-02-16T12:28:09Z</time>
      </trkpt>
      <trkpt lat="45.70419" lon="6.26156">
        <ele>1397.89</ele>
        <time>2013-02-16T12:28:10Z</time>
      </trkpt>
      <trkpt lat="45.70423" lon="6.26158">
        <ele>1395.01</ele>
        <time>2013-02-16T12:28:11Z</time>
      </trkpt>
      <trkpt lat="45.70428" lon="6.26161">
        <ele>1394.05</ele>
        <time>2013-02-16T12:28:12Z</time>
      </trkpt>
      <trkpt lat="45.70431" lon="6.26163">
        <ele>1393.09</ele>
        <time>2013-02-16T12:28:13Z</time>
      </trkpt>
      <trkpt lat="45.70445" lon="6.2617">
        <ele>1390.2</ele>
        <time>2013-02-16T12:28:17Z</time>
      </trkpt>
      <trkpt lat="45.70451" lon="6.2617">
        <ele>1386.84</ele>
        <time>2013-02-16T12:28:19Z</time>
      </trkpt>
      <trkpt lat="45.70455" lon="6.26172">
        <ele>1386.84</ele>
        <time>2013-02-16T12:28:20Z</time>
      </trkpt>
      <trkpt lat="45.70457" lon="6.26177">
        <ele>1386.84</ele>
        <time>2013-02-16T12:28:21Z</time>
      </trkpt>
      <trkpt lat="45.70458" lon="6.2618">
        <ele>1385.4</ele>
        <time>2013-02-16T12:28:23Z</time>
      </trkpt>
      <trkpt lat="45.70468" lon="6.26184">
        <ele>1385.4</ele>
        <time>2013-02-16T12:28:49Z</time>
      </trkpt>
      <trkpt lat="45.70465" lon="6.26188">
        <ele>1385.4</ele>
        <time>2013-02-16T12:29:14Z</time>
      </trkpt>
      <trkpt lat="45.70463" lon="6.2619">
        <ele>1384.92</ele>
        <time>2013-02-16T12:29:15Z</time>
      </trkpt>
      <trkpt lat="45.7046" lon="6.26191">
        <ele>1384.44</ele>
        <time>2013-02-16T12:29:16Z</time>
      </trkpt>
      <trkpt lat="45.70457" lon="6.26192">
        <ele>1384.44</ele>
        <time>2013-02-16T12:29:17Z</time>
      </trkpt>
      <trkpt lat="45.70453" lon="6.26192">
        <ele>1383.96</ele>
        <time>2013-02-16T12:29:18Z</time>
      </trkpt>
      <trkpt lat="45.70447" lon="6.26193">
        <ele>1382.03</ele>
        <time>2013-02-16T12:29:19Z</time>
      </trkpt>
      <trkpt lat="45.70441" lon="6.26194">
        <ele>1381.07</ele>
        <time>2013-02-16T12:29:20Z</time>
      </trkpt>
      <trkpt lat="45.70435" lon="6.26196">
        <ele>1380.11</ele>
        <time>2013-02-16T12:29:21Z</time>
      </trkpt>
      <trkpt lat="45.7043" lon="6.26199">
        <ele>1376.75</ele>
        <time>2013-02-16T12:29:22Z</time>
      </trkpt>
      <trkpt lat="45.70424" lon="6.26204">
        <ele>1376.26</ele>
        <time>2013-02-16T12:29:23Z</time>
      </trkpt>
      <trkpt lat="45.70418" lon="6.2621">
        <ele>1373.38</ele>
        <time>2013-02-16T12:29:24Z</time>
      </trkpt>
      <trkpt lat="45.70412" lon="6.26215">
        <ele>1371.94</ele>
        <time>2013-02-16T12:29:25Z</time>
      </trkpt>
      <trkpt lat="45.70407" lon="6.26221">
        <ele>1369.54</ele>
        <time>2013-02-16T12:29:26Z</time>
      </trkpt>
      <trkpt lat="45.70404" lon="6.2623">
        <ele>1369.05</ele>
        <time>2013-02-16T12:29:27Z</time>
      </trkpt>
      <trkpt lat="45.70401" lon="6.26238">
        <ele>1368.57</ele>
        <time>2013-02-16T12:29:28Z</time>
      </trkpt>
      <trkpt lat="45.70398" lon="6.26245">
        <ele>1367.61</ele>
        <time>2013-02-16T12:29:29Z</time>
      </trkpt>
      <trkpt lat="45.70395" lon="6.26251">
        <ele>1366.17</ele>
        <time>2013-02-16T12:29:30Z</time>
      </trkpt>
      <trkpt lat="45.70393" lon="6.26256">
        <ele>1364.73</ele>
        <time>2013-02-16T12:29:31Z</time>
      </trkpt>
      <trkpt lat="45.70394" lon="6.26261">
        <ele>1362.33</ele>
        <time>2013-02-16T12:29:32Z</time>
      </trkpt>
      <trkpt lat="45.70398" lon="6.26267">
        <ele>1361.84</ele>
        <time>2013-02-16T12:29:33Z</time>
      </trkpt>
      <trkpt lat="45.70414" lon="6.26275">
        <ele>1357.52</ele>
        <time>2013-02-16T12:29:35Z</time>
      </trkpt>
      <trkpt lat="45.70435" lon="6.26289">
        <ele>1354.15</ele>
        <time>2013-02-16T12:29:38Z</time>
      </trkpt>
      <trkpt lat="45.7045" lon="6.26299">
        <ele>1352.23</ele>
        <time>2013-02-16T12:29:40Z</time>
      </trkpt>
      <trkpt lat="45.70457" lon="6.26305">
        <ele>1348.87</ele>
        <time>2013-02-16T12:29:41Z</time>
      </trkpt>
      <trkpt lat="45.70463" lon="6.2631">
        <ele>1347.91</ele>
        <time>2013-02-16T12:29:42Z</time>
      </trkpt>
      <trkpt lat="45.70484" lon="6.26323">
        <ele>1344.06</ele>
        <time>2013-02-16T12:29:45Z</time>
      </trkpt>
      <trkpt lat="45.7049" lon="6.26327">
        <ele>1344.06</ele>
        <time>2013-02-16T12:29:46Z</time>
      </trkpt>
      <trkpt lat="45.70498" lon="6.26338">
        <ele>1341.66</ele>
        <time>2013-02-16T12:29:48Z</time>
      </trkpt>
      <trkpt lat="45.70502" lon="6.2634">
        <ele>1341.18</ele>
        <time>2013-02-16T12:29:49Z</time>
      </trkpt>
      <trkpt lat="45.70507" lon="6.26339">
        <ele>1339.73</ele>
        <time>2013-02-16T12:29:51Z</time>
      </trkpt>
      <trkpt lat="45.70515" lon="6.26331">
        <ele>1339.73</ele>
        <time>2013-02-16T12:30:17Z</time>
      </trkpt>
      <trkpt lat="45.70517" lon="6.26332">
        <ele>1340.22</ele>
        <time>2013-02-16T12:30:19Z</time>
      </trkpt>
      <trkpt lat="45.70519" lon="6.26335">
        <ele>1339.73</ele>
        <time>2013-02-16T12:30:20Z</time>
      </trkpt>
      <trkpt lat="45.70529" lon="6.26355">
        <ele>1336.85</ele>
        <time>2013-02-16T12:30:24Z</time>
      </trkpt>
      <trkpt lat="45.70532" lon="6.26361">
        <ele>1335.89</ele>
        <time>2013-02-16T12:30:25Z</time>
      </trkpt>
      <trkpt lat="45.70539" lon="6.26373">
        <ele>1332.52</ele>
        <time>2013-02-16T12:30:27Z</time>
      </trkpt>
      <trkpt lat="45.70542" lon="6.26379">
        <ele>1331.56</ele>
        <time>2013-02-16T12:30:28Z</time>
      </trkpt>
      <trkpt lat="45.70546" lon="6.26384">
        <ele>1330.12</ele>
        <time>2013-02-16T12:30:29Z</time>
      </trkpt>
      <trkpt lat="45.7055" lon="6.2639">
        <ele>1327.72</ele>
        <time>2013-02-16T12:30:30Z</time>
      </trkpt>
      <trkpt lat="45.70553" lon="6.26395">
        <ele>1326.76</ele>
        <time>2013-02-16T12:30:31Z</time>
      </trkpt>
      <trkpt lat="45.70557" lon="6.264">
        <ele>1323.87</ele>
        <time>2013-02-16T12:30:32Z</time>
      </trkpt>
      <trkpt lat="45.70565" lon="6.26412">
        <ele>1322.91</ele>
        <time>2013-02-16T12:30:34Z</time>
      </trkpt>
      <trkpt lat="45.7057" lon="6.26427">
        <ele>1319.07</ele>
        <time>2013-02-16T12:30:36Z</time>
      </trkpt>
      <trkpt lat="45.70572" lon="6.26435">
        <ele>1317.62</ele>
        <time>2013-02-16T12:30:37Z</time>
      </trkpt>
      <trkpt lat="45.70575" lon="6.26451">
        <ele>1314.74</ele>
        <time>2013-02-16T12:30:39Z</time>
      </trkpt>
      <trkpt lat="45.70576" lon="6.26466">
        <ele>1311.38</ele>
        <time>2013-02-16T12:30:41Z</time>
      </trkpt>
      <trkpt lat="45.70578" lon="6.26481">
        <ele>1308.01</ele>
        <time>2013-02-16T12:30:43Z</time>
      </trkpt>
      <trkpt lat="45.7058" lon="6.26489">
        <ele>1308.49</ele>
        <time>2013-02-16T12:30:44Z</time>
      </trkpt>
      <trkpt lat="45.7058" lon="6.26496">
        <ele>1307.05</ele>
        <time>2013-02-16T12:30:45Z</time>
      </trkpt>
      <trkpt lat="45.70581" lon="6.26502">
        <ele>1305.61</ele>
        <time>2013-02-16T12:30:46Z</time>
      </trkpt>
      <trkpt lat="45.70582" lon="6.26509">
        <ele>1304.65</ele>
        <time>2013-02-16T12:30:47Z</time>
      </trkpt>
      <trkpt lat="45.70582" lon="6.26514">
        <ele>1303.2</ele>
        <time>2013-02-16T12:30:48Z</time>
      </trkpt>
      <trkpt lat="45.70583" lon="6.2652">
        <ele>1301.76</ele>
        <time>2013-02-16T12:30:49Z</time>
      </trkpt>
      <trkpt lat="45.70585" lon="6.26526">
        <ele>1300.8</ele>
        <time>2013-02-16T12:30:50Z</time>
      </trkpt>
      <trkpt lat="45.70586" lon="6.26532">
        <ele>1299.84</ele>
        <time>2013-02-16T12:30:51Z</time>
      </trkpt>
      <trkpt lat="45.7059" lon="6.26545">
        <ele>1296.96</ele>
        <time>2013-02-16T12:30:53Z</time>
      </trkpt>
      <trkpt lat="45.70592" lon="6.26552">
        <ele>1295.03</ele>
        <time>2013-02-16T12:30:54Z</time>
      </trkpt>
      <trkpt lat="45.70593" lon="6.26559">
        <ele>1294.07</ele>
        <time>2013-02-16T12:30:55Z</time>
      </trkpt>
      <trkpt lat="45.70594" lon="6.26566">
        <ele>1293.11</ele>
        <time>2013-02-16T12:30:56Z</time>
      </trkpt>
      <trkpt lat="45.70598" lon="6.26583">
        <ele>1290.23</ele>
        <time>2013-02-16T12:30:59Z</time>
      </trkpt>
      <trkpt lat="45.706" lon="6.26589">
        <ele>1289.27</ele>
        <time>2013-02-16T12:31:00Z</time>
      </trkpt>
      <trkpt lat="45.70602" lon="6.26596">
        <ele>1287.82</ele>
        <time>2013-02-16T12:31:01Z</time>
      </trkpt>
      <trkpt lat="45.70613" lon="6.26615">
        <ele>1284.94</ele>
        <time>2013-02-16T12:31:05Z</time>
      </trkpt>
      <trkpt lat="45.70617" lon="6.26621">
        <ele>1283.5</ele>
        <time>2013-02-16T12:31:06Z</time>
      </trkpt>
      <trkpt lat="45.7062" lon="6.26627">
        <ele>1282.54</ele>
        <time>2013-02-16T12:31:07Z</time>
      </trkpt>
      <trkpt lat="45.70629" lon="6.26634">
        <ele>1281.09</ele>
        <time>2013-02-16T12:31:09Z</time>
      </trkpt>
      <trkpt lat="45.70633" lon="6.26638">
        <ele>1279.17</ele>
        <time>2013-02-16T12:31:10Z</time>
      </trkpt>
      <trkpt lat="45.70637" lon="6.26642">
        <ele>1279.17</ele>
        <time>2013-02-16T12:31:11Z</time>
      </trkpt>
      <trkpt lat="45.7064" lon="6.26646">
        <ele>1277.73</ele>
        <time>2013-02-16T12:31:12Z</time>
      </trkpt>
      <trkpt lat="45.70644" lon="6.26651">
        <ele>1277.25</ele>
        <time>2013-02-16T12:31:13Z</time>
      </trkpt>
      <trkpt lat="45.70647" lon="6.26656">
        <ele>1275.81</ele>
        <time>2013-02-16T12:31:14Z</time>
      </trkpt>
      <trkpt lat="45.7065" lon="6.26661">
        <ele>1275.33</ele>
        <time>2013-02-16T12:31:15Z</time>
      </trkpt>
      <trkpt lat="45.70654" lon="6.26667">
        <ele>1274.85</ele>
        <time>2013-02-16T12:31:16Z</time>
      </trkpt>
      <trkpt lat="45.70657" lon="6.26673">
        <ele>1272.92</ele>
        <time>2013-02-16T12:31:17Z</time>
      </trkpt>
      <trkpt lat="45.7066" lon="6.26679">
        <ele>1271.96</ele>
        <time>2013-02-16T12:31:18Z</time>
      </trkpt>
      <trkpt lat="45.70662" lon="6.26685">
        <ele>1271.48</ele>
        <time>2013-02-16T12:31:19Z</time>
      </trkpt>
      <trkpt lat="45.70664" lon="6.26691">
        <ele>1270.52</ele>
        <time>2013-02-16T12:31:20Z</time>
      </trkpt>
      <trkpt lat="45.70666" lon="6.26697">
        <ele>1270.04</ele>
        <time>2013-02-16T12:31:21Z</time>
      </trkpt>
      <trkpt lat="45.70668" lon="6.26703">
        <ele>1269.56</ele>
        <time>2013-02-16T12:31:22Z</time>
      </trkpt>
      <trkpt lat="45.7068" lon="6.2673">
        <ele>1266.67</ele>
        <time>2013-02-16T12:31:26Z</time>
      </trkpt>
      <trkpt lat="45.70684" lon="6.26736">
        <ele>1263.79</ele>
        <time>2013-02-16T12:31:27Z</time>
      </trkpt>
      <trkpt lat="45.70689" lon="6.26741">
        <ele>1265.23</ele>
        <time>2013-02-16T12:31:28Z</time>
      </trkpt>
      <trkpt lat="45.70693" lon="6.26745">
        <ele>1264.27</ele>
        <time>2013-02-16T12:31:29Z</time>
      </trkpt>
      <trkpt lat="45.70697" lon="6.26748">
        <ele>1263.31</ele>
        <time>2013-02-16T12:31:30Z</time>
      </trkpt>
      <trkpt lat="45.707" lon="6.26751">
        <ele>1262.83</ele>
        <time>2013-02-16T12:31:31Z</time>
      </trkpt>
      <trkpt lat="45.70703" lon="6.26753">
        <ele>1261.87</ele>
        <time>2013-02-16T12:31:32Z</time>
      </trkpt>
      <trkpt lat="45.7071" lon="6.26758">
        <ele>1260.43</ele>
        <time>2013-02-16T12:31:34Z</time>
      </trkpt>
      <trkpt lat="45.70714" lon="6.26761">
        <ele>1261.39</ele>
        <time>2013-02-16T12:31:43Z</time>
      </trkpt>
      <trkpt lat="45.70725" lon="6.26767">
        <ele>1259.94</ele>
        <time>2013-02-16T12:32:14Z</time>
      </trkpt>
      <trkpt lat="45.70728" lon="6.2677">
        <ele>1259.46</ele>
        <time>2013-02-16T12:32:15Z</time>
      </trkpt>
      <trkpt lat="45.70731" lon="6.26774">
        <ele>1258.98</ele>
        <time>2013-02-16T12:32:16Z</time>
      </trkpt>
      <trkpt lat="45.70734" lon="6.26779">
        <ele>1258.5</ele>
        <time>2013-02-16T12:32:17Z</time>
      </trkpt>
      <trkpt lat="45.70737" lon="6.26784">
        <ele>1257.06</ele>
        <time>2013-02-16T12:32:18Z</time>
      </trkpt>
      <trkpt lat="45.70739" lon="6.26791">
        <ele>1255.62</ele>
        <time>2013-02-16T12:32:19Z</time>
      </trkpt>
      <trkpt lat="45.70743" lon="6.26798">
        <ele>1255.14</ele>
        <time>2013-02-16T12:32:20Z</time>
      </trkpt>
      <trkpt lat="45.70756" lon="6.26822">
        <ele>1252.25</ele>
        <time>2013-02-16T12:32:24Z</time>
      </trkpt>
      <trkpt lat="45.70758" lon="6.26827">
        <ele>1251.77</ele>
        <time>2013-02-16T12:32:25Z</time>
      </trkpt>
      <trkpt lat="45.70771" lon="6.26853">
        <ele>1248.89</ele>
        <time>2013-02-16T12:32:31Z</time>
      </trkpt>
      <trkpt lat="45.70774" lon="6.26859">
        <ele>1248.41</ele>
        <time>2013-02-16T12:32:32Z</time>
      </trkpt>
      <trkpt lat="45.70777" lon="6.26865">
        <ele>1247.45</ele>
        <time>2013-02-16T12:32:33Z</time>
      </trkpt>
      <trkpt lat="45.7078" lon="6.26872">
        <ele>1247.45</ele>
        <time>2013-02-16T12:32:34Z</time>
      </trkpt>
      <trkpt lat="45.70787" lon="6.26885">
        <ele>1244.08</ele>
        <time>2013-02-16T12:32:36Z</time>
      </trkpt>
      <trkpt lat="45.7079" lon="6.26891">
        <ele>1244.56</ele>
        <time>2013-02-16T12:32:37Z</time>
      </trkpt>
      <trkpt lat="45.70799" lon="6.26903">
        <ele>1244.08</ele>
        <time>2013-02-16T12:32:39Z</time>
      </trkpt>
      <trkpt lat="45.70804" lon="6.26908">
        <ele>1242.16</ele>
        <time>2013-02-16T12:32:40Z</time>
      </trkpt>
      <trkpt lat="45.70809" lon="6.26914">
        <ele>1241.68</ele>
        <time>2013-02-16T12:32:41Z</time>
      </trkpt>
      <trkpt lat="45.70824" lon="6.26932">
        <ele>1238.32</ele>
        <time>2013-02-16T12:32:44Z</time>
      </trkpt>
      <trkpt lat="45.70829" lon="6.26938">
        <ele>1237.35</ele>
        <time>2013-02-16T12:32:45Z</time>
      </trkpt>
      <trkpt lat="45.70837" lon="6.26951">
        <ele>1235.43</ele>
        <time>2013-02-16T12:32:47Z</time>
      </trkpt>
      <trkpt lat="45.70842" lon="6.26954">
        <ele>1234.47</ele>
        <time>2013-02-16T12:32:48Z</time>
      </trkpt>
      <trkpt lat="45.70846" lon="6.26956">
        <ele>1232.55</ele>
        <time>2013-02-16T12:32:49Z</time>
      </trkpt>
      <trkpt lat="45.70851" lon="6.26958">
        <ele>1232.55</ele>
        <time>2013-02-16T12:32:50Z</time>
      </trkpt>
      <trkpt lat="45.70856" lon="6.26959">
        <ele>1232.07</ele>
        <time>2013-02-16T12:32:51Z</time>
      </trkpt>
      <trkpt lat="45.70861" lon="6.26959">
        <ele>1231.59</ele>
        <time>2013-02-16T12:32:52Z</time>
      </trkpt>
      <trkpt lat="45.70866" lon="6.26959">
        <ele>1231.59</ele>
        <time>2013-02-16T12:32:53Z</time>
      </trkpt>
      <trkpt lat="45.70887" lon="6.26965">
        <ele>1231.59</ele>
        <time>2013-02-16T12:33:02Z</time>
      </trkpt>
      <trkpt lat="45.70907" lon="6.26971">
        <ele>1229.66</ele>
        <time>2013-02-16T12:33:11Z</time>
      </trkpt>
      <trkpt lat="45.70934" lon="6.27">
        <ele>1226.78</ele>
        <time>2013-02-16T12:33:19Z</time>
      </trkpt>
      <trkpt lat="45.70948" lon="6.27008">
        <ele>1225.34</ele>
        <time>2013-02-16T12:33:23Z</time>
      </trkpt>
      <trkpt lat="45.70961" lon="6.27017">
        <ele>1224.38</ele>
        <time>2013-02-16T12:33:26Z</time>
      </trkpt>
      <trkpt lat="45.70976" lon="6.2703">
        <ele>1221.97</ele>
        <time>2013-02-16T12:33:29Z</time>
      </trkpt>
      <trkpt lat="45.71002" lon="6.27052">
        <ele>1218.61</ele>
        <time>2013-02-16T12:33:34Z</time>
      </trkpt>
      <trkpt lat="45.71008" lon="6.27055">
        <ele>1218.13</ele>
        <time>2013-02-16T12:33:35Z</time>
      </trkpt>
      <trkpt lat="45.71014" lon="6.27058">
        <ele>1217.17</ele>
        <time>2013-02-16T12:33:36Z</time>
      </trkpt>
      <trkpt lat="45.7102" lon="6.27061">
        <ele>1216.21</ele>
        <time>2013-02-16T12:33:37Z</time>
      </trkpt>
      <trkpt lat="45.71026" lon="6.27065">
        <ele>1214.76</ele>
        <time>2013-02-16T12:33:38Z</time>
      </trkpt>
      <trkpt lat="45.71032" lon="6.27069">
        <ele>1213.8</ele>
        <time>2013-02-16T12:33:39Z</time>
      </trkpt>
      <trkpt lat="45.71038" lon="6.27074">
        <ele>1212.84</ele>
        <time>2013-02-16T12:33:40Z</time>
      </trkpt>
      <trkpt lat="45.71044" lon="6.27078">
        <ele>1211.4</ele>
        <time>2013-02-16T12:33:41Z</time>
      </trkpt>
      <trkpt lat="45.7105" lon="6.27082">
        <ele>1210.44</ele>
        <time>2013-02-16T12:33:42Z</time>
      </trkpt>
      <trkpt lat="45.71067" lon="6.27091">
        <ele>1206.59</ele>
        <time>2013-02-16T12:33:45Z</time>
      </trkpt>
      <trkpt lat="45.7108" lon="6.27097">
        <ele>1204.67</ele>
        <time>2013-02-16T12:33:47Z</time>
      </trkpt>
      <trkpt lat="45.71086" lon="6.271">
        <ele>1204.19</ele>
        <time>2013-02-16T12:33:48Z</time>
      </trkpt>
      <trkpt lat="45.71093" lon="6.27104">
        <ele>1203.71</ele>
        <time>2013-02-16T12:33:49Z</time>
      </trkpt>
      <trkpt lat="45.71106" lon="6.27109">
        <ele>1201.79</ele>
        <time>2013-02-16T12:33:51Z</time>
      </trkpt>
      <trkpt lat="45.71112" lon="6.27113">
        <ele>1200.82</ele>
        <time>2013-02-16T12:33:52Z</time>
      </trkpt>
      <trkpt lat="45.71117" lon="6.27115">
        <ele>1200.82</ele>
        <time>2013-02-16T12:33:53Z</time>
      </trkpt>
      <trkpt lat="45.71123" lon="6.27117">
        <ele>1199.38</ele>
        <time>2013-02-16T12:33:54Z</time>
      </trkpt>
      <trkpt lat="45.71128" lon="6.27118">
        <ele>1198.9</ele>
        <time>2013-02-16T12:33:55Z</time>
      </trkpt>
      <trkpt lat="45.71133" lon="6.27119">
        <ele>1197.46</ele>
        <time>2013-02-16T12:33:56Z</time>
      </trkpt>
      <trkpt lat="45.71138" lon="6.2712">
        <ele>1196.98</ele>
        <time>2013-02-16T12:33:57Z</time>
      </trkpt>
      <trkpt lat="45.71143" lon="6.27121">
        <ele>1195.54</ele>
        <time>2013-02-16T12:33:58Z</time>
      </trkpt>
      <trkpt lat="45.71147" lon="6.27123">
        <ele>1195.06</ele>
        <time>2013-02-16T12:33:59Z</time>
      </trkpt>
      <trkpt lat="45.71152" lon="6.27125">
        <ele>1195.06</ele>
        <time>2013-02-16T12:34:00Z</time>
      </trkpt>
      <trkpt lat="45.71171" lon="6.27133">
        <ele>1190.73</ele>
        <time>2013-02-16T12:34:04Z</time>
      </trkpt>
      <trkpt lat="45.71183" lon="6.27137">
        <ele>1189.77</ele>
        <time>2013-02-16T12:34:06Z</time>
      </trkpt>
      <trkpt lat="45.71189" lon="6.27142">
        <ele>1186.88</ele>
        <time>2013-02-16T12:34:12Z</time>
      </trkpt>
      <trkpt lat="45.71188" lon="6.27141">
        <ele>1187.85</ele>
        <time>2013-02-16T12:34:43Z</time>
      </trkpt>
      <trkpt lat="45.71191" lon="6.2714">
        <ele>1187.85</ele>
        <time>2013-02-16T12:34:50Z</time>
      </trkpt>
      <trkpt lat="45.71199" lon="6.27142">
        <ele>1185.44</ele>
        <time>2013-02-16T12:34:52Z</time>
      </trkpt>
      <trkpt lat="45.71204" lon="6.27144">
        <ele>1183.52</ele>
        <time>2013-02-16T12:34:53Z</time>
      </trkpt>
      <trkpt lat="45.7121" lon="6.27144">
        <ele>1181.6</ele>
        <time>2013-02-16T12:34:54Z</time>
      </trkpt>
      <trkpt lat="45.71216" lon="6.2714">
        <ele>1181.12</ele>
        <time>2013-02-16T12:34:55Z</time>
      </trkpt>
      <trkpt lat="45.71222" lon="6.27139">
        <ele>1181.12</ele>
        <time>2013-02-16T12:34:56Z</time>
      </trkpt>
      <trkpt lat="45.71229" lon="6.27143">
        <ele>1180.16</ele>
        <time>2013-02-16T12:34:57Z</time>
      </trkpt>
      <trkpt lat="45.71236" lon="6.27149">
        <ele>1178.71</ele>
        <time>2013-02-16T12:34:58Z</time>
      </trkpt>
      <trkpt lat="45.71243" lon="6.27153">
        <ele>1176.31</ele>
        <time>2013-02-16T12:34:59Z</time>
      </trkpt>
      <trkpt lat="45.7125" lon="6.27158">
        <ele>1175.83</ele>
        <time>2013-02-16T12:35:00Z</time>
      </trkpt>
      <trkpt lat="45.71256" lon="6.27164">
        <ele>1174.87</ele>
        <time>2013-02-16T12:35:01Z</time>
      </trkpt>
      <trkpt lat="45.71262" lon="6.2717">
        <ele>1173.43</ele>
        <time>2013-02-16T12:35:02Z</time>
      </trkpt>
      <trkpt lat="45.71269" lon="6.27176">
        <ele>1171.5</ele>
        <time>2013-02-16T12:35:03Z</time>
      </trkpt>
      <trkpt lat="45.71276" lon="6.27183">
        <ele>1171.02</ele>
        <time>2013-02-16T12:35:04Z</time>
      </trkpt>
      <trkpt lat="45.71283" lon="6.27189">
        <ele>1171.02</ele>
        <time>2013-02-16T12:35:05Z</time>
      </trkpt>
      <trkpt lat="45.71289" lon="6.27195">
        <ele>1170.06</ele>
        <time>2013-02-16T12:35:06Z</time>
      </trkpt>
      <trkpt lat="45.71295" lon="6.27202">
        <ele>1168.14</ele>
        <time>2013-02-16T12:35:07Z</time>
      </trkpt>
      <trkpt lat="45.71301" lon="6.27208">
        <ele>1168.14</ele>
        <time>2013-02-16T12:35:08Z</time>
      </trkpt>
      <trkpt lat="45.71307" lon="6.27215">
        <ele>1167.66</ele>
        <time>2013-02-16T12:35:09Z</time>
      </trkpt>
      <trkpt lat="45.71312" lon="6.27223">
        <ele>1166.22</ele>
        <time>2013-02-16T12:35:10Z</time>
      </trkpt>
      <trkpt lat="45.71317" lon="6.27232">
        <ele>1165.26</ele>
        <time>2013-02-16T12:35:11Z</time>
      </trkpt>
      <trkpt lat="45.71328" lon="6.27251">
        <ele>1159.01</ele>
        <time>2013-02-16T12:35:13Z</time>
      </trkpt>
      <trkpt lat="45.71342" lon="6.27282">
        <ele>1156.12</ele>
        <time>2013-02-16T12:35:16Z</time>
      </trkpt>
      <trkpt lat="45.71346" lon="6.27293">
        <ele>1156.6</ele>
        <time>2013-02-16T12:35:17Z</time>
      </trkpt>
      <trkpt lat="45.7135" lon="6.27304">
        <ele>1153.24</ele>
        <time>2013-02-16T12:35:18Z</time>
      </trkpt>
      <trkpt lat="45.71354" lon="6.27314">
        <ele>1154.2</ele>
        <time>2013-02-16T12:35:19Z</time>
      </trkpt>
      <trkpt lat="45.71356" lon="6.27324">
        <ele>1153.72</ele>
        <time>2013-02-16T12:35:20Z</time>
      </trkpt>
      <trkpt lat="45.71354" lon="6.27336">
        <ele>1152.76</ele>
        <time>2013-02-16T12:35:21Z</time>
      </trkpt>
      <trkpt lat="45.71351" lon="6.27346">
        <ele>1150.84</ele>
        <time>2013-02-16T12:35:22Z</time>
      </trkpt>
      <trkpt lat="45.71347" lon="6.27356">
        <ele>1148.91</ele>
        <time>2013-02-16T12:35:23Z</time>
      </trkpt>
      <trkpt lat="45.71343" lon="6.27366">
        <ele>1148.43</ele>
        <time>2013-02-16T12:35:24Z</time>
      </trkpt>
      <trkpt lat="45.71341" lon="6.27376">
        <ele>1147.95</ele>
        <time>2013-02-16T12:35:25Z</time>
      </trkpt>
      <trkpt lat="45.71337" lon="6.27387">
        <ele>1146.99</ele>
        <time>2013-02-16T12:35:26Z</time>
      </trkpt>
      <trkpt lat="45.71336" lon="6.27398">
        <ele>1146.03</ele>
        <time>2013-02-16T12:35:27Z</time>
      </trkpt>
      <trkpt lat="45.71335" lon="6.27408">
        <ele>1145.55</ele>
        <time>2013-02-16T12:35:28Z</time>
      </trkpt>
      <trkpt lat="45.71334" lon="6.2742">
        <ele>1143.14</ele>
        <time>2013-02-16T12:35:29Z</time>
      </trkpt>
      <trkpt lat="45.71333" lon="6.27431">
        <ele>1142.18</ele>
        <time>2013-02-16T12:35:30Z</time>
      </trkpt>
      <trkpt lat="45.71333" lon="6.27441">
        <ele>1141.7</ele>
        <time>2013-02-16T12:35:31Z</time>
      </trkpt>
      <trkpt lat="45.71332" lon="6.27451">
        <ele>1140.74</ele>
        <time>2013-02-16T12:35:32Z</time>
      </trkpt>
      <trkpt lat="45.71332" lon="6.27459">
        <ele>1140.26</ele>
        <time>2013-02-16T12:35:33Z</time>
      </trkpt>
      <trkpt lat="45.71333" lon="6.27466">
        <ele>1136.9</ele>
        <time>2013-02-16T12:35:34Z</time>
      </trkpt>
      <trkpt lat="45.71334" lon="6.27472">
        <ele>1136.42</ele>
        <time>2013-02-16T12:35:35Z</time>
      </trkpt>
      <trkpt lat="45.71335" lon="6.27474">
        <ele>1134.97</ele>
        <time>2013-02-16T12:35:37Z</time>
      </trkpt>
      <trkpt lat="45.71332" lon="6.27471">
        <ele>1136.42</ele>
        <time>2013-02-16T12:36:00Z</time>
      </trkpt>
      <trkpt lat="45.71332" lon="6.27471">
        <ele>1136.42</ele>
        <time>2013-02-16T12:36:23Z</time>
      </trkpt>
      <trkpt lat="45.71331" lon="6.27471">
        <ele>1136.9</ele>
        <time>2013-02-16T12:36:48Z</time>
      </trkpt>
    </trkseg>
  </trk>
</gpx>